<?xml version='1.0' encoding='UTF-8'?><gpx version="1.1" creator="JPX - https://github.com/jenetics/jpx" xmlns="http://www.topografix.com/GPX/1/1"><trk><trkseg><trkpt lat="49.06351478719613" lon="-0.9982642972143839"><ele>65.0</ele><time>2026-04-29T16:58:02Z</time></trkpt><trkpt lat="49.06357790195853" lon="-0.9981369596764096"><ele>65.0</ele><time>2026-04-29T16:58:04Z</time></trkpt><trkpt lat="49.06362752770782" lon="-0.9980755589958487"><ele>65.0</ele><time>2026-04-29T16:58:06Z</time></trkpt><trkpt lat="49.06337773314621" lon="-0.9980182275490748"><ele>65.0</ele><time>2026-04-29T16:58:08.001Z</time></trkpt><trkpt lat="49.0633157192294" lon="-0.997909495141734"><ele>65.0</ele><time>2026-04-29T16:58:10.001Z</time></trkpt><trkpt lat="49.06324953951981" lon="-0.9978395851962224"><ele>65.0</ele><time>2026-04-29T16:58:12.001Z</time></trkpt><trkpt lat="49.06323703090905" lon="-0.997689667896902"><ele>65.0</ele><time>2026-04-29T16:58:15.001Z</time></trkpt><trkpt lat="49.06340455915851" lon="-0.9974054733278734"><ele>65.0</ele><time>2026-04-29T16:58:17.001Z</time></trkpt><trkpt lat="49.06346331056663" lon="-0.9973050319649588"><ele>65.25</ele><time>2026-04-29T16:58:18.001Z</time></trkpt><trkpt lat="49.06352877872044" lon="-0.9971995618732771"><ele>65.5</ele><time>2026-04-29T16:58:19.001Z</time></trkpt><trkpt lat="49.06359017830456" lon="-0.997070898378176"><ele>65.75</ele><time>2026-04-29T16:58:20.001Z</time></trkpt><trkpt lat="49.06367079174991" lon="-0.9969269094099825"><ele>66.0</ele><time>2026-04-29T16:58:21.001Z</time></trkpt><trkpt lat="49.063762006218525" lon="-0.99676539396066"><ele>64.66666666666667</ele><time>2026-04-29T16:58:22.001Z</time></trkpt><trkpt lat="49.06386164904251" lon="-0.9965938066107303"><ele>63.333333333333336</ele><time>2026-04-29T16:58:23.001Z</time></trkpt><trkpt lat="49.063962711771886" lon="-0.9964080934083885"><ele>62.0</ele><time>2026-04-29T16:58:24.001Z</time></trkpt><trkpt lat="49.06407076021396" lon="-0.9962295095652471"><ele>62.333333333333336</ele><time>2026-04-29T16:58:25.001Z</time></trkpt><trkpt lat="49.06417656920542" lon="-0.9960036365770939"><ele>62.66666666666667</ele><time>2026-04-29T16:58:26.001Z</time></trkpt><trkpt lat="49.06429863916718" lon="-0.9957679128281473"><ele>63.0</ele><time>2026-04-29T16:58:27.001Z</time></trkpt><trkpt lat="49.064389425360055" lon="-0.9956443032750824"><ele>63.0</ele><time>2026-04-29T16:58:28.001Z</time></trkpt><trkpt lat="49.06450179388269" lon="-0.9954754181368349"><ele>63.0</ele><time>2026-04-29T16:58:29.001Z</time></trkpt><trkpt lat="49.06465323483809" lon="-0.9952588314486606"><ele>63.0</ele><time>2026-04-29T16:58:30.001Z</time></trkpt><trkpt lat="49.064738253661766" lon="-0.995171493358534"><ele>63.0</ele><time>2026-04-29T16:58:31.001Z</time></trkpt><trkpt lat="49.06485670006578" lon="-0.9950100291330485"><ele>63.0</ele><time>2026-04-29T16:58:32.001Z</time></trkpt><trkpt lat="49.06497040997516" lon="-0.994876243728836"><ele>63.0</ele><time>2026-04-29T16:58:33.001Z</time></trkpt><trkpt lat="49.06508840414718" lon="-0.9946982753293965"><ele>63.25</ele><time>2026-04-29T16:58:34.001Z</time></trkpt><trkpt lat="49.06520028612521" lon="-0.9945307727378496"><ele>63.5</ele><time>2026-04-29T16:58:35.001Z</time></trkpt><trkpt lat="49.06528459758084" lon="-0.9943665710896048"><ele>63.75</ele><time>2026-04-29T16:58:36Z</time></trkpt><trkpt lat="49.065371386335556" lon="-0.9942547585717199"><ele>64.0</ele><time>2026-04-29T16:58:37Z</time></trkpt><trkpt lat="49.06543950675464" lon="-0.9941261418681396"><ele>64.0</ele><time>2026-04-29T16:58:38Z</time></trkpt><trkpt lat="49.06551542654354" lon="-0.9939802671484687"><ele>64.0</ele><time>2026-04-29T16:58:39Z</time></trkpt><trkpt lat="49.06558226400034" lon="-0.993848156499513"><ele>64.0</ele><time>2026-04-29T16:58:40Z</time></trkpt><trkpt lat="49.065652167046345" lon="-0.9937021359112492"><ele>64.0</ele><time>2026-04-29T16:58:41Z</time></trkpt><trkpt lat="49.065724619219914" lon="-0.9935547679324284"><ele>64.0</ele><time>2026-04-29T16:58:42Z</time></trkpt><trkpt lat="49.065803154307346" lon="-0.9933975275349184"><ele>64.0</ele><time>2026-04-29T16:58:43Z</time></trkpt><trkpt lat="49.06588817679701" lon="-0.9932372715058174"><ele>64.0</ele><time>2026-04-29T16:58:44Z</time></trkpt><trkpt lat="49.06599167421682" lon="-0.9930633249566947"><ele>64.0</ele><time>2026-04-29T16:58:45Z</time></trkpt><trkpt lat="49.06609908510126" lon="-0.9928893463329793"><ele>64.0</ele><time>2026-04-29T16:58:46Z</time></trkpt><trkpt lat="49.06620189302287" lon="-0.9927552872177746"><ele>64.0</ele><time>2026-04-29T16:58:47Z</time></trkpt><trkpt lat="49.06630530413695" lon="-0.99265578054242"><ele>64.0</ele><time>2026-04-29T16:58:48Z</time></trkpt><trkpt lat="49.06640970690661" lon="-0.9925747751662668"><ele>64.0</ele><time>2026-04-29T16:58:49Z</time></trkpt><trkpt lat="49.06651043547185" lon="-0.99250026810096"><ele>63.0</ele><time>2026-04-29T16:58:50Z</time></trkpt><trkpt lat="49.06660505885798" lon="-0.9924268684178148"><ele>62.00000000000001</ele><time>2026-04-29T16:58:51Z</time></trkpt><trkpt lat="49.06669934649039" lon="-0.9923495249324017"><ele>61.00000000000001</ele><time>2026-04-29T16:58:52Z</time></trkpt><trkpt lat="49.06679721176592" lon="-0.992270019801938"><ele>60.0</ele><time>2026-04-29T16:58:53Z</time></trkpt><trkpt lat="49.06688467248405" lon="-0.9921941637234155"><ele>59.0</ele><time>2026-04-29T16:58:54Z</time></trkpt><trkpt lat="49.06696127972613" lon="-0.9921120815268544"><ele>58.50000000000001</ele><time>2026-04-29T16:58:55Z</time></trkpt><trkpt lat="49.067010982194674" lon="-0.9919974255922384"><ele>58.0</ele><time>2026-04-29T16:58:56Z</time></trkpt><trkpt lat="49.067042460427146" lon="-0.9918943755160237"><ele>57.5</ele><time>2026-04-29T16:58:57Z</time></trkpt><trkpt lat="49.06708533403222" lon="-0.9918064358342522"><ele>57.0</ele><time>2026-04-29T16:58:58Z</time></trkpt><trkpt lat="49.067022352666186" lon="-0.9916628800212448"><ele>56.50000000000001</ele><time>2026-04-29T16:59:00Z</time></trkpt><trkpt lat="49.06695583614546" lon="-0.9915744295663603"><ele>56.0</ele><time>2026-04-29T16:59:01Z</time></trkpt><trkpt lat="49.06688000777938" lon="-0.9914689851171301"><ele>54.75</ele><time>2026-04-29T16:59:02Z</time></trkpt><trkpt lat="49.066794623351285" lon="-0.9913559611046088"><ele>53.5</ele><time>2026-04-29T16:59:03Z</time></trkpt><trkpt lat="49.066716994311456" lon="-0.9912243911369324"><ele>52.25</ele><time>2026-04-29T16:59:04Z</time></trkpt><trkpt lat="49.06664196678662" lon="-0.991085592225194"><ele>51.0</ele><time>2026-04-29T16:59:05Z</time></trkpt><trkpt lat="49.066598461902664" lon="-0.9908966078274727"><ele>51.75</ele><time>2026-04-29T16:59:06Z</time></trkpt><trkpt lat="49.06658324326391" lon="-0.990734730784279"><ele>52.5</ele><time>2026-04-29T16:59:07Z</time></trkpt><trkpt lat="49.066528792526626" lon="-0.9905319325135934"><ele>53.25</ele><time>2026-04-29T16:59:08Z</time></trkpt><trkpt lat="49.06650674803456" lon="-0.9903084503978669"><ele>54.0</ele><time>2026-04-29T16:59:09Z</time></trkpt><trkpt lat="49.066442614706396" lon="-0.9901397687670793"><ele>54.0</ele><time>2026-04-29T16:59:10Z</time></trkpt><trkpt lat="49.06641396453572" lon="-0.9900310482236616"><ele>54.00000000000001</ele><time>2026-04-29T16:59:11Z</time></trkpt><trkpt lat="49.066382417028784" lon="-0.9898947688237918"><ele>54.00000000000001</ele><time>2026-04-29T16:59:12Z</time></trkpt><trkpt lat="49.066346666817296" lon="-0.9898012664059866"><ele>54.0</ele><time>2026-04-29T16:59:13Z</time></trkpt><trkpt lat="49.06628237785136" lon="-0.9896250532713424"><ele>54.0</ele><time>2026-04-29T16:59:15Z</time></trkpt><trkpt lat="49.0664946160457" lon="-0.9892902735211575"><ele>55.75</ele><time>2026-04-29T16:59:16Z</time></trkpt><trkpt lat="49.06652590119395" lon="-0.9891196963344602"><ele>57.5</ele><time>2026-04-29T16:59:17Z</time></trkpt><trkpt lat="49.0665491904268" lon="-0.9889497851033371"><ele>59.25</ele><time>2026-04-29T16:59:18Z</time></trkpt><trkpt lat="49.06654267805037" lon="-0.9887628356736938"><ele>61.0</ele><time>2026-04-29T16:59:19Z</time></trkpt><trkpt lat="49.066554198653385" lon="-0.9885759440391607"><ele>61.0</ele><time>2026-04-29T16:59:20Z</time></trkpt><trkpt lat="49.06653048797762" lon="-0.9883670515724206"><ele>61.0</ele><time>2026-04-29T16:59:21Z</time></trkpt><trkpt lat="49.06654485283649" lon="-0.9881896470151795"><ele>61.0</ele><time>2026-04-29T16:59:22Z</time></trkpt><trkpt lat="49.06658878395098" lon="-0.9880281694793942"><ele>61.0</ele><time>2026-04-29T16:59:23Z</time></trkpt><trkpt lat="49.06657927897572" lon="-0.9878121222731849"><ele>60.75</ele><time>2026-04-29T16:59:24Z</time></trkpt><trkpt lat="49.06661661492983" lon="-0.9875801358922106"><ele>60.5</ele><time>2026-04-29T16:59:25Z</time></trkpt><trkpt lat="49.066669897863335" lon="-0.987379900022245"><ele>60.25</ele><time>2026-04-29T16:59:26Z</time></trkpt><trkpt lat="49.066702566631584" lon="-0.9871891014279246"><ele>60.0</ele><time>2026-04-29T16:59:27Z</time></trkpt><trkpt lat="49.06672933028628" lon="-0.9870090480612315"><ele>60.0</ele><time>2026-04-29T16:59:28Z</time></trkpt><trkpt lat="49.0667473151977" lon="-0.9868443724899579"><ele>60.0</ele><time>2026-04-29T16:59:29Z</time></trkpt><trkpt lat="49.06675994503033" lon="-0.986698859106131"><ele>60.0</ele><time>2026-04-29T16:59:30Z</time></trkpt><trkpt lat="49.06677415250784" lon="-0.9865985165203969"><ele>60.0</ele><time>2026-04-29T16:59:31Z</time></trkpt><trkpt lat="49.06678098407387" lon="-0.9865008979410731"><ele>60.0</ele><time>2026-04-29T16:59:33Z</time></trkpt><trkpt lat="49.0668299753694" lon="-0.9864039838768339"><ele>60.0</ele><time>2026-04-29T16:59:45Z</time></trkpt><trkpt lat="49.06687579730101" lon="-0.9862640778711896"><ele>60.5</ele><time>2026-04-29T16:59:47Z</time></trkpt><trkpt lat="49.066878752458756" lon="-0.9861521304902957"><ele>61.0</ele><time>2026-04-29T16:59:48Z</time></trkpt><trkpt lat="49.0668730762516" lon="-0.9860300253537355"><ele>61.5</ele><time>2026-04-29T16:59:49Z</time></trkpt><trkpt lat="49.06683602729321" lon="-0.9859354889327989"><ele>62.0</ele><time>2026-04-29T16:59:50Z</time></trkpt><trkpt lat="49.06679303762215" lon="-0.9858262577899591"><ele>62.5</ele><time>2026-04-29T16:59:51Z</time></trkpt><trkpt lat="49.06674258792789" lon="-0.9857115637319245"><ele>63.0</ele><time>2026-04-29T16:59:52Z</time></trkpt><trkpt lat="49.06667708309906" lon="-0.9856104717829599"><ele>63.833333333333336</ele><time>2026-04-29T16:59:53Z</time></trkpt><trkpt lat="49.066621434970976" lon="-0.9854940931333535"><ele>64.66666666666667</ele><time>2026-04-29T16:59:54Z</time></trkpt><trkpt lat="49.066569154322444" lon="-0.9853868155345875"><ele>65.5</ele><time>2026-04-29T16:59:55Z</time></trkpt><trkpt lat="49.0665446931389" lon="-0.9852709360866158"><ele>66.33333333333334</ele><time>2026-04-29T16:59:56Z</time></trkpt><trkpt lat="49.06650290318486" lon="-0.9851803281506135"><ele>67.16666666666667</ele><time>2026-04-29T16:59:57Z</time></trkpt><trkpt lat="49.06647403211928" lon="-0.9850729552203067"><ele>68.0</ele><time>2026-04-29T16:59:58Z</time></trkpt><trkpt lat="49.066427449747316" lon="-0.9849452907606736"><ele>70.0</ele><time>2026-04-29T16:59:59Z</time></trkpt><trkpt lat="49.06639802191292" lon="-0.9848278876208992"><ele>72.0</ele><time>2026-04-29T17:00:00Z</time></trkpt><trkpt lat="49.066352761843376" lon="-0.9846743068886074"><ele>74.0</ele><time>2026-04-29T17:00:01Z</time></trkpt><trkpt lat="49.066308787884346" lon="-0.9845029482873638"><ele>76.0</ele><time>2026-04-29T17:00:02Z</time></trkpt><trkpt lat="49.06627260963781" lon="-0.9843375784646273"><ele>78.0</ele><time>2026-04-29T17:00:03Z</time></trkpt><trkpt lat="49.06623964409923" lon="-0.9841896952145633"><ele>77.83333333333333</ele><time>2026-04-29T17:00:04Z</time></trkpt><trkpt lat="49.06622634829932" lon="-0.9840427073653724"><ele>77.66666666666667</ele><time>2026-04-29T17:00:05Z</time></trkpt><trkpt lat="49.06623346777644" lon="-0.9839230094278569"><ele>77.5</ele><time>2026-04-29T17:00:06Z</time></trkpt><trkpt lat="49.06624833567127" lon="-0.983809901566137"><ele>77.33333333333334</ele><time>2026-04-29T17:00:07Z</time></trkpt><trkpt lat="49.06626180638297" lon="-0.9836972460203717"><ele>77.16666666666667</ele><time>2026-04-29T17:00:08Z</time></trkpt><trkpt lat="49.06627622126748" lon="-0.9835858591277992"><ele>77.0</ele><time>2026-04-29T17:00:09Z</time></trkpt><trkpt lat="49.06628850731456" lon="-0.9834625714577718"><ele>77.33333333333334</ele><time>2026-04-29T17:00:10Z</time></trkpt><trkpt lat="49.06629557023636" lon="-0.9833315807816725"><ele>77.66666666666667</ele><time>2026-04-29T17:00:11Z</time></trkpt><trkpt lat="49.06630429163274" lon="-0.9831941244505772"><ele>78.0</ele><time>2026-04-29T17:00:12Z</time></trkpt><trkpt lat="49.06631338229235" lon="-0.9830561059164897"><ele>78.33333333333333</ele><time>2026-04-29T17:00:13Z</time></trkpt><trkpt lat="49.06633114548307" lon="-0.9829187745139807"><ele>78.66666666666666</ele><time>2026-04-29T17:00:14Z</time></trkpt><trkpt lat="49.06634483675231" lon="-0.9827969976693277"><ele>79.0</ele><time>2026-04-29T17:00:15Z</time></trkpt><trkpt lat="49.06635021099921" lon="-0.9826938170174707"><ele>79.0</ele><time>2026-04-29T17:00:16Z</time></trkpt><trkpt lat="49.0663532550478" lon="-0.9825758611079863"><ele>79.0</ele><time>2026-04-29T17:00:18Z</time></trkpt><trkpt lat="49.06634674314561" lon="-0.9824270583657436"><ele>79.0</ele><time>2026-04-29T17:00:25Z</time></trkpt><trkpt lat="49.066386891802274" lon="-0.982322444030108"><ele>79.0</ele><time>2026-04-29T17:00:27Z</time></trkpt><trkpt lat="49.0664086397977" lon="-0.9821583547378747"><ele>79.0</ele><time>2026-04-29T17:00:29Z</time></trkpt><trkpt lat="49.066427626286924" lon="-0.982029240508495"><ele>81.0</ele><time>2026-04-29T17:00:30Z</time></trkpt><trkpt lat="49.066440365577535" lon="-0.98186201792237"><ele>83.0</ele><time>2026-04-29T17:00:31Z</time></trkpt><trkpt lat="49.066467534801426" lon="-0.9816797600334685"><ele>85.0</ele><time>2026-04-29T17:00:32Z</time></trkpt><trkpt lat="49.06648209488214" lon="-0.9814774930695487"><ele>87.0</ele><time>2026-04-29T17:00:33Z</time></trkpt><trkpt lat="49.06647802731387" lon="-0.9812941133068059"><ele>88.75</ele><time>2026-04-29T17:00:34Z</time></trkpt><trkpt lat="49.06647863243929" lon="-0.9811081690503943"><ele>90.5</ele><time>2026-04-29T17:00:35Z</time></trkpt><trkpt lat="49.066534938122324" lon="-0.9809224650638695"><ele>92.25</ele><time>2026-04-29T17:00:36Z</time></trkpt><trkpt lat="49.06655738747375" lon="-0.9807366082636908"><ele>94.0</ele><time>2026-04-29T17:00:37Z</time></trkpt><trkpt lat="49.06657088176135" lon="-0.9805811504002415"><ele>94.5</ele><time>2026-04-29T17:00:38Z</time></trkpt><trkpt lat="49.066556053968355" lon="-0.9804242094884342"><ele>95.0</ele><time>2026-04-29T17:00:39Z</time></trkpt><trkpt lat="49.06653378735564" lon="-0.9802567085840092"><ele>95.5</ele><time>2026-04-29T17:00:40Z</time></trkpt><trkpt lat="49.06647674075286" lon="-0.9800846207401233"><ele>96.0</ele><time>2026-04-29T17:00:41Z</time></trkpt><trkpt lat="49.06642591337203" lon="-0.9798912182741554"><ele>96.25</ele><time>2026-04-29T17:00:42Z</time></trkpt><trkpt lat="49.066347272952555" lon="-0.9797413636320025"><ele>96.5</ele><time>2026-04-29T17:00:43Z</time></trkpt><trkpt lat="49.06629284438811" lon="-0.9795733849500294"><ele>96.75</ele><time>2026-04-29T17:00:44Z</time></trkpt><trkpt lat="49.06623592780912" lon="-0.9794167298580226"><ele>97.0</ele><time>2026-04-29T17:00:45Z</time></trkpt><trkpt lat="49.06616519597309" lon="-0.9792730631076444"><ele>98.8</ele><time>2026-04-29T17:00:46Z</time></trkpt><trkpt lat="49.0661027018415" lon="-0.9791265901749517"><ele>100.6</ele><time>2026-04-29T17:00:47Z</time></trkpt><trkpt lat="49.06603861723289" lon="-0.978992923506494"><ele>102.39999999999999</ele><time>2026-04-29T17:00:48Z</time></trkpt><trkpt lat="49.0659782580229" lon="-0.9788416730813994"><ele>104.19999999999999</ele><time>2026-04-29T17:00:49Z</time></trkpt><trkpt lat="49.065919774987776" lon="-0.9787052776694701"><ele>106.0</ele><time>2026-04-29T17:00:50Z</time></trkpt><trkpt lat="49.06587536694654" lon="-0.978568743126453"><ele>106.00000000000001</ele><time>2026-04-29T17:00:51Z</time></trkpt><trkpt lat="49.065819961447524" lon="-0.9784446538972768"><ele>106.0</ele><time>2026-04-29T17:00:52Z</time></trkpt><trkpt lat="49.06578317000304" lon="-0.9783336772638775"><ele>106.0</ele><time>2026-04-29T17:00:53Z</time></trkpt><trkpt lat="49.06576170060073" lon="-0.9782117310063978"><ele>106.0</ele><time>2026-04-29T17:00:54Z</time></trkpt><trkpt lat="49.06578921521486" lon="-0.9780839600706087"><ele>106.00000000000001</ele><time>2026-04-29T17:00:55Z</time></trkpt><trkpt lat="49.065824693851155" lon="-0.9779506751876529"><ele>106.0</ele><time>2026-04-29T17:00:56Z</time></trkpt><trkpt lat="49.06588213521402" lon="-0.9778247066237549"><ele>106.19999999999999</ele><time>2026-04-29T17:00:57Z</time></trkpt><trkpt lat="49.06593788337085" lon="-0.977691943065431"><ele>106.39999999999999</ele><time>2026-04-29T17:00:58Z</time></trkpt><trkpt lat="49.06599243508284" lon="-0.9775467503573562"><ele>106.6</ele><time>2026-04-29T17:00:59Z</time></trkpt><trkpt lat="49.06605137768838" lon="-0.9773980460937689"><ele>106.8</ele><time>2026-04-29T17:01:00Z</time></trkpt><trkpt lat="49.06610965163321" lon="-0.977251786000353"><ele>107.0</ele><time>2026-04-29T17:01:01Z</time></trkpt><trkpt lat="49.06616746213426" lon="-0.9771084808142791"><ele>107.8</ele><time>2026-04-29T17:01:02Z</time></trkpt><trkpt lat="49.06622701275983" lon="-0.9769851986441295"><ele>108.6</ele><time>2026-04-29T17:01:03Z</time></trkpt><trkpt lat="49.06626089800308" lon="-0.976876118630664"><ele>109.39999999999999</ele><time>2026-04-29T17:01:04Z</time></trkpt><trkpt lat="49.06626564928412" lon="-0.9767790598218945"><ele>110.19999999999999</ele><time>2026-04-29T17:01:05Z</time></trkpt><trkpt lat="49.06616387678046" lon="-0.9767026731349728"><ele>111.0</ele><time>2026-04-29T17:01:07Z</time></trkpt><trkpt lat="49.06599636803558" lon="-0.9766945184933978"><ele>111.25</ele><time>2026-04-29T17:01:09Z</time></trkpt><trkpt lat="49.06588539689574" lon="-0.9766687273072566"><ele>111.5</ele><time>2026-04-29T17:01:10Z</time></trkpt><trkpt lat="49.06576626597736" lon="-0.9766444041395415"><ele>111.75</ele><time>2026-04-29T17:01:11Z</time></trkpt><trkpt lat="49.06565225563573" lon="-0.9766029239297132"><ele>112.0</ele><time>2026-04-29T17:01:12Z</time></trkpt><trkpt lat="49.06551167950113" lon="-0.976548257927031"><ele>114.25</ele><time>2026-04-29T17:01:13Z</time></trkpt><trkpt lat="49.06536425118882" lon="-0.9765032907795241"><ele>116.5</ele><time>2026-04-29T17:01:14Z</time></trkpt><trkpt lat="49.06523904325833" lon="-0.9764786107123351"><ele>118.75</ele><time>2026-04-29T17:01:15Z</time></trkpt><trkpt lat="49.06510456588396" lon="-0.9764514588792227"><ele>121.0</ele><time>2026-04-29T17:01:16Z</time></trkpt><trkpt lat="49.064967329583034" lon="-0.9763971970527319"><ele>121.75</ele><time>2026-04-29T17:01:17Z</time></trkpt><trkpt lat="49.06481943204103" lon="-0.9763468640920284"><ele>122.5</ele><time>2026-04-29T17:01:18Z</time></trkpt><trkpt lat="49.064676142717296" lon="-0.9762816111975867"><ele>123.25</ele><time>2026-04-29T17:01:19Z</time></trkpt><trkpt lat="49.064532461170806" lon="-0.97624201469552"><ele>124.0</ele><time>2026-04-29T17:01:20Z</time></trkpt><trkpt lat="49.06440196542788" lon="-0.9762218171415494"><ele>124.0</ele><time>2026-04-29T17:01:21Z</time></trkpt><trkpt lat="49.064256597509925" lon="-0.9761506298074905"><ele>124.0</ele><time>2026-04-29T17:01:22Z</time></trkpt><trkpt lat="49.0641271589562" lon="-0.9761077225821443"><ele>124.0</ele><time>2026-04-29T17:01:23Z</time></trkpt><trkpt lat="49.06401998441693" lon="-0.9760654600446997"><ele>124.0</ele><time>2026-04-29T17:01:24Z</time></trkpt><trkpt lat="49.06392818841152" lon="-0.9760352124099895"><ele>123.2</ele><time>2026-04-29T17:01:25Z</time></trkpt><trkpt lat="49.063847402804434" lon="-0.9760145541017035"><ele>122.4</ele><time>2026-04-29T17:01:26Z</time></trkpt><trkpt lat="49.06378142056421" lon="-0.9761447968271157"><ele>121.6</ele><time>2026-04-29T17:01:28Z</time></trkpt><trkpt lat="49.063740541913035" lon="-0.9762382543812327"><ele>120.8</ele><time>2026-04-29T17:01:29Z</time></trkpt><trkpt lat="49.063732908367726" lon="-0.9764237235312966"><ele>120.0</ele><time>2026-04-29T17:01:30Z</time></trkpt><trkpt lat="49.063709395991985" lon="-0.9765901643223512"><ele>119.6</ele><time>2026-04-29T17:01:31Z</time></trkpt><trkpt lat="49.06367320188147" lon="-0.9767102350542142"><ele>119.2</ele><time>2026-04-29T17:01:32Z</time></trkpt><trkpt lat="49.063648733214826" lon="-0.9768811512107989"><ele>118.80000000000001</ele><time>2026-04-29T17:01:33Z</time></trkpt><trkpt lat="49.06361918207492" lon="-0.9770371156655933"><ele>118.4</ele><time>2026-04-29T17:01:34Z</time></trkpt><trkpt lat="49.063587804551254" lon="-0.9772064499860011"><ele>118.0</ele><time>2026-04-29T17:01:35Z</time></trkpt><trkpt lat="49.06356816652919" lon="-0.9773787366013535"><ele>117.5</ele><time>2026-04-29T17:01:36Z</time></trkpt><trkpt lat="49.06353879094765" lon="-0.9775672555862535"><ele>117.0</ele><time>2026-04-29T17:01:37Z</time></trkpt><trkpt lat="49.0635082263996" lon="-0.9777400974031459"><ele>116.5</ele><time>2026-04-29T17:01:38Z</time></trkpt><trkpt lat="49.063475268226796" lon="-0.9779139126901915"><ele>116.0</ele><time>2026-04-29T17:01:39Z</time></trkpt><trkpt lat="49.0634377241777" lon="-0.9780800289318001"><ele>116.0</ele><time>2026-04-29T17:01:40Z</time></trkpt><trkpt lat="49.063411035905744" lon="-0.9782290532652543"><ele>116.0</ele><time>2026-04-29T17:01:41Z</time></trkpt><trkpt lat="49.06337923729932" lon="-0.9783759171082269"><ele>116.0</ele><time>2026-04-29T17:01:42Z</time></trkpt><trkpt lat="49.063354704768955" lon="-0.9784856499484192"><ele>116.0</ele><time>2026-04-29T17:01:43Z</time></trkpt><trkpt lat="49.06333031139412" lon="-0.9786354352951538"><ele>116.0</ele><time>2026-04-29T17:01:44Z</time></trkpt><trkpt lat="49.06330980549273" lon="-0.9787659688721966"><ele>115.4</ele><time>2026-04-29T17:01:45Z</time></trkpt><trkpt lat="49.063283328941125" lon="-0.9788955928853795"><ele>114.8</ele><time>2026-04-29T17:01:46Z</time></trkpt><trkpt lat="49.063254103721675" lon="-0.9790126931217765"><ele>114.20000000000002</ele><time>2026-04-29T17:01:47Z</time></trkpt><trkpt lat="49.06323809144026" lon="-0.979116525369003"><ele>113.60000000000001</ele><time>2026-04-29T17:01:48Z</time></trkpt><trkpt lat="49.06319983971173" lon="-0.979300012395593"><ele>113.0</ele><time>2026-04-29T17:01:50Z</time></trkpt><trkpt lat="49.06317538238615" lon="-0.979490147382108"><ele>111.80000000000001</ele><time>2026-04-29T17:01:52Z</time></trkpt><trkpt lat="49.06317147053688" lon="-0.9796555574512616"><ele>110.60000000000001</ele><time>2026-04-29T17:01:54Z</time></trkpt><trkpt lat="49.063156981522575" lon="-0.979757906280158"><ele>109.39999999999999</ele><time>2026-04-29T17:01:56Z</time></trkpt><trkpt lat="49.06307264287718" lon="-0.9797391367119247"><ele>108.19999999999999</ele><time>2026-04-29T17:01:58Z</time></trkpt><trkpt lat="49.06298057456164" lon="-0.9796390684030278"><ele>107.0</ele><time>2026-04-29T17:02:00Z</time></trkpt><trkpt lat="49.062868291998655" lon="-0.979544566339977"><ele>107.0</ele><time>2026-04-29T17:02:02Z</time></trkpt><trkpt lat="49.062781224264256" lon="-0.979474029490983"><ele>107.0</ele><time>2026-04-29T17:02:03Z</time></trkpt><trkpt lat="49.062679088800905" lon="-0.9793566826595009"><ele>107.0</ele><time>2026-04-29T17:02:04Z</time></trkpt><trkpt lat="49.062566438321845" lon="-0.979226665077288"><ele>107.0</ele><time>2026-04-29T17:02:05Z</time></trkpt><trkpt lat="49.062494491167726" lon="-0.9791102354209029"><ele>108.0</ele><time>2026-04-29T17:02:06Z</time></trkpt><trkpt lat="49.06241107284647" lon="-0.9789880576959858"><ele>108.99999999999999</ele><time>2026-04-29T17:02:07Z</time></trkpt><trkpt lat="49.06237403347034" lon="-0.9788580412057384"><ele>109.99999999999999</ele><time>2026-04-29T17:02:08Z</time></trkpt><trkpt lat="49.06230016027606" lon="-0.978731119130885"><ele>111.0</ele><time>2026-04-29T17:02:09Z</time></trkpt><trkpt lat="49.06222962698969" lon="-0.9786418805707863"><ele>112.0</ele><time>2026-04-29T17:02:10Z</time></trkpt><trkpt lat="49.062151424274816" lon="-0.978548491162795"><ele>112.0</ele><time>2026-04-29T17:02:11Z</time></trkpt><trkpt lat="49.06206504440126" lon="-0.9784651999451478"><ele>111.99999999999999</ele><time>2026-04-29T17:02:12Z</time></trkpt><trkpt lat="49.06196883560933" lon="-0.9783678991150878"><ele>111.99999999999999</ele><time>2026-04-29T17:02:12.999Z</time></trkpt><trkpt lat="49.061888526071634" lon="-0.9782990010388279"><ele>112.0</ele><time>2026-04-29T17:02:13.999Z</time></trkpt><trkpt lat="49.061826798659865" lon="-0.9781993833216532"><ele>112.0</ele><time>2026-04-29T17:02:14.999Z</time></trkpt><trkpt lat="49.061770548590054" lon="-0.9781079955646236"><ele>112.00000000000001</ele><time>2026-04-29T17:02:15.999Z</time></trkpt><trkpt lat="49.061694291406475" lon="-0.9780804188065451"><ele>112.0</ele><time>2026-04-29T17:02:16.999Z</time></trkpt><trkpt lat="49.06161002927042" lon="-0.9780287941764573"><ele>112.0</ele><time>2026-04-29T17:02:17.999Z</time></trkpt><trkpt lat="49.06153741135199" lon="-0.9779861529509078"><ele>112.0</ele><time>2026-04-29T17:02:18.999Z</time></trkpt><trkpt lat="49.061452828468184" lon="-0.9779327184494261"><ele>112.00000000000001</ele><time>2026-04-29T17:02:20Z</time></trkpt><trkpt lat="49.06137066349775" lon="-0.9778778009111716"><ele>112.0</ele><time>2026-04-29T17:02:21Z</time></trkpt><trkpt lat="49.06129037452433" lon="-0.9778213305439328"><ele>112.00000000000001</ele><time>2026-04-29T17:02:22Z</time></trkpt><trkpt lat="49.06121626263619" lon="-0.9777841251584064"><ele>112.0</ele><time>2026-04-29T17:02:23Z</time></trkpt><trkpt lat="49.061145808187895" lon="-0.9777492452473964"><ele>112.0</ele><time>2026-04-29T17:02:24Z</time></trkpt><trkpt lat="49.06107523430226" lon="-0.9777344429910069"><ele>112.0</ele><time>2026-04-29T17:02:25Z</time></trkpt><trkpt lat="49.060996718631756" lon="-0.9777207830747834"><ele>112.00000000000001</ele><time>2026-04-29T17:02:26Z</time></trkpt><trkpt lat="49.06091361062156" lon="-0.9777282085688141"><ele>112.0</ele><time>2026-04-29T17:02:27Z</time></trkpt><trkpt lat="49.06084345416103" lon="-0.9776857227531054"><ele>111.19999999999999</ele><time>2026-04-29T17:02:28Z</time></trkpt><trkpt lat="49.06077001034364" lon="-0.9776385984755814"><ele>110.39999999999999</ele><time>2026-04-29T17:02:29Z</time></trkpt><trkpt lat="49.060651319829304" lon="-0.9775646781144175"><ele>109.60000000000001</ele><time>2026-04-29T17:02:31Z</time></trkpt><trkpt lat="49.06058655707189" lon="-0.9775952153907806"><ele>108.80000000000001</ele><time>2026-04-29T17:02:32Z</time></trkpt><trkpt lat="49.060508903011524" lon="-0.9775162162992161"><ele>108.0</ele><time>2026-04-29T17:02:34Z</time></trkpt><trkpt lat="49.06040285592235" lon="-0.9774566083669105"><ele>108.0</ele><time>2026-04-29T17:02:36Z</time></trkpt><trkpt lat="49.06028575255149" lon="-0.9773824551418977"><ele>108.00000000000001</ele><time>2026-04-29T17:02:38Z</time></trkpt><trkpt lat="49.060177725620726" lon="-0.9773075670924318"><ele>108.00000000000001</ele><time>2026-04-29T17:02:40Z</time></trkpt><trkpt lat="49.06007512038791" lon="-0.9772525297560417"><ele>108.0</ele><time>2026-04-29T17:02:42Z</time></trkpt><trkpt lat="49.060007328256944" lon="-0.9772070535023755"><ele>108.0</ele><time>2026-04-29T17:02:45Z</time></trkpt><trkpt lat="49.059947796443616" lon="-0.9771373641124893"><ele>107.33333333333333</ele><time>2026-04-29T17:02:49Z</time></trkpt><trkpt lat="49.05986598948933" lon="-0.977086011646949"><ele>106.66666666666666</ele><time>2026-04-29T17:02:51Z</time></trkpt><trkpt lat="49.059783914189275" lon="-0.977021295958255"><ele>106.0</ele><time>2026-04-29T17:02:53Z</time></trkpt><trkpt lat="49.059689919737124" lon="-0.9769550572885948"><ele>105.33333333333333</ele><time>2026-04-29T17:02:55Z</time></trkpt><trkpt lat="49.059600551039146" lon="-0.976891602139073"><ele>104.66666666666666</ele><time>2026-04-29T17:02:57Z</time></trkpt><trkpt lat="49.05955591416232" lon="-0.9768219376563052"><ele>104.0</ele><time>2026-04-29T17:03:03Z</time></trkpt><trkpt lat="49.059561813969275" lon="-0.9767053022309324"><ele>104.0</ele><time>2026-04-29T17:03:05Z</time></trkpt><trkpt lat="49.0595859775814" lon="-0.9766037000219998"><ele>104.0</ele><time>2026-04-29T17:03:08Z</time></trkpt><trkpt lat="49.05945761096152" lon="-0.9765290030619653"><ele>104.0</ele><time>2026-04-29T17:03:15Z</time></trkpt><trkpt lat="49.059362827122875" lon="-0.9764832161964252"><ele>104.0</ele><time>2026-04-29T17:03:17Z</time></trkpt><trkpt lat="49.0592716945935" lon="-0.9765444163078415"><ele>104.0</ele><time>2026-04-29T17:03:18Z</time></trkpt><trkpt lat="49.05922277928155" lon="-0.9764784654915886"><ele>103.99999999999999</ele><time>2026-04-29T17:03:19Z</time></trkpt><trkpt lat="49.0591490693776" lon="-0.9763793831300214"><ele>104.0</ele><time>2026-04-29T17:03:21Z</time></trkpt><trkpt lat="49.05908249341991" lon="-0.9762712663824603"><ele>104.0</ele><time>2026-04-29T17:03:23Z</time></trkpt><trkpt lat="49.059009397836924" lon="-0.9762085398257693"><ele>104.0</ele><time>2026-04-29T17:03:24Z</time></trkpt><trkpt lat="49.058940530002324" lon="-0.9761397539971425"><ele>103.99999999999999</ele><time>2026-04-29T17:03:25Z</time></trkpt><trkpt lat="49.058890271733055" lon="-0.9760631869224216"><ele>104.0</ele><time>2026-04-29T17:03:26Z</time></trkpt><trkpt lat="49.058839185089354" lon="-0.9760068838716296"><ele>102.99999999999999</ele><time>2026-04-29T17:03:27Z</time></trkpt><trkpt lat="49.05877856561643" lon="-0.9759394759911568"><ele>102.0</ele><time>2026-04-29T17:03:28Z</time></trkpt><trkpt lat="49.05874314635895" lon="-0.9758476749162773"><ele>101.0</ele><time>2026-04-29T17:03:29Z</time></trkpt><trkpt lat="49.058722802649406" lon="-0.9757013969842552"><ele>100.0</ele><time>2026-04-29T17:03:31Z</time></trkpt><trkpt lat="49.058747400484066" lon="-0.975559960256556"><ele>98.99999999999999</ele><time>2026-04-29T17:03:33Z</time></trkpt><trkpt lat="49.05875852888202" lon="-0.9754557485728979"><ele>98.0</ele><time>2026-04-29T17:03:34Z</time></trkpt><trkpt lat="49.05878116285913" lon="-0.9753228666040383"><ele>97.83333333333333</ele><time>2026-04-29T17:03:35Z</time></trkpt><trkpt lat="49.0587897561209" lon="-0.9751962120346275"><ele>97.66666666666666</ele><time>2026-04-29T17:03:36Z</time></trkpt><trkpt lat="49.058792230387326" lon="-0.9750941150463152"><ele>97.5</ele><time>2026-04-29T17:03:37Z</time></trkpt><trkpt lat="49.05878750192022" lon="-0.9749895423352597"><ele>97.33333333333334</ele><time>2026-04-29T17:03:38Z</time></trkpt><trkpt lat="49.058781238907436" lon="-0.9748499814600469"><ele>97.16666666666667</ele><time>2026-04-29T17:03:40Z</time></trkpt><trkpt lat="49.05874151034789" lon="-0.9747658332732961"><ele>97.0</ele><time>2026-04-29T17:03:41Z</time></trkpt><trkpt lat="49.05866643133118" lon="-0.974755856635916"><ele>96.8</ele><time>2026-04-29T17:03:45Z</time></trkpt><trkpt lat="49.058593947976256" lon="-0.9747893684514723"><ele>96.6</ele><time>2026-04-29T17:03:47Z</time></trkpt><trkpt lat="49.05846471634374" lon="-0.9748781254179721"><ele>96.39999999999999</ele><time>2026-04-29T17:03:49Z</time></trkpt><trkpt lat="49.05836097553395" lon="-0.9749363918769652"><ele>96.19999999999999</ele><time>2026-04-29T17:03:50Z</time></trkpt><trkpt lat="49.058272438216484" lon="-0.9749975338230625"><ele>96.0</ele><time>2026-04-29T17:03:51Z</time></trkpt><trkpt lat="49.05818792495545" lon="-0.9750559965445307"><ele>96.0</ele><time>2026-04-29T17:03:52Z</time></trkpt><trkpt lat="49.058092527775194" lon="-0.9750972572304561"><ele>96.0</ele><time>2026-04-29T17:03:53Z</time></trkpt><trkpt lat="49.05798467725732" lon="-0.9751601684374922"><ele>96.0</ele><time>2026-04-29T17:03:54Z</time></trkpt><trkpt lat="49.05789694363846" lon="-0.9752059020447311"><ele>96.0</ele><time>2026-04-29T17:03:55Z</time></trkpt><trkpt lat="49.05780829621961" lon="-0.9752667692381527"><ele>96.0</ele><time>2026-04-29T17:03:56Z</time></trkpt><trkpt lat="49.057705811020675" lon="-0.9753282793858241"><ele>96.0</ele><time>2026-04-29T17:03:56.999Z</time></trkpt><trkpt lat="49.05759677211864" lon="-0.9753731722434456"><ele>96.0</ele><time>2026-04-29T17:03:57.999Z</time></trkpt><trkpt lat="49.05749827076765" lon="-0.9754262904424049"><ele>96.0</ele><time>2026-04-29T17:03:58.999Z</time></trkpt><trkpt lat="49.05739898936698" lon="-0.9754848226696679"><ele>96.0</ele><time>2026-04-29T17:03:59.999Z</time></trkpt><trkpt lat="49.057284292331055" lon="-0.9755477960286347"><ele>96.0</ele><time>2026-04-29T17:04:00.999Z</time></trkpt><trkpt lat="49.05716321612776" lon="-0.9756192384044324"><ele>95.8</ele><time>2026-04-29T17:04:01.999Z</time></trkpt><trkpt lat="49.057085235780704" lon="-0.975657646580565"><ele>95.6</ele><time>2026-04-29T17:04:02.999Z</time></trkpt><trkpt lat="49.05699805683853" lon="-0.97571034906958"><ele>95.4</ele><time>2026-04-29T17:04:03.999Z</time></trkpt><trkpt lat="49.05692622527612" lon="-0.9757366635364414"><ele>95.2</ele><time>2026-04-29T17:04:04.999Z</time></trkpt><trkpt lat="49.056850801749796" lon="-0.9758396313453588"><ele>95.0</ele><time>2026-04-29T17:04:06.999Z</time></trkpt><trkpt lat="49.05672040910204" lon="-0.9759467136621762"><ele>94.4</ele><time>2026-04-29T17:04:08.999Z</time></trkpt><trkpt lat="49.0566543258665" lon="-0.9760113345335901"><ele>93.8</ele><time>2026-04-29T17:04:09.999Z</time></trkpt><trkpt lat="49.056570966014505" lon="-0.9761580411148556"><ele>93.19999999999999</ele><time>2026-04-29T17:04:11.999Z</time></trkpt><trkpt lat="49.056472271126495" lon="-0.9761991893215165"><ele>92.6</ele><time>2026-04-29T17:04:12.999Z</time></trkpt><trkpt lat="49.05638564018984" lon="-0.9762504179839907"><ele>92.0</ele><time>2026-04-29T17:04:13.999Z</time></trkpt><trkpt lat="49.05628864187253" lon="-0.9763101628597886"><ele>91.6</ele><time>2026-04-29T17:04:14.999Z</time></trkpt><trkpt lat="49.056185118683736" lon="-0.9763825814745858"><ele>91.19999999999999</ele><time>2026-04-29T17:04:15.999Z</time></trkpt><trkpt lat="49.05609734644672" lon="-0.9764407336835361"><ele>90.8</ele><time>2026-04-29T17:04:16.999Z</time></trkpt><trkpt lat="49.05600197169991" lon="-0.9765094664526467"><ele>90.4</ele><time>2026-04-29T17:04:17.999Z</time></trkpt><trkpt lat="49.05592728333936" lon="-0.9765398681029013"><ele>90.0</ele><time>2026-04-29T17:04:18.999Z</time></trkpt><trkpt lat="49.05585662090839" lon="-0.9765355854036708"><ele>89.2</ele><time>2026-04-29T17:04:19.999Z</time></trkpt><trkpt lat="49.05574772797394" lon="-0.9765657899494053"><ele>88.4</ele><time>2026-04-29T17:04:20.999Z</time></trkpt><trkpt lat="49.05565021709524" lon="-0.976579539213152"><ele>87.6</ele><time>2026-04-29T17:04:21.999Z</time></trkpt><trkpt lat="49.05553333258476" lon="-0.9766285173171073"><ele>86.8</ele><time>2026-04-29T17:04:22.999Z</time></trkpt><trkpt lat="49.05541713779012" lon="-0.9766635805449276"><ele>86.0</ele><time>2026-04-29T17:04:23.999Z</time></trkpt><trkpt lat="49.055315276774344" lon="-0.9767032329105128"><ele>85.0</ele><time>2026-04-29T17:04:24.999Z</time></trkpt><trkpt lat="49.05521814722614" lon="-0.9767464453180535"><ele>84.0</ele><time>2026-04-29T17:04:26Z</time></trkpt><trkpt lat="49.05512108562608" lon="-0.9768096912184163"><ele>83.0</ele><time>2026-04-29T17:04:27Z</time></trkpt><trkpt lat="49.05501771626689" lon="-0.976850272612071"><ele>82.0</ele><time>2026-04-29T17:04:28Z</time></trkpt><trkpt lat="49.05491524335817" lon="-0.9769249838089861"><ele>81.0</ele><time>2026-04-29T17:04:29Z</time></trkpt><trkpt lat="49.05482117934922" lon="-0.9769609478857629"><ele>80.0</ele><time>2026-04-29T17:04:30Z</time></trkpt><trkpt lat="49.05472657889061" lon="-0.9770064968533921"><ele>79.0</ele><time>2026-04-29T17:04:31Z</time></trkpt><trkpt lat="49.05459079525541" lon="-0.9770716687607365"><ele>78.0</ele><time>2026-04-29T17:04:33Z</time></trkpt><trkpt lat="49.054506598849905" lon="-0.9771239173404845"><ele>77.0</ele><time>2026-04-29T17:04:34Z</time></trkpt><trkpt lat="49.05441854886193" lon="-0.9772106440201009"><ele>76.0</ele><time>2026-04-29T17:04:35Z</time></trkpt><trkpt lat="49.05433164794986" lon="-0.9772578387671031"><ele>76.0</ele><time>2026-04-29T17:04:36Z</time></trkpt><trkpt lat="49.05425674480222" lon="-0.9773074493246715"><ele>76.0</ele><time>2026-04-29T17:04:37Z</time></trkpt><trkpt lat="49.054139057150536" lon="-0.9774226206766125"><ele>76.0</ele><time>2026-04-29T17:04:39Z</time></trkpt><trkpt lat="49.054076446832" lon="-0.9774342635411605"><ele>76.0</ele><time>2026-04-29T17:04:40Z</time></trkpt><trkpt lat="49.053989025208224" lon="-0.9773584358372596"><ele>76.0</ele><time>2026-04-29T17:04:42Z</time></trkpt><trkpt lat="49.053933174861164" lon="-0.9773017126741492"><ele>76.39999999999999</ele><time>2026-04-29T17:04:43Z</time></trkpt><trkpt lat="49.053825600113285" lon="-0.9771780684464846"><ele>76.8</ele><time>2026-04-29T17:04:45Z</time></trkpt><trkpt lat="49.053748260030375" lon="-0.9770326013622627"><ele>77.19999999999999</ele><time>2026-04-29T17:04:47Z</time></trkpt><trkpt lat="49.05371929692599" lon="-0.976934516232806"><ele>77.6</ele><time>2026-04-29T17:04:48Z</time></trkpt><trkpt lat="49.05369070759723" lon="-0.9768313394206943"><ele>78.0</ele><time>2026-04-29T17:04:49Z</time></trkpt><trkpt lat="49.053672931571235" lon="-0.9767207329017084"><ele>78.16666666666667</ele><time>2026-04-29T17:04:50Z</time></trkpt><trkpt lat="49.05364610636998" lon="-0.9766185815355227"><ele>78.33333333333333</ele><time>2026-04-29T17:04:51Z</time></trkpt><trkpt lat="49.05362778157853" lon="-0.9765014012941761"><ele>78.5</ele><time>2026-04-29T17:04:53Z</time></trkpt><trkpt lat="49.05353820247718" lon="-0.9764953177264298"><ele>78.66666666666666</ele><time>2026-04-29T17:06:04.999Z</time></trkpt><trkpt lat="49.05346987943193" lon="-0.9764914083205217"><ele>78.83333333333333</ele><time>2026-04-29T17:06:07.999Z</time></trkpt><trkpt lat="49.053412841636714" lon="-0.9764440880579689"><ele>79.0</ele><time>2026-04-29T17:06:09.999Z</time></trkpt><trkpt lat="49.05332965374146" lon="-0.9764354710229476"><ele>80.0</ele><time>2026-04-29T17:06:11.999Z</time></trkpt><trkpt lat="49.05325147213918" lon="-0.9764612325147445"><ele>81.0</ele><time>2026-04-29T17:06:12.999Z</time></trkpt><trkpt lat="49.05318240259407" lon="-0.97646448261592"><ele>82.0</ele><time>2026-04-29T17:06:14.999Z</time></trkpt><trkpt lat="49.05310409300958" lon="-0.9764729188737701"><ele>83.0</ele><time>2026-04-29T17:06:17.999Z</time></trkpt><trkpt lat="49.05305010617203" lon="-0.9765261837530402"><ele>84.0</ele><time>2026-04-29T17:06:20.999Z</time></trkpt><trkpt lat="49.05298854654353" lon="-0.9765890315997928"><ele>85.0</ele><time>2026-04-29T17:06:22.999Z</time></trkpt><trkpt lat="49.05291291724454" lon="-0.9766455382493805"><ele>85.5</ele><time>2026-04-29T17:06:25.999Z</time></trkpt><trkpt lat="49.05286650547617" lon="-0.9767330984900165"><ele>86.0</ele><time>2026-04-29T17:06:27.999Z</time></trkpt><trkpt lat="49.05279466132686" lon="-0.9768081737487627"><ele>86.5</ele><time>2026-04-29T17:06:30.999Z</time></trkpt><trkpt lat="49.05273951499692" lon="-0.9768562738928807"><ele>87.0</ele><time>2026-04-29T17:06:33Z</time></trkpt><trkpt lat="49.05268584516237" lon="-0.9769682662840842"><ele>87.5</ele><time>2026-04-29T17:06:38Z</time></trkpt><trkpt lat="49.05264042223368" lon="-0.9770605497465388"><ele>88.0</ele><time>2026-04-29T17:06:40Z</time></trkpt><trkpt lat="49.05261102073871" lon="-0.9771576835407217"><ele>88.0</ele><time>2026-04-29T17:06:42Z</time></trkpt><trkpt lat="49.052546847514954" lon="-0.9772296135922777"><ele>88.0</ele><time>2026-04-29T17:06:44Z</time></trkpt><trkpt lat="49.05248671453912" lon="-0.9772963656137335"><ele>88.0</ele><time>2026-04-29T17:06:47Z</time></trkpt><trkpt lat="49.05242797869989" lon="-0.9773576017651778"><ele>88.0</ele><time>2026-04-29T17:06:52Z</time></trkpt><trkpt lat="49.05237723231128" lon="-0.9774202907066711"><ele>88.0</ele><time>2026-04-29T17:06:54Z</time></trkpt><trkpt lat="49.05229866185014" lon="-0.9774886502709662"><ele>88.0</ele><time>2026-04-29T17:06:56Z</time></trkpt><trkpt lat="49.05222247471806" lon="-0.9775870298735524"><ele>89.5</ele><time>2026-04-29T17:06:58Z</time></trkpt><trkpt lat="49.052161384200645" lon="-0.9776447647051358"><ele>91.0</ele><time>2026-04-29T17:07:00Z</time></trkpt><trkpt lat="49.052095920038745" lon="-0.9777335004759493"><ele>92.5</ele><time>2026-04-29T17:07:03Z</time></trkpt><trkpt lat="49.05203357194509" lon="-0.9777830791066028"><ele>94.0</ele><time>2026-04-29T17:07:05Z</time></trkpt><trkpt lat="49.0519360535484" lon="-0.9778147296779048"><ele>95.50000000000001</ele><time>2026-04-29T17:07:07Z</time></trkpt><trkpt lat="49.05184391775425" lon="-0.9778506037271824"><ele>97.0</ele><time>2026-04-29T17:07:09Z</time></trkpt><trkpt lat="49.05174085386929" lon="-0.977950342742438"><ele>97.00000000000001</ele><time>2026-04-29T17:07:11Z</time></trkpt><trkpt lat="49.05167656263289" lon="-0.9779685722136067"><ele>97.0</ele><time>2026-04-29T17:07:12Z</time></trkpt><trkpt lat="49.05159560899129" lon="-0.9780174034714912"><ele>97.0</ele><time>2026-04-29T17:07:14Z</time></trkpt><trkpt lat="49.0515298251771" lon="-0.9780702788277258"><ele>97.0</ele><time>2026-04-29T17:07:17Z</time></trkpt><trkpt lat="49.05146036592819" lon="-0.9781213499874297"><ele>97.00000000000001</ele><time>2026-04-29T17:07:19Z</time></trkpt><trkpt lat="49.05138704680887" lon="-0.9781554251491625"><ele>97.0</ele><time>2026-04-29T17:07:21Z</time></trkpt><trkpt lat="49.05130937935573" lon="-0.9781674021028788"><ele>98.0</ele><time>2026-04-29T17:07:23Z</time></trkpt><trkpt lat="49.0512098293892" lon="-0.9782174339098548"><ele>99.0</ele><time>2026-04-29T17:07:25Z</time></trkpt><trkpt lat="49.051124441824605" lon="-0.9782628097677459"><ele>100.0</ele><time>2026-04-29T17:07:27Z</time></trkpt><trkpt lat="49.05102571963285" lon="-0.9783099096601883"><ele>101.0</ele><time>2026-04-29T17:07:30Z</time></trkpt><trkpt lat="49.05090533303" lon="-0.9783880525651286"><ele>102.0</ele><time>2026-04-29T17:07:32Z</time></trkpt><trkpt lat="49.05083584717511" lon="-0.9784413922272426"><ele>103.0</ele><time>2026-04-29T17:07:33Z</time></trkpt><trkpt lat="49.05077652379028" lon="-0.9784975540684049"><ele>104.0</ele><time>2026-04-29T17:07:34Z</time></trkpt><trkpt lat="49.050718468153015" lon="-0.9785463823691489"><ele>105.0</ele><time>2026-04-29T17:07:35Z</time></trkpt><trkpt lat="49.05064784892077" lon="-0.9786037663408178"><ele>106.0</ele><time>2026-04-29T17:07:36Z</time></trkpt><trkpt lat="49.050593462691516" lon="-0.9786725306251433"><ele>107.0</ele><time>2026-04-29T17:07:37Z</time></trkpt><trkpt lat="49.05051446268067" lon="-0.9787834451721532"><ele>108.0</ele><time>2026-04-29T17:07:39Z</time></trkpt><trkpt lat="49.05045184861658" lon="-0.9788542502218609"><ele>108.0</ele><time>2026-04-29T17:07:41Z</time></trkpt><trkpt lat="49.050393903255085" lon="-0.9789297716108153"><ele>108.00000000000001</ele><time>2026-04-29T17:07:43Z</time></trkpt><trkpt lat="49.05029410791451" lon="-0.9789769510513541"><ele>108.00000000000001</ele><time>2026-04-29T17:07:45Z</time></trkpt><trkpt lat="49.05016674692883" lon="-0.9790536911388751"><ele>108.0</ele><time>2026-04-29T17:07:47Z</time></trkpt><trkpt lat="49.0500994069812" lon="-0.9790746600110223"><ele>108.0</ele><time>2026-04-29T17:07:48Z</time></trkpt><trkpt lat="49.05003585217034" lon="-0.9790999782964617"><ele>108.16666666666667</ele><time>2026-04-29T17:07:49Z</time></trkpt><trkpt lat="49.04994906220066" lon="-0.9791213931931577"><ele>108.33333333333334</ele><time>2026-04-29T17:07:51Z</time></trkpt><trkpt lat="49.04987843471334" lon="-0.9791548586579276"><ele>108.5</ele><time>2026-04-29T17:07:53Z</time></trkpt><trkpt lat="49.0497753508276" lon="-0.9791881336442766"><ele>108.66666666666667</ele><time>2026-04-29T17:07:55Z</time></trkpt><trkpt lat="49.04968002547924" lon="-0.9792125787336814"><ele>108.83333333333334</ele><time>2026-04-29T17:07:57Z</time></trkpt><trkpt lat="49.0496077842902" lon="-0.9792318394073961"><ele>109.0</ele><time>2026-04-29T17:07:59Z</time></trkpt><trkpt lat="49.04953855397161" lon="-0.9792316751409098"><ele>109.00000000000001</ele><time>2026-04-29T17:08:22.999Z</time></trkpt><trkpt lat="49.04943348008822" lon="-0.9792702244188541"><ele>109.0</ele><time>2026-04-29T17:08:24.999Z</time></trkpt><trkpt lat="49.0493650971223" lon="-0.9793131982206276"><ele>109.0</ele><time>2026-04-29T17:08:25.999Z</time></trkpt><trkpt lat="49.0493018792142" lon="-0.979335692474449"><ele>109.0</ele><time>2026-04-29T17:08:26.999Z</time></trkpt><trkpt lat="49.0492123263538" lon="-0.9793675572139025"><ele>109.00000000000001</ele><time>2026-04-29T17:08:27.999Z</time></trkpt><trkpt lat="49.04914905816501" lon="-0.9793774729706654"><ele>109.0</ele><time>2026-04-29T17:08:28.999Z</time></trkpt><trkpt lat="49.04906671987289" lon="-0.9794201171600303"><ele>110.2</ele><time>2026-04-29T17:08:29.999Z</time></trkpt><trkpt lat="49.048978514232374" lon="-0.9794731221443166"><ele>111.4</ele><time>2026-04-29T17:08:30.999Z</time></trkpt><trkpt lat="49.048891666072045" lon="-0.979524970177537"><ele>112.6</ele><time>2026-04-29T17:08:31.999Z</time></trkpt><trkpt lat="49.048800411266996" lon="-0.9796081079112355"><ele>113.8</ele><time>2026-04-29T17:08:32.999Z</time></trkpt><trkpt lat="49.04871684946643" lon="-0.9796651888833205"><ele>115.0</ele><time>2026-04-29T17:08:33.999Z</time></trkpt><trkpt lat="49.04862294987786" lon="-0.9797208448212734"><ele>115.0</ele><time>2026-04-29T17:08:34.999Z</time></trkpt><trkpt lat="49.048537451254155" lon="-0.9797920348518244"><ele>115.0</ele><time>2026-04-29T17:08:35.999Z</time></trkpt><trkpt lat="49.048446988612326" lon="-0.9798673505202509"><ele>115.0</ele><time>2026-04-29T17:08:36.999Z</time></trkpt><trkpt lat="49.04835450502146" lon="-0.9799468779879867"><ele>115.0</ele><time>2026-04-29T17:08:38Z</time></trkpt><trkpt lat="49.04825871233376" lon="-0.9800310252452582"><ele>115.0</ele><time>2026-04-29T17:08:39Z</time></trkpt><trkpt lat="49.048157739358146" lon="-0.9801104466391732"><ele>114.0</ele><time>2026-04-29T17:08:40Z</time></trkpt><trkpt lat="49.04805860929603" lon="-0.9801910010290698"><ele>113.0</ele><time>2026-04-29T17:08:41Z</time></trkpt><trkpt lat="49.047956055258595" lon="-0.9802727161881679"><ele>112.0</ele><time>2026-04-29T17:08:42Z</time></trkpt><trkpt lat="49.04785513947607" lon="-0.980355032119972"><ele>111.0</ele><time>2026-04-29T17:08:43Z</time></trkpt><trkpt lat="49.047737128231944" lon="-0.9803897831329079"><ele>111.0</ele><time>2026-04-29T17:08:44Z</time></trkpt><trkpt lat="49.04761323155965" lon="-0.9804146067223805"><ele>111.0</ele><time>2026-04-29T17:08:45Z</time></trkpt><trkpt lat="49.04749443835021" lon="-0.9804235096996505"><ele>111.0</ele><time>2026-04-29T17:08:46Z</time></trkpt><trkpt lat="49.04738617439043" lon="-0.9804395855793318"><ele>111.0</ele><time>2026-04-29T17:08:47Z</time></trkpt><trkpt lat="49.04728834477836" lon="-0.9804518426042473"><ele>111.16666666666667</ele><time>2026-04-29T17:08:48Z</time></trkpt><trkpt lat="49.04720698910744" lon="-0.9804588736294865"><ele>111.33333333333334</ele><time>2026-04-29T17:08:49Z</time></trkpt><trkpt lat="49.047130842237294" lon="-0.9804812174305885"><ele>111.5</ele><time>2026-04-29T17:08:50Z</time></trkpt><trkpt lat="49.0470616891742" lon="-0.9805384255220713"><ele>111.66666666666667</ele><time>2026-04-29T17:08:51Z</time></trkpt><trkpt lat="49.047000328422456" lon="-0.9805715778410956"><ele>111.83333333333334</ele><time>2026-04-29T17:08:52Z</time></trkpt><trkpt lat="49.046930687685915" lon="-0.980609203740607"><ele>112.0</ele><time>2026-04-29T17:08:53Z</time></trkpt><trkpt lat="49.04681732312256" lon="-0.9805339259778163"><ele>112.0</ele><time>2026-04-29T17:08:54Z</time></trkpt><trkpt lat="49.046713450867465" lon="-0.9805014788827876"><ele>111.99999999999999</ele><time>2026-04-29T17:08:55Z</time></trkpt><trkpt lat="49.04661122190207" lon="-0.980495374729697"><ele>111.99999999999999</ele><time>2026-04-29T17:08:56Z</time></trkpt><trkpt lat="49.04648838116362" lon="-0.9804851443596199"><ele>112.0</ele><time>2026-04-29T17:08:57Z</time></trkpt><trkpt lat="49.046390371833425" lon="-0.9804539093940705"><ele>112.0</ele><time>2026-04-29T17:08:58Z</time></trkpt><trkpt lat="49.046300011766704" lon="-0.9804618159379014"><ele>112.00000000000001</ele><time>2026-04-29T17:08:59Z</time></trkpt><trkpt lat="49.04621054839493" lon="-0.9804666606776898"><ele>112.0</ele><time>2026-04-29T17:09:00Z</time></trkpt><trkpt lat="49.046136841140914" lon="-0.9804681438632015"><ele>112.0</ele><time>2026-04-29T17:09:01Z</time></trkpt><trkpt lat="49.046071848841585" lon="-0.9804630454118219"><ele>112.0</ele><time>2026-04-29T17:09:02Z</time></trkpt><trkpt lat="49.04599543304932" lon="-0.9804594153449103"><ele>112.00000000000001</ele><time>2026-04-29T17:09:04Z</time></trkpt><trkpt lat="49.04591858869536" lon="-0.9804353921635454"><ele>112.0</ele><time>2026-04-29T17:09:07Z</time></trkpt><trkpt lat="49.0458366044538" lon="-0.9803979479766884"><ele>111.0</ele><time>2026-04-29T17:09:08Z</time></trkpt><trkpt lat="49.04574011773431" lon="-0.9804216161507283"><ele>109.99999999999999</ele><time>2026-04-29T17:09:09Z</time></trkpt><trkpt lat="49.045644829497185" lon="-0.9804191981289373"><ele>108.99999999999999</ele><time>2026-04-29T17:09:10Z</time></trkpt><trkpt lat="49.045537137693536" lon="-0.9803945828198489"><ele>108.0</ele><time>2026-04-29T17:09:11Z</time></trkpt><trkpt lat="49.04543122496725" lon="-0.9803846816077424"><ele>107.0</ele><time>2026-04-29T17:09:12Z</time></trkpt><trkpt lat="49.045334269183" lon="-0.9803761118175985"><ele>106.99999999999999</ele><time>2026-04-29T17:09:13Z</time></trkpt><trkpt lat="49.0452308433542" lon="-0.9803374746876908"><ele>107.0</ele><time>2026-04-29T17:09:14Z</time></trkpt><trkpt lat="49.0451514644616" lon="-0.9803392474119758"><ele>107.0</ele><time>2026-04-29T17:09:15Z</time></trkpt><trkpt lat="49.04507497737845" lon="-0.9803221763491754"><ele>107.0</ele><time>2026-04-29T17:09:16Z</time></trkpt><trkpt lat="49.04500280272887" lon="-0.9803113078443293"><ele>106.99999999999999</ele><time>2026-04-29T17:09:17Z</time></trkpt><trkpt lat="49.045070058986106" lon="-0.980321078629371"><ele>107.0</ele><time>2026-04-29T17:15:51Z</time></trkpt><trkpt lat="49.04514380651651" lon="-0.9803375383255039"><ele>107.0</ele><time>2026-04-29T17:15:52Z</time></trkpt><trkpt lat="49.0452365506899" lon="-0.9803582378013271"><ele>106.99999999999999</ele><time>2026-04-29T17:15:53Z</time></trkpt><trkpt lat="49.045345069054115" lon="-0.9803863545008217"><ele>106.99999999999999</ele><time>2026-04-29T17:15:54Z</time></trkpt><trkpt lat="49.04542210705015" lon="-0.9803783246278113"><ele>107.0</ele><time>2026-04-29T17:15:55Z</time></trkpt><trkpt lat="49.04550499044849" lon="-0.9804142079009479"><ele>107.0</ele><time>2026-04-29T17:15:56Z</time></trkpt><trkpt lat="49.04559709237966" lon="-0.9804212245031042"><ele>106.99999999999999</ele><time>2026-04-29T17:15:57Z</time></trkpt><trkpt lat="49.04567980208824" lon="-0.9804225868476308"><ele>107.0</ele><time>2026-04-29T17:15:58Z</time></trkpt><trkpt lat="49.04575181967573" lon="-0.9804274905017863"><ele>107.0</ele><time>2026-04-29T17:15:59Z</time></trkpt><trkpt lat="49.04581482137099" lon="-0.9804179738067162"><ele>107.0</ele><time>2026-04-29T17:16:00Z</time></trkpt><trkpt lat="49.04589512006787" lon="-0.9804255471151269"><ele>106.99999999999999</ele><time>2026-04-29T17:16:02Z</time></trkpt><trkpt lat="49.04594167390145" lon="-0.9802173556652671"><ele>107.0</ele><time>2026-04-29T17:16:12Z</time></trkpt><trkpt lat="49.04594445912193" lon="-0.9800965153674213"><ele>108.39999999999999</ele><time>2026-04-29T17:16:13Z</time></trkpt><trkpt lat="49.045959571380294" lon="-0.9799668599461179"><ele>109.79999999999998</ele><time>2026-04-29T17:16:14Z</time></trkpt><trkpt lat="49.04597685460377" lon="-0.9798099763048738"><ele>111.2</ele><time>2026-04-29T17:16:15Z</time></trkpt><trkpt lat="49.0460014700513" lon="-0.9796292614157405"><ele>112.6</ele><time>2026-04-29T17:16:16Z</time></trkpt><trkpt lat="49.04603110417696" lon="-0.979439902389549"><ele>114.0</ele><time>2026-04-29T17:16:17Z</time></trkpt><trkpt lat="49.04607163711461" lon="-0.9792493579151867"><ele>115.33333333333334</ele><time>2026-04-29T17:16:18Z</time></trkpt><trkpt lat="49.04611644457445" lon="-0.9790637774276725"><ele>116.66666666666667</ele><time>2026-04-29T17:16:19Z</time></trkpt><trkpt lat="49.046165893359735" lon="-0.9788646581005935"><ele>118.0</ele><time>2026-04-29T17:16:20Z</time></trkpt><trkpt lat="49.04621141278307" lon="-0.9785817467059323"><ele>118.0</ele><time>2026-04-29T17:16:21Z</time></trkpt><trkpt lat="49.04628649354651" lon="-0.9784098307707687"><ele>118.0</ele><time>2026-04-29T17:16:21.999Z</time></trkpt><trkpt lat="49.04637255804892" lon="-0.978302604226464"><ele>118.0</ele><time>2026-04-29T17:16:22.999Z</time></trkpt><trkpt lat="49.04646392676437" lon="-0.9781778061084927"><ele>118.0</ele><time>2026-04-29T17:16:23.999Z</time></trkpt><trkpt lat="49.04654101531123" lon="-0.9780228033806585"><ele>119.0</ele><time>2026-04-29T17:16:24.999Z</time></trkpt><trkpt lat="49.04663416637944" lon="-0.9778456912033614"><ele>120.0</ele><time>2026-04-29T17:16:25.999Z</time></trkpt><trkpt lat="49.046744055913614" lon="-0.977664453322422"><ele>121.0</ele><time>2026-04-29T17:16:26.999Z</time></trkpt><trkpt lat="49.04683631757726" lon="-0.9774766080042355"><ele>121.66666666666667</ele><time>2026-04-29T17:16:27.999Z</time></trkpt><trkpt lat="49.046923782792476" lon="-0.9772849472574234"><ele>122.33333333333334</ele><time>2026-04-29T17:16:28.999Z</time></trkpt><trkpt lat="49.046991673212084" lon="-0.9770658230926929"><ele>123.0</ele><time>2026-04-29T17:16:29.999Z</time></trkpt><trkpt lat="49.0470855772168" lon="-0.9768516990167564"><ele>124.0</ele><time>2026-04-29T17:16:30.999Z</time></trkpt><trkpt lat="49.04719845594257" lon="-0.9766380510684247"><ele>125.0</ele><time>2026-04-29T17:16:31.999Z</time></trkpt><trkpt lat="49.04731340927951" lon="-0.9765548435367315"><ele>126.0</ele><time>2026-04-29T17:16:32.999Z</time></trkpt><trkpt lat="49.0474125339237" lon="-0.976366517998323"><ele>125.66666666666666</ele><time>2026-04-29T17:16:33.999Z</time></trkpt><trkpt lat="49.047511548414874" lon="-0.9761822314034093"><ele>125.33333333333333</ele><time>2026-04-29T17:16:34.999Z</time></trkpt><trkpt lat="49.04761604078517" lon="-0.9759866711198034"><ele>125.0</ele><time>2026-04-29T17:16:35.999Z</time></trkpt><trkpt lat="49.04772514983518" lon="-0.9757513184446481"><ele>125.66666666666666</ele><time>2026-04-29T17:16:36.999Z</time></trkpt><trkpt lat="49.04782001540771" lon="-0.9755737944097795"><ele>126.33333333333334</ele><time>2026-04-29T17:16:37.999Z</time></trkpt><trkpt lat="49.047904619182134" lon="-0.9753851806733347"><ele>127.0</ele><time>2026-04-29T17:16:38.999Z</time></trkpt><trkpt lat="49.04798289589755" lon="-0.9751882072100387"><ele>127.0</ele><time>2026-04-29T17:16:39.999Z</time></trkpt><trkpt lat="49.04805186035748" lon="-0.9749769444617989"><ele>127.0</ele><time>2026-04-29T17:16:40.999Z</time></trkpt><trkpt lat="49.048101805071106" lon="-0.9747488873168956"><ele>127.0</ele><time>2026-04-29T17:16:41.999Z</time></trkpt><trkpt lat="49.04814733125024" lon="-0.9745166188737353"><ele>127.0</ele><time>2026-04-29T17:16:42.999Z</time></trkpt><trkpt lat="49.048184575183875" lon="-0.9742750509726033"><ele>127.0</ele><time>2026-04-29T17:16:43.999Z</time></trkpt><trkpt lat="49.0481927963449" lon="-0.974029135190653"><ele>127.0</ele><time>2026-04-29T17:16:44.999Z</time></trkpt><trkpt lat="49.04820520760084" lon="-0.9737905369518226"><ele>127.33333333333334</ele><time>2026-04-29T17:16:45.999Z</time></trkpt><trkpt lat="49.04820556523156" lon="-0.9735581007061731"><ele>127.66666666666666</ele><time>2026-04-29T17:16:46.999Z</time></trkpt><trkpt lat="49.04819672994547" lon="-0.9733170573638557"><ele>128.0</ele><time>2026-04-29T17:16:47.999Z</time></trkpt><trkpt lat="49.04817951164874" lon="-0.973080617079166"><ele>127.33333333333333</ele><time>2026-04-29T17:16:48.999Z</time></trkpt><trkpt lat="49.04817074549492" lon="-0.9728339352102346"><ele>126.66666666666666</ele><time>2026-04-29T17:16:49.999Z</time></trkpt><trkpt lat="49.048144929555" lon="-0.9725854912162022"><ele>126.0</ele><time>2026-04-29T17:16:50.999Z</time></trkpt><trkpt lat="49.04812055968463" lon="-0.9723337353594539"><ele>125.33333333333334</ele><time>2026-04-29T17:16:51.999Z</time></trkpt><trkpt lat="49.04809782667893" lon="-0.9720713285803289"><ele>124.66666666666667</ele><time>2026-04-29T17:16:52.999Z</time></trkpt><trkpt lat="49.04807511186484" lon="-0.9718103368046717"><ele>124.0</ele><time>2026-04-29T17:16:53.999Z</time></trkpt><trkpt lat="49.04804762126924" lon="-0.9715517345753981"><ele>124.0</ele><time>2026-04-29T17:16:54.999Z</time></trkpt><trkpt lat="49.048027222983634" lon="-0.9712988302288722"><ele>124.0</ele><time>2026-04-29T17:16:55.999Z</time></trkpt><trkpt lat="49.048005252912745" lon="-0.9710340843094755"><ele>124.0</ele><time>2026-04-29T17:16:56.999Z</time></trkpt><trkpt lat="49.04798815133181" lon="-0.9707617830947979"><ele>123.66666666666667</ele><time>2026-04-29T17:16:57.999Z</time></trkpt><trkpt lat="49.0479707651344" lon="-0.9704922736332855"><ele>123.33333333333334</ele><time>2026-04-29T17:16:58.999Z</time></trkpt><trkpt lat="49.04794767308428" lon="-0.9702308576559868"><ele>123.0</ele><time>2026-04-29T17:16:59.999Z</time></trkpt><trkpt lat="49.04792392284651" lon="-0.9699908752784524"><ele>121.66666666666666</ele><time>2026-04-29T17:17:00.999Z</time></trkpt><trkpt lat="49.04790015673939" lon="-0.9696898558718546"><ele>120.33333333333333</ele><time>2026-04-29T17:17:01.999Z</time></trkpt><trkpt lat="49.04788318757521" lon="-0.9694130359677987"><ele>119.0</ele><time>2026-04-29T17:17:02.999Z</time></trkpt><trkpt lat="49.04787059963659" lon="-0.9691154555330814"><ele>118.66666666666666</ele><time>2026-04-29T17:17:03.999Z</time></trkpt><trkpt lat="49.04783977822983" lon="-0.9688513978847613"><ele>118.33333333333334</ele><time>2026-04-29T17:17:04.999Z</time></trkpt><trkpt lat="49.04781829858676" lon="-0.96857491610663"><ele>118.0</ele><time>2026-04-29T17:17:05.999Z</time></trkpt><trkpt lat="49.047793419124666" lon="-0.9682918313150434"><ele>118.0</ele><time>2026-04-29T17:17:06.999Z</time></trkpt><trkpt lat="49.04777169666293" lon="-0.9680116399807874"><ele>118.0</ele><time>2026-04-29T17:17:07.999Z</time></trkpt><trkpt lat="49.04775372929203" lon="-0.9677295238684538"><ele>118.0</ele><time>2026-04-29T17:17:08.999Z</time></trkpt><trkpt lat="49.047728019506025" lon="-0.9674518724164424"><ele>118.0</ele><time>2026-04-29T17:17:09.999Z</time></trkpt><trkpt lat="49.04770516921484" lon="-0.9671812794113706"><ele>118.0</ele><time>2026-04-29T17:17:10.999Z</time></trkpt><trkpt lat="49.04767480887867" lon="-0.9669131140854497"><ele>118.0</ele><time>2026-04-29T17:17:11.999Z</time></trkpt><trkpt lat="49.04765295102523" lon="-0.966658855337566"><ele>118.33333333333334</ele><time>2026-04-29T17:17:12.999Z</time></trkpt><trkpt lat="49.04763833367286" lon="-0.9664073473100228"><ele>118.66666666666666</ele><time>2026-04-29T17:17:13.999Z</time></trkpt><trkpt lat="49.04761535316223" lon="-0.9661715454888034"><ele>119.0</ele><time>2026-04-29T17:17:14.999Z</time></trkpt><trkpt lat="49.0475868734502" lon="-0.9659364455174945"><ele>119.5</ele><time>2026-04-29T17:17:15.999Z</time></trkpt><trkpt lat="49.047559297984776" lon="-0.9657057926861574"><ele>120.0</ele><time>2026-04-29T17:17:16.999Z</time></trkpt><trkpt lat="49.04753129636893" lon="-0.9654895931581778"><ele>120.5</ele><time>2026-04-29T17:17:17.999Z</time></trkpt><trkpt lat="49.04749437369865" lon="-0.9652704037675687"><ele>121.0</ele><time>2026-04-29T17:17:18.999Z</time></trkpt><trkpt lat="49.0474605148239" lon="-0.9650575173605918"><ele>121.75</ele><time>2026-04-29T17:17:19.999Z</time></trkpt><trkpt lat="49.047426713716916" lon="-0.9648470672739146"><ele>122.5</ele><time>2026-04-29T17:17:20.999Z</time></trkpt><trkpt lat="49.047394077887745" lon="-0.9646610545667227"><ele>123.25</ele><time>2026-04-29T17:17:22Z</time></trkpt><trkpt lat="49.04735513175051" lon="-0.9644627243956487"><ele>124.0</ele><time>2026-04-29T17:17:23Z</time></trkpt><trkpt lat="49.047314899787075" lon="-0.9642646198049523"><ele>124.6</ele><time>2026-04-29T17:17:24Z</time></trkpt><trkpt lat="49.04727849832938" lon="-0.9640784210445051"><ele>125.2</ele><time>2026-04-29T17:17:25Z</time></trkpt><trkpt lat="49.04725618410075" lon="-0.96389277406032"><ele>125.79999999999998</ele><time>2026-04-29T17:17:26Z</time></trkpt><trkpt lat="49.047219469147564" lon="-0.9637509793240555"><ele>126.39999999999999</ele><time>2026-04-29T17:17:27Z</time></trkpt><trkpt lat="49.047191688558854" lon="-0.9636131810892472"><ele>127.0</ele><time>2026-04-29T17:17:28Z</time></trkpt><trkpt lat="49.04716813392789" lon="-0.9635012961876105"><ele>127.00000000000001</ele><time>2026-04-29T17:17:29Z</time></trkpt><trkpt lat="49.04720643280897" lon="-0.9633458205062468"><ele>127.0</ele><time>2026-04-29T17:17:31Z</time></trkpt><trkpt lat="49.047292129002095" lon="-0.9633292224239987"><ele>127.0</ele><time>2026-04-29T17:17:32Z</time></trkpt><trkpt lat="49.04737747020612" lon="-0.9633407405190982"><ele>127.0</ele><time>2026-04-29T17:17:33Z</time></trkpt><trkpt lat="49.04745733703097" lon="-0.9633370203365007"><ele>127.00000000000001</ele><time>2026-04-29T17:17:34Z</time></trkpt><trkpt lat="49.04753819788616" lon="-0.9633209768920289"><ele>127.0</ele><time>2026-04-29T17:17:35Z</time></trkpt><trkpt lat="49.0476233053518" lon="-0.9633020613820085"><ele>127.0</ele><time>2026-04-29T17:17:36Z</time></trkpt><trkpt lat="49.047726344988455" lon="-0.9632740907144455"><ele>127.0</ele><time>2026-04-29T17:17:37Z</time></trkpt><trkpt lat="49.047841867150645" lon="-0.963245672398496"><ele>127.0</ele><time>2026-04-29T17:17:38Z</time></trkpt><trkpt lat="49.0479687148816" lon="-0.9632101221201698"><ele>127.0</ele><time>2026-04-29T17:17:39Z</time></trkpt><trkpt lat="49.048098777867594" lon="-0.9631858514394728"><ele>127.0</ele><time>2026-04-29T17:17:40Z</time></trkpt><trkpt lat="49.048232503844766" lon="-0.9631537755177867"><ele>127.0</ele><time>2026-04-29T17:17:41Z</time></trkpt><trkpt lat="49.04837315314087" lon="-0.9631174347346896"><ele>127.0</ele><time>2026-04-29T17:17:42Z</time></trkpt><trkpt lat="49.048517717439175" lon="-0.9630855601742626"><ele>127.0</ele><time>2026-04-29T17:17:43Z</time></trkpt><trkpt lat="49.048655611260685" lon="-0.9630596445172774"><ele>126.75</ele><time>2026-04-29T17:17:44Z</time></trkpt><trkpt lat="49.04878073562728" lon="-0.9630605614327729"><ele>126.5</ele><time>2026-04-29T17:17:45Z</time></trkpt><trkpt lat="49.04890602467564" lon="-0.9630683345299248"><ele>126.25</ele><time>2026-04-29T17:17:46Z</time></trkpt><trkpt lat="49.0490290125959" lon="-0.9630878831939762"><ele>126.0</ele><time>2026-04-29T17:17:47Z</time></trkpt><trkpt lat="49.0491491672488" lon="-0.9631077625862825"><ele>125.8</ele><time>2026-04-29T17:17:48Z</time></trkpt><trkpt lat="49.04926541800479" lon="-0.96312381382397"><ele>125.6</ele><time>2026-04-29T17:17:49Z</time></trkpt><trkpt lat="49.049380609590585" lon="-0.9631357327389124"><ele>125.4</ele><time>2026-04-29T17:17:50Z</time></trkpt><trkpt lat="49.04949033722719" lon="-0.9631317850134757"><ele>125.2</ele><time>2026-04-29T17:17:51Z</time></trkpt><trkpt lat="49.0495864622771" lon="-0.9631620782688358"><ele>125.0</ele><time>2026-04-29T17:17:52Z</time></trkpt><trkpt lat="49.04968205184531" lon="-0.9631755503075949"><ele>125.0</ele><time>2026-04-29T17:17:53Z</time></trkpt><trkpt lat="49.049778360033265" lon="-0.9631605133229374"><ele>125.0</ele><time>2026-04-29T17:17:54Z</time></trkpt><trkpt lat="49.049873254880985" lon="-0.9631608927508702"><ele>125.0</ele><time>2026-04-29T17:17:55Z</time></trkpt><trkpt lat="49.04997311811796" lon="-0.9631598523188163"><ele>125.0</ele><time>2026-04-29T17:17:56Z</time></trkpt><trkpt lat="49.05007352855729" lon="-0.9631570458189677"><ele>125.0</ele><time>2026-04-29T17:17:57Z</time></trkpt><trkpt lat="49.05017679485503" lon="-0.9631493234321769"><ele>124.4</ele><time>2026-04-29T17:17:58Z</time></trkpt><trkpt lat="49.05027625195392" lon="-0.9631395632976176"><ele>123.8</ele><time>2026-04-29T17:17:59Z</time></trkpt><trkpt lat="49.050380042464894" lon="-0.963152944641458"><ele>123.19999999999999</ele><time>2026-04-29T17:18:00Z</time></trkpt><trkpt lat="49.05048138517479" lon="-0.9631339556480737"><ele>122.6</ele><time>2026-04-29T17:18:01Z</time></trkpt><trkpt lat="49.05058934699525" lon="-0.9631310250539784"><ele>122.0</ele><time>2026-04-29T17:18:02Z</time></trkpt><trkpt lat="49.0506958098314" lon="-0.9631205668736442"><ele>121.19999999999999</ele><time>2026-04-29T17:18:03Z</time></trkpt><trkpt lat="49.05080667946156" lon="-0.9631244363028721"><ele>120.39999999999999</ele><time>2026-04-29T17:18:04Z</time></trkpt><trkpt lat="49.05091664156384" lon="-0.9631329751103781"><ele>119.60000000000001</ele><time>2026-04-29T17:18:05Z</time></trkpt><trkpt lat="49.051023042173966" lon="-0.9631412834856103"><ele>118.80000000000001</ele><time>2026-04-29T17:18:06Z</time></trkpt><trkpt lat="49.05114005411769" lon="-0.963130895523683"><ele>118.0</ele><time>2026-04-29T17:18:07Z</time></trkpt><trkpt lat="49.051254509838124" lon="-0.9631345902800902"><ele>118.0</ele><time>2026-04-29T17:18:08Z</time></trkpt><trkpt lat="49.05136343082123" lon="-0.963162515899908"><ele>118.0</ele><time>2026-04-29T17:18:09Z</time></trkpt><trkpt lat="49.05147251596936" lon="-0.963201433126287"><ele>118.0</ele><time>2026-04-29T17:18:10Z</time></trkpt><trkpt lat="49.05157744958106" lon="-0.9632692914362375"><ele>118.0</ele><time>2026-04-29T17:18:11Z</time></trkpt><trkpt lat="49.05168177990737" lon="-0.9633401571531705"><ele>116.2</ele><time>2026-04-29T17:18:12Z</time></trkpt><trkpt lat="49.05178990361842" lon="-0.9633939992358388"><ele>114.4</ele><time>2026-04-29T17:18:13Z</time></trkpt><trkpt lat="49.0519240719254" lon="-0.9634431294472341"><ele>112.60000000000001</ele><time>2026-04-29T17:18:14Z</time></trkpt><trkpt lat="49.05200753870608" lon="-0.9634994380444717"><ele>110.80000000000001</ele><time>2026-04-29T17:18:15Z</time></trkpt><trkpt lat="49.05209030640217" lon="-0.9635327858078563"><ele>109.0</ele><time>2026-04-29T17:18:16Z</time></trkpt><trkpt lat="49.052194337667" lon="-0.9635764999345037"><ele>109.00000000000001</ele><time>2026-04-29T17:18:18Z</time></trkpt><trkpt lat="49.05226200144327" lon="-0.9636099423515476"><ele>109.0</ele><time>2026-04-29T17:18:20Z</time></trkpt><trkpt lat="49.052169243332" lon="-0.9635567685649511"><ele>109.0</ele><time>2026-04-29T17:19:19Z</time></trkpt><trkpt lat="49.052090037694654" lon="-0.9635183878303606"><ele>109.0</ele><time>2026-04-29T17:19:20Z</time></trkpt><trkpt lat="49.052008637762185" lon="-0.9634954855518977"><ele>109.00000000000001</ele><time>2026-04-29T17:19:21Z</time></trkpt><trkpt lat="49.05191528950006" lon="-0.9634561499787947"><ele>109.0</ele><time>2026-04-29T17:19:22Z</time></trkpt><trkpt lat="49.05179576410426" lon="-0.9633852666528536"><ele>109.6</ele><time>2026-04-29T17:19:24Z</time></trkpt><trkpt lat="49.0516376152478" lon="-0.9633151763633364"><ele>110.2</ele><time>2026-04-29T17:19:26Z</time></trkpt><trkpt lat="49.051554722692856" lon="-0.9632680929420689"><ele>110.79999999999998</ele><time>2026-04-29T17:19:27Z</time></trkpt><trkpt lat="49.051475186312665" lon="-0.9632036783180077"><ele>111.39999999999999</ele><time>2026-04-29T17:19:28Z</time></trkpt><trkpt lat="49.05138016765866" lon="-0.9631902887578059"><ele>112.0</ele><time>2026-04-29T17:19:29Z</time></trkpt><trkpt lat="49.051293577655315" lon="-0.9631265391117617"><ele>113.19999999999999</ele><time>2026-04-29T17:19:30Z</time></trkpt><trkpt lat="49.05119504818293" lon="-0.9631203489125573"><ele>114.39999999999999</ele><time>2026-04-29T17:19:31Z</time></trkpt><trkpt lat="49.051096315444504" lon="-0.9630988716648307"><ele>115.60000000000001</ele><time>2026-04-29T17:19:32Z</time></trkpt><trkpt lat="49.05098371259469" lon="-0.9631745203269192"><ele>116.80000000000001</ele><time>2026-04-29T17:19:33Z</time></trkpt><trkpt lat="49.05087344830924" lon="-0.963168168684277"><ele>118.0</ele><time>2026-04-29T17:19:34Z</time></trkpt><trkpt lat="49.0507691212152" lon="-0.9631621592021973"><ele>118.80000000000001</ele><time>2026-04-29T17:19:35Z</time></trkpt><trkpt lat="49.05066290846058" lon="-0.9631621317890994"><ele>119.60000000000001</ele><time>2026-04-29T17:19:36Z</time></trkpt><trkpt lat="49.050554344674424" lon="-0.9631660090582602"><ele>120.39999999999999</ele><time>2026-04-29T17:19:37Z</time></trkpt><trkpt lat="49.05044577309799" lon="-0.9631741906549358"><ele>121.19999999999999</ele><time>2026-04-29T17:19:38Z</time></trkpt><trkpt lat="49.05033440435456" lon="-0.9631844840380761"><ele>122.0</ele><time>2026-04-29T17:19:39Z</time></trkpt><trkpt lat="49.05021936047656" lon="-0.9631959632474861"><ele>122.0</ele><time>2026-04-29T17:19:40Z</time></trkpt><trkpt lat="49.05010747938322" lon="-0.9631839897952444"><ele>122.0</ele><time>2026-04-29T17:19:41Z</time></trkpt><trkpt lat="49.049985417819386" lon="-0.9631978666845877"><ele>122.0</ele><time>2026-04-29T17:19:42Z</time></trkpt><trkpt lat="49.049853731869085" lon="-0.9631973215498324"><ele>122.0</ele><time>2026-04-29T17:19:43Z</time></trkpt><trkpt lat="49.04970246500386" lon="-0.9631905800489324"><ele>123.0</ele><time>2026-04-29T17:19:44Z</time></trkpt><trkpt lat="49.049537852669864" lon="-0.9631674369082417"><ele>124.0</ele><time>2026-04-29T17:19:45Z</time></trkpt><trkpt lat="49.04936485508337" lon="-0.9631667975138486"><ele>125.0</ele><time>2026-04-29T17:19:46Z</time></trkpt><trkpt lat="49.04917940338856" lon="-0.9631428413598876"><ele>125.33333333333333</ele><time>2026-04-29T17:19:47Z</time></trkpt><trkpt lat="49.04900358064102" lon="-0.9630958584497754"><ele>125.66666666666666</ele><time>2026-04-29T17:19:48Z</time></trkpt><trkpt lat="49.04884959505756" lon="-0.9630804366214522"><ele>126.0</ele><time>2026-04-29T17:19:49Z</time></trkpt><trkpt lat="49.04870009393693" lon="-0.9630988072306638"><ele>126.0</ele><time>2026-04-29T17:19:50Z</time></trkpt><trkpt lat="49.04857564912896" lon="-0.9631074145554981"><ele>126.0</ele><time>2026-04-29T17:19:51Z</time></trkpt><trkpt lat="49.04844610599253" lon="-0.9631299297370481"><ele>126.0</ele><time>2026-04-29T17:19:52Z</time></trkpt><trkpt lat="49.04831319013371" lon="-0.9631609810812884"><ele>126.0</ele><time>2026-04-29T17:19:53Z</time></trkpt><trkpt lat="49.04818643737761" lon="-0.9631912781580898"><ele>126.25</ele><time>2026-04-29T17:19:54Z</time></trkpt><trkpt lat="49.04806027135707" lon="-0.963221434999259"><ele>126.5</ele><time>2026-04-29T17:19:55Z</time></trkpt><trkpt lat="49.047940886400305" lon="-0.9632499709817635"><ele>126.75</ele><time>2026-04-29T17:19:56Z</time></trkpt><trkpt lat="49.04782462921017" lon="-0.9632654512709313"><ele>127.0</ele><time>2026-04-29T17:19:57Z</time></trkpt><trkpt lat="49.04772845375366" lon="-0.9632907500228717"><ele>127.00000000000001</ele><time>2026-04-29T17:19:58Z</time></trkpt><trkpt lat="49.047654275698434" lon="-0.9633186257418453"><ele>127.0</ele><time>2026-04-29T17:19:59Z</time></trkpt><trkpt lat="49.04757689413444" lon="-0.9633319520146578"><ele>127.0</ele><time>2026-04-29T17:20:00Z</time></trkpt><trkpt lat="49.047490566900215" lon="-0.9633514800715822"><ele>127.0</ele><time>2026-04-29T17:20:02Z</time></trkpt><trkpt lat="49.047399644487996" lon="-0.9633720900566906"><ele>127.00000000000001</ele><time>2026-04-29T17:20:58Z</time></trkpt><trkpt lat="49.047310219138936" lon="-0.9633899189947682"><ele>127.0</ele><time>2026-04-29T17:21:00Z</time></trkpt><trkpt lat="49.04724908359808" lon="-0.9634249686182291"><ele>127.0</ele><time>2026-04-29T17:21:02Z</time></trkpt><trkpt lat="49.047176044476885" lon="-0.9634425022126422"><ele>126.99999999999999</ele><time>2026-04-29T17:21:18Z</time></trkpt><trkpt lat="49.047111012572834" lon="-0.9632346438623313"><ele>126.99999999999999</ele><time>2026-04-29T17:21:20Z</time></trkpt><trkpt lat="49.04707325017917" lon="-0.9631117086650056"><ele>127.0</ele><time>2026-04-29T17:21:21Z</time></trkpt><trkpt lat="49.04701955537715" lon="-0.9629718207108676"><ele>127.0</ele><time>2026-04-29T17:21:22Z</time></trkpt><trkpt lat="49.04702601750992" lon="-0.9628331772057536"><ele>127.5</ele><time>2026-04-29T17:21:23Z</time></trkpt><trkpt lat="49.04699028228104" lon="-0.9626651659798622"><ele>128.0</ele><time>2026-04-29T17:21:24Z</time></trkpt><trkpt lat="49.046959044228615" lon="-0.9624972790995067"><ele>128.5</ele><time>2026-04-29T17:21:25Z</time></trkpt><trkpt lat="49.04693557112975" lon="-0.9623219429817186"><ele>129.0</ele><time>2026-04-29T17:21:26Z</time></trkpt><trkpt lat="49.046900666859756" lon="-0.9621389724415162"><ele>129.0</ele><time>2026-04-29T17:21:27Z</time></trkpt><trkpt lat="49.04685917612656" lon="-0.9619304398696304"><ele>129.0</ele><time>2026-04-29T17:21:28Z</time></trkpt><trkpt lat="49.04681968601478" lon="-0.9617311131016599"><ele>129.0</ele><time>2026-04-29T17:21:29Z</time></trkpt><trkpt lat="49.04677975336299" lon="-0.9615173145601954"><ele>129.0</ele><time>2026-04-29T17:21:30Z</time></trkpt><trkpt lat="49.04673844671436" lon="-0.9613007979920183"><ele>130.0</ele><time>2026-04-29T17:21:31Z</time></trkpt><trkpt lat="49.04669315236038" lon="-0.9610846229872019"><ele>131.0</ele><time>2026-04-29T17:21:32Z</time></trkpt><trkpt lat="49.04664877326866" lon="-0.9608596852751353"><ele>132.0</ele><time>2026-04-29T17:21:33Z</time></trkpt><trkpt lat="49.04660143159518" lon="-0.960633114186401"><ele>132.0</ele><time>2026-04-29T17:21:34Z</time></trkpt><trkpt lat="49.04655476822773" lon="-0.960416293738629"><ele>132.0</ele><time>2026-04-29T17:21:35Z</time></trkpt><trkpt lat="49.04650645704431" lon="-0.9601986597876958"><ele>132.0</ele><time>2026-04-29T17:21:36Z</time></trkpt><trkpt lat="49.04646412986531" lon="-0.9599768491201411"><ele>132.25</ele><time>2026-04-29T17:21:37Z</time></trkpt><trkpt lat="49.04642392478739" lon="-0.9597561073772182"><ele>132.5</ele><time>2026-04-29T17:21:38Z</time></trkpt><trkpt lat="49.046384104875635" lon="-0.9595349302824001"><ele>132.75</ele><time>2026-04-29T17:21:39Z</time></trkpt><trkpt lat="49.04634413239791" lon="-0.9593164533566416"><ele>133.0</ele><time>2026-04-29T17:21:40Z</time></trkpt><trkpt lat="49.04629996654147" lon="-0.9591042869001164"><ele>133.25</ele><time>2026-04-29T17:21:41Z</time></trkpt><trkpt lat="49.04625520920217" lon="-0.9588934507834195"><ele>133.5</ele><time>2026-04-29T17:21:42Z</time></trkpt><trkpt lat="49.04621903098553" lon="-0.9586665816336575"><ele>133.75</ele><time>2026-04-29T17:21:43Z</time></trkpt><trkpt lat="49.04616577685336" lon="-0.9585051655847977"><ele>134.0</ele><time>2026-04-29T17:21:44Z</time></trkpt><trkpt lat="49.046113556471155" lon="-0.9582752849770926"><ele>133.33333333333331</ele><time>2026-04-29T17:21:45Z</time></trkpt><trkpt lat="49.04605523837732" lon="-0.9580619268573412"><ele>132.66666666666666</ele><time>2026-04-29T17:21:46Z</time></trkpt><trkpt lat="49.045994937174584" lon="-0.9578440150804102"><ele>132.0</ele><time>2026-04-29T17:21:47Z</time></trkpt><trkpt lat="49.04593294118656" lon="-0.9576397603071467"><ele>132.0</ele><time>2026-04-29T17:21:48Z</time></trkpt><trkpt lat="49.04586735205388" lon="-0.957430625507855"><ele>132.0</ele><time>2026-04-29T17:21:49Z</time></trkpt><trkpt lat="49.04579469632076" lon="-0.957204915654478"><ele>132.0</ele><time>2026-04-29T17:21:50Z</time></trkpt><trkpt lat="49.04572182645185" lon="-0.9569854366876248"><ele>133.0</ele><time>2026-04-29T17:21:51Z</time></trkpt><trkpt lat="49.045637622885245" lon="-0.9567572524619176"><ele>134.0</ele><time>2026-04-29T17:21:52Z</time></trkpt><trkpt lat="49.04552967560282" lon="-0.9565204572486256"><ele>135.0</ele><time>2026-04-29T17:21:53Z</time></trkpt><trkpt lat="49.045495617348436" lon="-0.9563355463732628"><ele>135.0</ele><time>2026-04-29T17:21:54Z</time></trkpt><trkpt lat="49.04543860701207" lon="-0.956113163728982"><ele>135.0</ele><time>2026-04-29T17:21:55Z</time></trkpt><trkpt lat="49.04536674834317" lon="-0.9558900864925834"><ele>135.0</ele><time>2026-04-29T17:21:56Z</time></trkpt><trkpt lat="49.04529521388327" lon="-0.9556802951153386"><ele>135.5</ele><time>2026-04-29T17:21:57Z</time></trkpt><trkpt lat="49.045226047389406" lon="-0.9554694312146941"><ele>136.0</ele><time>2026-04-29T17:21:58Z</time></trkpt><trkpt lat="49.045167464324116" lon="-0.955261636726619"><ele>136.5</ele><time>2026-04-29T17:21:59Z</time></trkpt><trkpt lat="49.04510854969243" lon="-0.9550773487028958"><ele>137.0</ele><time>2026-04-29T17:22:00Z</time></trkpt><trkpt lat="49.0450564468305" lon="-0.9549300175465065"><ele>137.0</ele><time>2026-04-29T17:22:01Z</time></trkpt><trkpt lat="49.0450123977895" lon="-0.9547922933134121"><ele>137.0</ele><time>2026-04-29T17:22:02Z</time></trkpt><trkpt lat="49.04497496638179" lon="-0.9546709323325886"><ele>137.0</ele><time>2026-04-29T17:22:03Z</time></trkpt><trkpt lat="49.04493605690773" lon="-0.9545520028591705"><ele>137.0</ele><time>2026-04-29T17:22:04Z</time></trkpt><trkpt lat="49.044874542570106" lon="-0.9544630735130123"><ele>137.0</ele><time>2026-04-29T17:22:05Z</time></trkpt><trkpt lat="49.044924674157606" lon="-0.9542461160019347"><ele>137.0</ele><time>2026-04-29T17:22:07Z</time></trkpt><trkpt lat="49.04496824729348" lon="-0.9541629990341034"><ele>137.0</ele><time>2026-04-29T17:22:08Z</time></trkpt><trkpt lat="49.04508283439395" lon="-0.9541817421317278"><ele>137.0</ele><time>2026-04-29T17:22:10Z</time></trkpt><trkpt lat="49.04515439083781" lon="-0.9542572746189746"><ele>137.0</ele><time>2026-04-29T17:22:11Z</time></trkpt><trkpt lat="49.045228523857595" lon="-0.9543441895832344"><ele>137.0</ele><time>2026-04-29T17:22:12Z</time></trkpt><trkpt lat="49.0453144353384" lon="-0.9544010607469421"><ele>137.0</ele><time>2026-04-29T17:22:13Z</time></trkpt><trkpt lat="49.04539617118434" lon="-0.9544904697820735"><ele>137.0</ele><time>2026-04-29T17:22:14Z</time></trkpt><trkpt lat="49.04549693381475" lon="-0.9545141024224758"><ele>137.0</ele><time>2026-04-29T17:22:15Z</time></trkpt><trkpt lat="49.04560479734681" lon="-0.9545354363649413"><ele>137.0</ele><time>2026-04-29T17:22:16Z</time></trkpt><trkpt lat="49.0457159989937" lon="-0.9545310376971112"><ele>137.0</ele><time>2026-04-29T17:22:17Z</time></trkpt><trkpt lat="49.045830630273976" lon="-0.9545375575940175"><ele>136.4</ele><time>2026-04-29T17:22:18Z</time></trkpt><trkpt lat="49.045924306259714" lon="-0.95453489565241"><ele>135.79999999999998</ele><time>2026-04-29T17:22:19Z</time></trkpt><trkpt lat="49.0460107238518" lon="-0.9545164096333421"><ele>135.2</ele><time>2026-04-29T17:22:20Z</time></trkpt><trkpt lat="49.046111589815965" lon="-0.954500435401016"><ele>134.6</ele><time>2026-04-29T17:22:21Z</time></trkpt><trkpt lat="49.04620966843234" lon="-0.9544494394519291"><ele>134.0</ele><time>2026-04-29T17:22:22Z</time></trkpt><trkpt lat="49.0462876880637" lon="-0.9544157550145146"><ele>134.0</ele><time>2026-04-29T17:22:23Z</time></trkpt><trkpt lat="49.04637465556866" lon="-0.9543778903915415"><ele>134.0</ele><time>2026-04-29T17:22:25Z</time></trkpt><trkpt lat="49.0464733893885" lon="-0.9543268704849687"><ele>134.0</ele><time>2026-04-29T17:22:27Z</time></trkpt><trkpt lat="49.04654409818055" lon="-0.9542908017431899"><ele>134.0</ele><time>2026-04-29T17:22:28Z</time></trkpt><trkpt lat="49.04662853111832" lon="-0.9542396871718133"><ele>134.0</ele><time>2026-04-29T17:22:29Z</time></trkpt><trkpt lat="49.04672234400053" lon="-0.9541604071738887"><ele>133.6</ele><time>2026-04-29T17:22:30Z</time></trkpt><trkpt lat="49.04680518891934" lon="-0.9540782401035792"><ele>133.2</ele><time>2026-04-29T17:22:31Z</time></trkpt><trkpt lat="49.046887473286525" lon="-0.9539781327940121"><ele>132.79999999999998</ele><time>2026-04-29T17:22:32Z</time></trkpt><trkpt lat="49.04699312185273" lon="-0.9538956443051484"><ele>132.4</ele><time>2026-04-29T17:22:33Z</time></trkpt><trkpt lat="49.04708029215545" lon="-0.9538713066059135"><ele>132.0</ele><time>2026-04-29T17:22:34Z</time></trkpt><trkpt lat="49.0471597456901" lon="-0.9538221481961789"><ele>132.0</ele><time>2026-04-29T17:22:35Z</time></trkpt><trkpt lat="49.04724363373107" lon="-0.9537382765651293"><ele>132.0</ele><time>2026-04-29T17:22:36Z</time></trkpt><trkpt lat="49.047319444743" lon="-0.9536614803271428"><ele>132.0</ele><time>2026-04-29T17:22:37Z</time></trkpt><trkpt lat="49.04740503192768" lon="-0.9535948566253788"><ele>132.0</ele><time>2026-04-29T17:22:38Z</time></trkpt><trkpt lat="49.04748163278792" lon="-0.9535267209395712"><ele>132.0</ele><time>2026-04-29T17:22:39Z</time></trkpt><trkpt lat="49.047540311157995" lon="-0.9534670834685358"><ele>132.0</ele><time>2026-04-29T17:22:40Z</time></trkpt><trkpt lat="49.04759243216422" lon="-0.9534027242411519"><ele>131.83333333333334</ele><time>2026-04-29T17:22:41Z</time></trkpt><trkpt lat="49.04766494867273" lon="-0.9533316480093132"><ele>131.66666666666666</ele><time>2026-04-29T17:22:42Z</time></trkpt><trkpt lat="49.04772700523077" lon="-0.9532710057664607"><ele>131.5</ele><time>2026-04-29T17:22:43Z</time></trkpt><trkpt lat="49.04778134372037" lon="-0.9532060751290442"><ele>131.33333333333331</ele><time>2026-04-29T17:22:44Z</time></trkpt><trkpt lat="49.04783587738269" lon="-0.9531453194210396"><ele>131.16666666666666</ele><time>2026-04-29T17:22:45Z</time></trkpt><trkpt lat="49.04787920216616" lon="-0.9530619572468664"><ele>131.0</ele><time>2026-04-29T17:22:46Z</time></trkpt><trkpt lat="49.04792683762342" lon="-0.9529573154408604"><ele>131.0</ele><time>2026-04-29T17:22:47Z</time></trkpt><trkpt lat="49.047981808915424" lon="-0.9528620044798889"><ele>131.0</ele><time>2026-04-29T17:22:48Z</time></trkpt><trkpt lat="49.04805303464331" lon="-0.9527622009396952"><ele>131.0</ele><time>2026-04-29T17:22:49Z</time></trkpt><trkpt lat="49.048136944141966" lon="-0.952624740399201"><ele>131.0</ele><time>2026-04-29T17:22:50Z</time></trkpt><trkpt lat="49.04822142013732" lon="-0.9525338099491703"><ele>131.0</ele><time>2026-04-29T17:22:51Z</time></trkpt><trkpt lat="49.04830227831519" lon="-0.9524386368867059"><ele>130.25</ele><time>2026-04-29T17:22:52Z</time></trkpt><trkpt lat="49.048389265311755" lon="-0.9523226054155248"><ele>129.5</ele><time>2026-04-29T17:22:53Z</time></trkpt><trkpt lat="49.04846569948434" lon="-0.9521777987755373"><ele>128.75</ele><time>2026-04-29T17:22:54Z</time></trkpt><trkpt lat="49.048550551018245" lon="-0.9520518541247975"><ele>128.0</ele><time>2026-04-29T17:22:55Z</time></trkpt><trkpt lat="49.04863881011638" lon="-0.9519340397049978"><ele>128.0</ele><time>2026-04-29T17:22:56Z</time></trkpt><trkpt lat="49.04873452070051" lon="-0.9518393147735629"><ele>128.0</ele><time>2026-04-29T17:22:57Z</time></trkpt><trkpt lat="49.04881316425233" lon="-0.9517448447089587"><ele>128.0</ele><time>2026-04-29T17:22:58Z</time></trkpt><trkpt lat="49.048889907888714" lon="-0.9516421932487041"><ele>128.0</ele><time>2026-04-29T17:22:59Z</time></trkpt><trkpt lat="49.04897297905843" lon="-0.9516157935693716"><ele>128.0</ele><time>2026-04-29T17:23:00Z</time></trkpt><trkpt lat="49.049058899852874" lon="-0.9515327694824639"><ele>127.75</ele><time>2026-04-29T17:23:01Z</time></trkpt><trkpt lat="49.04914519050788" lon="-0.9514114303905573"><ele>127.5</ele><time>2026-04-29T17:23:02Z</time></trkpt><trkpt lat="49.04923671454368" lon="-0.9512789106719037"><ele>127.25</ele><time>2026-04-29T17:23:03Z</time></trkpt><trkpt lat="49.04934072142016" lon="-0.9511417084382441"><ele>127.0</ele><time>2026-04-29T17:23:04Z</time></trkpt><trkpt lat="49.04942632750816" lon="-0.9510100840059003"><ele>127.0</ele><time>2026-04-29T17:23:05Z</time></trkpt><trkpt lat="49.04950429979061" lon="-0.950883225150905"><ele>126.99999999999999</ele><time>2026-04-29T17:23:06Z</time></trkpt><trkpt lat="49.049580369103516" lon="-0.9507836506064735"><ele>126.99999999999999</ele><time>2026-04-29T17:23:07Z</time></trkpt><trkpt lat="49.049665646628995" lon="-0.9506847494026616"><ele>127.0</ele><time>2026-04-29T17:23:08Z</time></trkpt><trkpt lat="49.04975584030594" lon="-0.9505637091919946"><ele>127.0</ele><time>2026-04-29T17:23:09Z</time></trkpt><trkpt lat="49.04984534488826" lon="-0.9504428631221344"><ele>126.8</ele><time>2026-04-29T17:23:10Z</time></trkpt><trkpt lat="49.04993172924947" lon="-0.9503388242205175"><ele>126.6</ele><time>2026-04-29T17:23:11Z</time></trkpt><trkpt lat="49.05002275256266" lon="-0.9502250902784078"><ele>126.39999999999999</ele><time>2026-04-29T17:23:12Z</time></trkpt><trkpt lat="49.05010821788917" lon="-0.9501116414090436"><ele>126.19999999999999</ele><time>2026-04-29T17:23:13Z</time></trkpt><trkpt lat="49.05018978109974" lon="-0.9500072624699862"><ele>126.0</ele><time>2026-04-29T17:23:14Z</time></trkpt><trkpt lat="49.05026008247959" lon="-0.9499025381025741"><ele>126.33333333333333</ele><time>2026-04-29T17:23:15Z</time></trkpt><trkpt lat="49.05032988902849" lon="-0.9498246794515963"><ele>126.66666666666666</ele><time>2026-04-29T17:23:16Z</time></trkpt><trkpt lat="49.05036659643333" lon="-0.9497430617719583"><ele>127.0</ele><time>2026-04-29T17:23:17Z</time></trkpt><trkpt lat="49.05043274370294" lon="-0.9496615591079488"><ele>127.33333333333333</ele><time>2026-04-29T17:23:19Z</time></trkpt><trkpt lat="49.05049549033356" lon="-0.9496363121196509"><ele>127.66666666666666</ele><time>2026-04-29T17:23:20Z</time></trkpt><trkpt lat="49.05055509296151" lon="-0.949564947302298"><ele>128.0</ele><time>2026-04-29T17:24:10Z</time></trkpt><trkpt lat="49.05060404505068" lon="-0.9494646791187684"><ele>127.99999999999999</ele><time>2026-04-29T17:24:12Z</time></trkpt><trkpt lat="49.05065510478601" lon="-0.9493919606590348"><ele>128.0</ele><time>2026-04-29T17:24:13Z</time></trkpt><trkpt lat="49.050712973540115" lon="-0.9493032089804011"><ele>128.0</ele><time>2026-04-29T17:24:14Z</time></trkpt><trkpt lat="49.05077880870176" lon="-0.9492243147563946"><ele>128.0</ele><time>2026-04-29T17:24:15Z</time></trkpt><trkpt lat="49.050850611559056" lon="-0.9491118751214376"><ele>127.99999999999999</ele><time>2026-04-29T17:24:16Z</time></trkpt><trkpt lat="49.050924241900184" lon="-0.9490069246531813"><ele>128.0</ele><time>2026-04-29T17:24:17Z</time></trkpt><trkpt lat="49.05099809616602" lon="-0.9488998405057119"><ele>127.80000000000001</ele><time>2026-04-29T17:24:18Z</time></trkpt><trkpt lat="49.051072325642004" lon="-0.9488017070908451"><ele>127.60000000000001</ele><time>2026-04-29T17:24:19Z</time></trkpt><trkpt lat="49.05114339236266" lon="-0.9486809002148165"><ele>127.39999999999999</ele><time>2026-04-29T17:24:20Z</time></trkpt><trkpt lat="49.051201970774784" lon="-0.9485751717653604"><ele>127.19999999999999</ele><time>2026-04-29T17:24:21Z</time></trkpt><trkpt lat="49.05125792470049" lon="-0.9484891987853161"><ele>127.0</ele><time>2026-04-29T17:24:22Z</time></trkpt><trkpt lat="49.0512981492329" lon="-0.9483911721437465"><ele>127.6</ele><time>2026-04-29T17:24:23Z</time></trkpt><trkpt lat="49.05133878087727" lon="-0.9482909708399485"><ele>128.2</ele><time>2026-04-29T17:24:24Z</time></trkpt><trkpt lat="49.05139349791898" lon="-0.9481631075650734"><ele>128.8</ele><time>2026-04-29T17:24:25Z</time></trkpt><trkpt lat="49.05144230997304" lon="-0.9480582056581449"><ele>129.4</ele><time>2026-04-29T17:24:26Z</time></trkpt><trkpt lat="49.05149803493928" lon="-0.9479279733726051"><ele>130.0</ele><time>2026-04-29T17:24:27Z</time></trkpt><trkpt lat="49.051551841981635" lon="-0.9478115916202307"><ele>130.0</ele><time>2026-04-29T17:24:28Z</time></trkpt><trkpt lat="49.05160763895933" lon="-0.9476594695137414"><ele>130.0</ele><time>2026-04-29T17:24:29Z</time></trkpt><trkpt lat="49.05167814856026" lon="-0.9475201741316563"><ele>130.0</ele><time>2026-04-29T17:24:30Z</time></trkpt><trkpt lat="49.05172032922005" lon="-0.9473981363006647"><ele>130.0</ele><time>2026-04-29T17:24:31Z</time></trkpt><trkpt lat="49.051771287538955" lon="-0.9472742911492722"><ele>130.0</ele><time>2026-04-29T17:24:32Z</time></trkpt><trkpt lat="49.05181412988594" lon="-0.9471544145976251"><ele>129.5</ele><time>2026-04-29T17:24:33Z</time></trkpt><trkpt lat="49.051859002382294" lon="-0.9470347906093755"><ele>129.0</ele><time>2026-04-29T17:24:34Z</time></trkpt><trkpt lat="49.05189750754213" lon="-0.9469467552768992"><ele>128.5</ele><time>2026-04-29T17:24:35Z</time></trkpt><trkpt lat="49.05193464389427" lon="-0.9468685036805934"><ele>128.0</ele><time>2026-04-29T17:24:36Z</time></trkpt><trkpt lat="49.05200491733587" lon="-0.9467554532474542"><ele>127.50000000000001</ele><time>2026-04-29T17:24:38Z</time></trkpt><trkpt lat="49.05199258815224" lon="-0.9465919720235615"><ele>127.0</ele><time>2026-04-29T17:24:39Z</time></trkpt><trkpt lat="49.052047829063596" lon="-0.9465424463163365"><ele>127.00000000000001</ele><time>2026-04-29T17:24:42Z</time></trkpt><trkpt lat="49.05210063694875" lon="-0.9464524212130198"><ele>127.0</ele><time>2026-04-29T17:25:09Z</time></trkpt><trkpt lat="49.052130971399386" lon="-0.9463649577085178"><ele>127.0</ele><time>2026-04-29T17:25:10Z</time></trkpt><trkpt lat="49.052163755343706" lon="-0.9462537593782276"><ele>127.0</ele><time>2026-04-29T17:25:11Z</time></trkpt><trkpt lat="49.05218811979652" lon="-0.946115067919952"><ele>127.00000000000001</ele><time>2026-04-29T17:25:12Z</time></trkpt><trkpt lat="49.052212383288904" lon="-0.9459610866660336"><ele>127.0</ele><time>2026-04-29T17:25:13Z</time></trkpt><trkpt lat="49.05223348192154" lon="-0.9457907275625449"><ele>127.0</ele><time>2026-04-29T17:25:14Z</time></trkpt><trkpt lat="49.052245917302216" lon="-0.9456119956500041"><ele>126.99999999999999</ele><time>2026-04-29T17:25:15Z</time></trkpt><trkpt lat="49.05225125337974" lon="-0.9454317689825619"><ele>126.99999999999999</ele><time>2026-04-29T17:25:16Z</time></trkpt><trkpt lat="49.05225366523419" lon="-0.9452625523458597"><ele>127.0</ele><time>2026-04-29T17:25:17Z</time></trkpt><trkpt lat="49.05224562179713" lon="-0.9451208579774445"><ele>127.0</ele><time>2026-04-29T17:25:18Z</time></trkpt><trkpt lat="49.0522291024412" lon="-0.9450075235458123"><ele>126.83333333333334</ele><time>2026-04-29T17:25:19Z</time></trkpt><trkpt lat="49.05219683422613" lon="-0.944834517314142"><ele>126.66666666666667</ele><time>2026-04-29T17:25:21Z</time></trkpt><trkpt lat="49.05219743508164" lon="-0.9447351331639469"><ele>126.5</ele><time>2026-04-29T17:25:22Z</time></trkpt><trkpt lat="49.05217772274647" lon="-0.9446269308880255"><ele>126.33333333333334</ele><time>2026-04-29T17:25:23Z</time></trkpt><trkpt lat="49.05222906879922" lon="-0.9445150446281023"><ele>126.16666666666667</ele><time>2026-04-29T17:25:24Z</time></trkpt><trkpt lat="49.052249719600546" lon="-0.9444017000121453"><ele>126.0</ele><time>2026-04-29T17:25:25Z</time></trkpt><trkpt lat="49.05227640697717" lon="-0.9442661838475329"><ele>125.4</ele><time>2026-04-29T17:25:26Z</time></trkpt><trkpt lat="49.05230752688805" lon="-0.9441213878822248"><ele>124.8</ele><time>2026-04-29T17:25:27Z</time></trkpt><trkpt lat="49.05242909859271" lon="-0.9440544002866923"><ele>124.20000000000002</ele><time>2026-04-29T17:25:28Z</time></trkpt><trkpt lat="49.05246431130002" lon="-0.9439397143442815"><ele>123.60000000000001</ele><time>2026-04-29T17:25:29Z</time></trkpt><trkpt lat="49.05249844812234" lon="-0.9438285322395894"><ele>123.0</ele><time>2026-04-29T17:25:30Z</time></trkpt><trkpt lat="49.05236765011454" lon="-0.9436146693900932"><ele>123.0</ele><time>2026-04-29T17:25:31Z</time></trkpt><trkpt lat="49.052350155714755" lon="-0.943514307347203"><ele>123.0</ele><time>2026-04-29T17:25:32Z</time></trkpt><trkpt lat="49.05227184036873" lon="-0.9434603716730531"><ele>123.0</ele><time>2026-04-29T17:25:34Z</time></trkpt><trkpt lat="49.0521938323084" lon="-0.9434777788331146"><ele>123.0</ele><time>2026-04-29T17:25:35Z</time></trkpt><trkpt lat="49.05211753037322" lon="-0.9434691287784582"><ele>123.0</ele><time>2026-04-29T17:25:36Z</time></trkpt><trkpt lat="49.05203691734032" lon="-0.9434456495509423"><ele>123.0</ele><time>2026-04-29T17:25:37Z</time></trkpt><trkpt lat="49.05198005523384" lon="-0.9433906636882549"><ele>123.2</ele><time>2026-04-29T17:25:38Z</time></trkpt><trkpt lat="49.05194984890107" lon="-0.9432234667740745"><ele>123.4</ele><time>2026-04-29T17:25:40Z</time></trkpt><trkpt lat="49.051966300216385" lon="-0.9430409691719468"><ele>123.60000000000001</ele><time>2026-04-29T17:25:42Z</time></trkpt><trkpt lat="49.051952754666246" lon="-0.9429408978332584"><ele>123.80000000000001</ele><time>2026-04-29T17:25:43Z</time></trkpt><trkpt lat="49.051950170900085" lon="-0.9428344994214513"><ele>124.0</ele><time>2026-04-29T17:25:44Z</time></trkpt><trkpt lat="49.05194425455693" lon="-0.9427151846051326"><ele>124.00000000000001</ele><time>2026-04-29T17:25:45Z</time></trkpt><trkpt lat="49.051933428465574" lon="-0.9425882687152064"><ele>124.0</ele><time>2026-04-29T17:25:46Z</time></trkpt><trkpt lat="49.05192519595094" lon="-0.942454322684642"><ele>124.0</ele><time>2026-04-29T17:25:47Z</time></trkpt><trkpt lat="49.05192256225836" lon="-0.9423278028847626"><ele>124.0</ele><time>2026-04-29T17:25:48Z</time></trkpt><trkpt lat="49.051922894378656" lon="-0.9422035676769379"><ele>124.00000000000001</ele><time>2026-04-29T17:25:49Z</time></trkpt><trkpt lat="49.051891032632234" lon="-0.942096251408852"><ele>124.0</ele><time>2026-04-29T17:25:51Z</time></trkpt><trkpt lat="49.051927343296704" lon="-0.9420018234991545"><ele>124.4</ele><time>2026-04-29T17:25:56Z</time></trkpt><trkpt lat="49.051994682225285" lon="-0.9419330710510754"><ele>124.80000000000001</ele><time>2026-04-29T17:25:58Z</time></trkpt><trkpt lat="49.0520568781453" lon="-0.9418762965943827"><ele>125.19999999999999</ele><time>2026-04-29T17:25:59Z</time></trkpt><trkpt lat="49.05213039156333" lon="-0.9418019354562446"><ele>125.6</ele><time>2026-04-29T17:26:00Z</time></trkpt><trkpt lat="49.05221378831408" lon="-0.9417050301343818"><ele>126.0</ele><time>2026-04-29T17:26:01Z</time></trkpt><trkpt lat="49.05230755147972" lon="-0.9416118814083123"><ele>126.0</ele><time>2026-04-29T17:26:02Z</time></trkpt><trkpt lat="49.05240829471108" lon="-0.9415464549615084"><ele>126.0</ele><time>2026-04-29T17:26:03Z</time></trkpt><trkpt lat="49.05249455312461" lon="-0.9414596273905824"><ele>126.0</ele><time>2026-04-29T17:26:04Z</time></trkpt><trkpt lat="49.052572613366344" lon="-0.941380079612425"><ele>126.0</ele><time>2026-04-29T17:26:05Z</time></trkpt><trkpt lat="49.05261047230121" lon="-0.9412926393662511"><ele>126.0</ele><time>2026-04-29T17:26:06Z</time></trkpt><trkpt lat="49.05264536701552" lon="-0.9411962281389765"><ele>126.0</ele><time>2026-04-29T17:26:07Z</time></trkpt><trkpt lat="49.052673258126845" lon="-0.9411087725457614"><ele>125.0</ele><time>2026-04-29T17:26:08Z</time></trkpt><trkpt lat="49.05270878379139" lon="-0.9410097715402519"><ele>124.0</ele><time>2026-04-29T17:26:09Z</time></trkpt><trkpt lat="49.05274194986649" lon="-0.9408642892708622"><ele>123.0</ele><time>2026-04-29T17:26:11Z</time></trkpt><trkpt lat="49.05280191432545" lon="-0.9406845505543143"><ele>122.0</ele><time>2026-04-29T17:26:13Z</time></trkpt><trkpt lat="49.052820162879726" lon="-0.9405832974454751"><ele>121.0</ele><time>2026-04-29T17:26:14Z</time></trkpt><trkpt lat="49.0528413914717" lon="-0.9404864377847283"><ele>120.0</ele><time>2026-04-29T17:26:15Z</time></trkpt><trkpt lat="49.05285931996631" lon="-0.9403850068853509"><ele>120.0</ele><time>2026-04-29T17:26:16Z</time></trkpt><trkpt lat="49.052880140105" lon="-0.94026119620651"><ele>120.0</ele><time>2026-04-29T17:26:17Z</time></trkpt><trkpt lat="49.05290076116158" lon="-0.9401403285397392"><ele>120.0</ele><time>2026-04-29T17:26:18Z</time></trkpt><trkpt lat="49.05290720549364" lon="-0.9400202518195706"><ele>120.0</ele><time>2026-04-29T17:26:19Z</time></trkpt><trkpt lat="49.05290895130925" lon="-0.9399033494801824"><ele>120.0</ele><time>2026-04-29T17:26:20Z</time></trkpt><trkpt lat="49.05291669115944" lon="-0.9397785113805035"><ele>120.0</ele><time>2026-04-29T17:26:21Z</time></trkpt><trkpt lat="49.05291277914414" lon="-0.9396758276157723"><ele>120.0</ele><time>2026-04-29T17:26:22Z</time></trkpt><trkpt lat="49.05295031961644" lon="-0.9395514877916583"><ele>120.0</ele><time>2026-04-29T17:26:23Z</time></trkpt><trkpt lat="49.05296286955307" lon="-0.9394514937542813"><ele>120.0</ele><time>2026-04-29T17:26:24Z</time></trkpt><trkpt lat="49.052970555765" lon="-0.9393389560878066"><ele>120.0</ele><time>2026-04-29T17:26:25Z</time></trkpt><trkpt lat="49.05298113052468" lon="-0.9392216596709007"><ele>120.0</ele><time>2026-04-29T17:26:26Z</time></trkpt><trkpt lat="49.05299673935557" lon="-0.9391068613396458"><ele>120.0</ele><time>2026-04-29T17:26:27Z</time></trkpt><trkpt lat="49.053004958044504" lon="-0.9390005893789705"><ele>120.25</ele><time>2026-04-29T17:26:28Z</time></trkpt><trkpt lat="49.05307403078368" lon="-0.938825650802339"><ele>120.5</ele><time>2026-04-29T17:26:30Z</time></trkpt><trkpt lat="49.05314483785727" lon="-0.9386894730506972"><ele>120.75</ele><time>2026-04-29T17:26:32Z</time></trkpt><trkpt lat="49.05321380766201" lon="-0.9385993954894082"><ele>121.0</ele><time>2026-04-29T17:26:34Z</time></trkpt><trkpt lat="49.05331689653165" lon="-0.9385286543580131"><ele>122.33333333333334</ele><time>2026-04-29T17:26:36Z</time></trkpt><trkpt lat="49.053373873491275" lon="-0.9384522286511039"><ele>123.66666666666667</ele><time>2026-04-29T17:26:37Z</time></trkpt><trkpt lat="49.05342421875207" lon="-0.9383779746968632"><ele>125.0</ele><time>2026-04-29T17:26:38Z</time></trkpt><trkpt lat="49.0534677233739" lon="-0.9382946103780834"><ele>126.33333333333334</ele><time>2026-04-29T17:26:39Z</time></trkpt><trkpt lat="49.053505657216895" lon="-0.9382174075306242"><ele>127.66666666666667</ele><time>2026-04-29T17:26:40Z</time></trkpt><trkpt lat="49.053562155557685" lon="-0.9381151936685539"><ele>129.0</ele><time>2026-04-29T17:26:41Z</time></trkpt><trkpt lat="49.05362488504" lon="-0.9380241506303331"><ele>129.0</ele><time>2026-04-29T17:26:42Z</time></trkpt><trkpt lat="49.053663158926675" lon="-0.9379338518585735"><ele>129.0</ele><time>2026-04-29T17:26:43Z</time></trkpt><trkpt lat="49.053715101489935" lon="-0.9378557470271832"><ele>129.0</ele><time>2026-04-29T17:26:44Z</time></trkpt><trkpt lat="49.053774246110635" lon="-0.937781036619479"><ele>129.0</ele><time>2026-04-29T17:26:45Z</time></trkpt><trkpt lat="49.053849825338624" lon="-0.9376561320252291"><ele>129.0</ele><time>2026-04-29T17:26:47Z</time></trkpt><trkpt lat="49.05391816113139" lon="-0.9375334221178663"><ele>129.0</ele><time>2026-04-29T17:26:49Z</time></trkpt><trkpt lat="49.05396265199151" lon="-0.9374607320402686"><ele>128.5</ele><time>2026-04-29T17:26:50Z</time></trkpt><trkpt lat="49.054008706071606" lon="-0.9373726162263339"><ele>128.0</ele><time>2026-04-29T17:26:51Z</time></trkpt><trkpt lat="49.05405977995706" lon="-0.9372826453408873"><ele>127.5</ele><time>2026-04-29T17:26:52Z</time></trkpt><trkpt lat="49.054112902216495" lon="-0.9372026651720516"><ele>127.0</ele><time>2026-04-29T17:26:53Z</time></trkpt><trkpt lat="49.054178165995815" lon="-0.9371079875071248"><ele>126.5</ele><time>2026-04-29T17:26:54Z</time></trkpt><trkpt lat="49.05423426572458" lon="-0.9370089994562035"><ele>126.0</ele><time>2026-04-29T17:26:55Z</time></trkpt><trkpt lat="49.05427815313084" lon="-0.9369349162064605"><ele>126.83333333333333</ele><time>2026-04-29T17:26:56Z</time></trkpt><trkpt lat="49.05433926458335" lon="-0.9368517945177108"><ele>127.66666666666666</ele><time>2026-04-29T17:26:57Z</time></trkpt><trkpt lat="49.05440642742525" lon="-0.9367702651460941"><ele>128.5</ele><time>2026-04-29T17:26:58Z</time></trkpt><trkpt lat="49.0544741298778" lon="-0.9366859775346957"><ele>129.33333333333331</ele><time>2026-04-29T17:26:59Z</time></trkpt><trkpt lat="49.05452397757208" lon="-0.9366059144228347"><ele>130.16666666666666</ele><time>2026-04-29T17:27:00Z</time></trkpt><trkpt lat="49.05458893696745" lon="-0.9365338160975207"><ele>131.0</ele><time>2026-04-29T17:27:02Z</time></trkpt><trkpt lat="49.05462917604553" lon="-0.9363891698368515"><ele>131.0</ele><time>2026-04-29T17:27:04Z</time></trkpt><trkpt lat="49.054670419826394" lon="-0.9362888301253063"><ele>131.0</ele><time>2026-04-29T17:27:05Z</time></trkpt><trkpt lat="49.05471903975421" lon="-0.9361691329275598"><ele>131.0</ele><time>2026-04-29T17:27:06Z</time></trkpt><trkpt lat="49.05478128226619" lon="-0.9360596862510857"><ele>131.0</ele><time>2026-04-29T17:27:07Z</time></trkpt><trkpt lat="49.05483287401602" lon="-0.9359348933290116"><ele>131.0</ele><time>2026-04-29T17:27:08Z</time></trkpt><trkpt lat="49.054880187784114" lon="-0.9358100025989823"><ele>131.6</ele><time>2026-04-29T17:27:09Z</time></trkpt><trkpt lat="49.05491330816037" lon="-0.9356890674116427"><ele>132.2</ele><time>2026-04-29T17:27:10Z</time></trkpt><trkpt lat="49.05496852804103" lon="-0.9355551928212132"><ele>132.8</ele><time>2026-04-29T17:27:11Z</time></trkpt><trkpt lat="49.05502414997055" lon="-0.9354210260009436"><ele>133.4</ele><time>2026-04-29T17:27:12Z</time></trkpt><trkpt lat="49.05508025476248" lon="-0.9352853946917594"><ele>134.0</ele><time>2026-04-29T17:27:13Z</time></trkpt><trkpt lat="49.05512598669232" lon="-0.9351735015025333"><ele>134.0</ele><time>2026-04-29T17:27:14Z</time></trkpt><trkpt lat="49.0551818407001" lon="-0.9350640875451989"><ele>134.0</ele><time>2026-04-29T17:27:15Z</time></trkpt><trkpt lat="49.05523267542278" lon="-0.9349440771928876"><ele>134.0</ele><time>2026-04-29T17:27:16Z</time></trkpt><trkpt lat="49.05527482590083" lon="-0.9348223120242359"><ele>134.0</ele><time>2026-04-29T17:27:17Z</time></trkpt><trkpt lat="49.05528988060068" lon="-0.9346786015379674"><ele>134.0</ele><time>2026-04-29T17:27:18Z</time></trkpt><trkpt lat="49.055334707383736" lon="-0.9345353075492443"><ele>133.4</ele><time>2026-04-29T17:27:19Z</time></trkpt><trkpt lat="49.05539662182594" lon="-0.9344229823211002"><ele>132.8</ele><time>2026-04-29T17:27:20Z</time></trkpt><trkpt lat="49.05546158220035" lon="-0.9343860178803286"><ele>132.2</ele><time>2026-04-29T17:27:21Z</time></trkpt><trkpt lat="49.0555540205416" lon="-0.9343966890290412"><ele>131.6</ele><time>2026-04-29T17:27:22Z</time></trkpt><trkpt lat="49.05564856020908" lon="-0.9343484412887901"><ele>131.0</ele><time>2026-04-29T17:27:23Z</time></trkpt><trkpt lat="49.055730718775884" lon="-0.9342623950488915"><ele>130.6</ele><time>2026-04-29T17:27:24Z</time></trkpt><trkpt lat="49.05578153692223" lon="-0.9341945644883932"><ele>130.2</ele><time>2026-04-29T17:27:25Z</time></trkpt><trkpt lat="49.05588616628252" lon="-0.9340638869360244"><ele>129.8</ele><time>2026-04-29T17:27:26Z</time></trkpt><trkpt lat="49.055959063530935" lon="-0.9339429644483408"><ele>129.4</ele><time>2026-04-29T17:27:27Z</time></trkpt><trkpt lat="49.05601987252023" lon="-0.9338229120357708"><ele>129.0</ele><time>2026-04-29T17:27:28Z</time></trkpt><trkpt lat="49.05607460804961" lon="-0.9337429838532054"><ele>129.83333333333334</ele><time>2026-04-29T17:27:29Z</time></trkpt><trkpt lat="49.05613891367412" lon="-0.933628944141771"><ele>130.66666666666666</ele><time>2026-04-29T17:27:31Z</time></trkpt><trkpt lat="49.05617719091846" lon="-0.9335222654522322"><ele>131.5</ele><time>2026-04-29T17:27:56Z</time></trkpt><trkpt lat="49.05619622318009" lon="-0.9333939692007196"><ele>132.33333333333331</ele><time>2026-04-29T17:27:58Z</time></trkpt><trkpt lat="49.056227181407735" lon="-0.9332734588798292"><ele>133.16666666666666</ele><time>2026-04-29T17:27:59Z</time></trkpt><trkpt lat="49.056280238377575" lon="-0.9331631791514203"><ele>134.0</ele><time>2026-04-29T17:28:00Z</time></trkpt><trkpt lat="49.05631117705828" lon="-0.9330173774398925"><ele>134.0</ele><time>2026-04-29T17:28:01Z</time></trkpt><trkpt lat="49.056355616100205" lon="-0.9328873295224516"><ele>134.0</ele><time>2026-04-29T17:28:02Z</time></trkpt><trkpt lat="49.05641600283643" lon="-0.9327110506965974"><ele>134.0</ele><time>2026-04-29T17:28:03Z</time></trkpt><trkpt lat="49.05647270743082" lon="-0.932546442781033"><ele>134.0</ele><time>2026-04-29T17:28:04Z</time></trkpt><trkpt lat="49.0565295633906" lon="-0.9323813948633952"><ele>134.0</ele><time>2026-04-29T17:28:05Z</time></trkpt><trkpt lat="49.05658879050031" lon="-0.9322094641652666"><ele>134.0</ele><time>2026-04-29T17:28:06Z</time></trkpt><trkpt lat="49.05664818634092" lon="-0.9320370437999631"><ele>134.0</ele><time>2026-04-29T17:28:07Z</time></trkpt><trkpt lat="49.056707451967256" lon="-0.9318650011841341"><ele>134.0</ele><time>2026-04-29T17:28:08Z</time></trkpt><trkpt lat="49.05676448412981" lon="-0.931690097887874"><ele>135.0</ele><time>2026-04-29T17:28:09Z</time></trkpt><trkpt lat="49.05681319505949" lon="-0.9315043281612071"><ele>136.0</ele><time>2026-04-29T17:28:10Z</time></trkpt><trkpt lat="49.05685008765536" lon="-0.9313102761617309"><ele>137.0</ele><time>2026-04-29T17:28:11Z</time></trkpt><trkpt lat="49.056884952505925" lon="-0.93111015871018"><ele>138.0</ele><time>2026-04-29T17:28:12Z</time></trkpt><trkpt lat="49.05691694160969" lon="-0.9309080067339953"><ele>138.5</ele><time>2026-04-29T17:28:13Z</time></trkpt><trkpt lat="49.0569485810907" lon="-0.9306923819579489"><ele>139.0</ele><time>2026-04-29T17:28:14Z</time></trkpt><trkpt lat="49.0569808139804" lon="-0.9304727137108404"><ele>139.5</ele><time>2026-04-29T17:28:15Z</time></trkpt><trkpt lat="49.05701371251838" lon="-0.9302470359419532"><ele>140.0</ele><time>2026-04-29T17:28:16Z</time></trkpt><trkpt lat="49.05704221828825" lon="-0.9300241406998762"><ele>140.0</ele><time>2026-04-29T17:28:17Z</time></trkpt><trkpt lat="49.05706389975885" lon="-0.9297980199542422"><ele>140.0</ele><time>2026-04-29T17:28:18Z</time></trkpt><trkpt lat="49.0570834036944" lon="-0.9295661258730022"><ele>140.0</ele><time>2026-04-29T17:28:19Z</time></trkpt><trkpt lat="49.057103522001185" lon="-0.9293317739785514"><ele>139.66666666666666</ele><time>2026-04-29T17:28:20Z</time></trkpt><trkpt lat="49.057124807531444" lon="-0.9290946270122128"><ele>139.33333333333334</ele><time>2026-04-29T17:28:21Z</time></trkpt><trkpt lat="49.05714621969438" lon="-0.9288596115442157"><ele>139.0</ele><time>2026-04-29T17:28:22Z</time></trkpt><trkpt lat="49.05716949725468" lon="-0.9286145412397049"><ele>139.0</ele><time>2026-04-29T17:28:23Z</time></trkpt><trkpt lat="49.05719428511826" lon="-0.9283704080052609"><ele>139.0</ele><time>2026-04-29T17:28:24Z</time></trkpt><trkpt lat="49.05722005858219" lon="-0.9281273660969848"><ele>139.0</ele><time>2026-04-29T17:28:25Z</time></trkpt><trkpt lat="49.05724382179009" lon="-0.9278963506973393"><ele>139.0</ele><time>2026-04-29T17:28:26Z</time></trkpt><trkpt lat="49.05726262665356" lon="-0.9276984558346102"><ele>139.0</ele><time>2026-04-29T17:28:27Z</time></trkpt><trkpt lat="49.05727431807885" lon="-0.9275075375401711"><ele>139.0</ele><time>2026-04-29T17:28:28Z</time></trkpt><trkpt lat="49.05727710366174" lon="-0.9273447630664015"><ele>139.0</ele><time>2026-04-29T17:28:29Z</time></trkpt><trkpt lat="49.05727128884602" lon="-0.9271981892045265"><ele>138.83333333333334</ele><time>2026-04-29T17:28:30Z</time></trkpt><trkpt lat="49.05725691456726" lon="-0.9270529723210962"><ele>138.66666666666669</ele><time>2026-04-29T17:28:31Z</time></trkpt><trkpt lat="49.05722654666591" lon="-0.9269519370051016"><ele>138.5</ele><time>2026-04-29T17:28:32Z</time></trkpt><trkpt lat="49.05720355796826" lon="-0.9268611833082149"><ele>138.33333333333334</ele><time>2026-04-29T17:28:33Z</time></trkpt><trkpt lat="49.057121624311876" lon="-0.9268061441273072"><ele>138.16666666666666</ele><time>2026-04-29T17:28:35Z</time></trkpt><trkpt lat="49.0569952366205" lon="-0.9267888122653114"><ele>138.0</ele><time>2026-04-29T17:28:37Z</time></trkpt><trkpt lat="49.056906407846895" lon="-0.9267956583832363"><ele>138.0</ele><time>2026-04-29T17:28:38Z</time></trkpt><trkpt lat="49.05679800275187" lon="-0.9267997080133198"><ele>138.0</ele><time>2026-04-29T17:28:39Z</time></trkpt><trkpt lat="49.05669180356634" lon="-0.9267780951300303"><ele>138.0</ele><time>2026-04-29T17:28:40Z</time></trkpt><trkpt lat="49.056562964375004" lon="-0.9267487517993847"><ele>138.0</ele><time>2026-04-29T17:28:41Z</time></trkpt><trkpt lat="49.05641641581317" lon="-0.9267325759883406"><ele>136.75</ele><time>2026-04-29T17:28:42Z</time></trkpt><trkpt lat="49.05626666668859" lon="-0.926715112454764"><ele>135.5</ele><time>2026-04-29T17:28:43Z</time></trkpt><trkpt lat="49.05611572494595" lon="-0.9266975350075649"><ele>134.25</ele><time>2026-04-29T17:28:44Z</time></trkpt><trkpt lat="49.05596866840927" lon="-0.9266778089717231"><ele>133.0</ele><time>2026-04-29T17:28:45Z</time></trkpt><trkpt lat="49.05581348732903" lon="-0.9266569064832424"><ele>132.66666666666669</ele><time>2026-04-29T17:28:46Z</time></trkpt><trkpt lat="49.05566332366167" lon="-0.926623155742472"><ele>132.33333333333334</ele><time>2026-04-29T17:28:47Z</time></trkpt><trkpt lat="49.05550422602596" lon="-0.9266040249262445"><ele>132.0</ele><time>2026-04-29T17:28:48Z</time></trkpt><trkpt lat="49.05535105023452" lon="-0.9265896217816986"><ele>132.0</ele><time>2026-04-29T17:28:49Z</time></trkpt><trkpt lat="49.05519773759509" lon="-0.9265932044356876"><ele>132.0</ele><time>2026-04-29T17:28:50Z</time></trkpt><trkpt lat="49.05504687920966" lon="-0.926586140675066"><ele>132.0</ele><time>2026-04-29T17:28:51Z</time></trkpt><trkpt lat="49.05489587623797" lon="-0.9265870130404135"><ele>131.66666666666666</ele><time>2026-04-29T17:28:52Z</time></trkpt><trkpt lat="49.05473687944099" lon="-0.9265706838461031"><ele>131.33333333333331</ele><time>2026-04-29T17:28:53Z</time></trkpt><trkpt lat="49.05458339748916" lon="-0.9265752581130828"><ele>131.0</ele><time>2026-04-29T17:28:54Z</time></trkpt><trkpt lat="49.054445746244674" lon="-0.9266272327760345"><ele>131.0</ele><time>2026-04-29T17:28:55Z</time></trkpt><trkpt lat="49.054319372521036" lon="-0.926691517549761"><ele>131.0</ele><time>2026-04-29T17:28:56Z</time></trkpt><trkpt lat="49.05419823893827" lon="-0.9267837258424884"><ele>131.0</ele><time>2026-04-29T17:28:57Z</time></trkpt><trkpt lat="49.05408440794912" lon="-0.9269078441423403"><ele>131.0</ele><time>2026-04-29T17:28:58Z</time></trkpt><trkpt lat="49.05398437654746" lon="-0.9270276097080267"><ele>131.66666666666666</ele><time>2026-04-29T17:28:59Z</time></trkpt><trkpt lat="49.05384942639396" lon="-0.9271502468440057"><ele>132.33333333333334</ele><time>2026-04-29T17:29:00Z</time></trkpt><trkpt lat="49.05371003875062" lon="-0.9272977111677445"><ele>133.0</ele><time>2026-04-29T17:29:01Z</time></trkpt><trkpt lat="49.05357461731164" lon="-0.9273309491807936"><ele>133.0</ele><time>2026-04-29T17:29:02Z</time></trkpt><trkpt lat="49.053421957123696" lon="-0.9273812829234775"><ele>133.0</ele><time>2026-04-29T17:29:03Z</time></trkpt><trkpt lat="49.053270430453395" lon="-0.9274028553888894"><ele>133.0</ele><time>2026-04-29T17:29:04Z</time></trkpt><trkpt lat="49.05312149852991" lon="-0.9274301626400387"><ele>133.8</ele><time>2026-04-29T17:29:05Z</time></trkpt><trkpt lat="49.05299320508557" lon="-0.9274477933454904"><ele>134.60000000000002</ele><time>2026-04-29T17:29:06Z</time></trkpt><trkpt lat="49.05287870266947" lon="-0.9274549190941409"><ele>135.39999999999998</ele><time>2026-04-29T17:29:07Z</time></trkpt><trkpt lat="49.05278834327538" lon="-0.9274632943054445"><ele>136.2</ele><time>2026-04-29T17:29:08Z</time></trkpt><trkpt lat="49.0527082649275" lon="-0.9274629142113937"><ele>137.0</ele><time>2026-04-29T17:29:09Z</time></trkpt><trkpt lat="49.0526181378835" lon="-0.9274513018795816"><ele>137.0</ele><time>2026-04-29T17:29:11Z</time></trkpt><trkpt lat="49.05253288019204" lon="-0.9274543683523173"><ele>137.0</ele><time>2026-04-29T17:29:16Z</time></trkpt><trkpt lat="49.052464195454974" lon="-0.9274422708762762"><ele>137.0</ele><time>2026-04-29T17:29:17Z</time></trkpt><trkpt lat="49.05238119237488" lon="-0.9274344784579801"><ele>137.0</ele><time>2026-04-29T17:29:18Z</time></trkpt><trkpt lat="49.052297374053175" lon="-0.9274442675311011"><ele>137.0</ele><time>2026-04-29T17:29:19Z</time></trkpt><trkpt lat="49.05221189224525" lon="-0.9274748013107555"><ele>137.0</ele><time>2026-04-29T17:29:20Z</time></trkpt><trkpt lat="49.05212830599835" lon="-0.9275295379758757"><ele>137.33333333333331</ele><time>2026-04-29T17:29:21Z</time></trkpt><trkpt lat="49.05206120187036" lon="-0.927579453359368"><ele>137.66666666666666</ele><time>2026-04-29T17:29:22Z</time></trkpt><trkpt lat="49.05200825714698" lon="-0.9276496166856542"><ele>138.0</ele><time>2026-04-29T17:29:23Z</time></trkpt><trkpt lat="49.05190269103637" lon="-0.9276559230719781"><ele>138.33333333333334</ele><time>2026-04-29T17:29:24Z</time></trkpt><trkpt lat="49.05182422639895" lon="-0.9277019203291419"><ele>138.66666666666669</ele><time>2026-04-29T17:29:25Z</time></trkpt><trkpt lat="49.051748861017025" lon="-0.927780923152581"><ele>139.0</ele><time>2026-04-29T17:29:26Z</time></trkpt><trkpt lat="49.05166576489009" lon="-0.9278665920578345"><ele>139.6</ele><time>2026-04-29T17:29:27Z</time></trkpt><trkpt lat="49.051567152750245" lon="-0.9278823169017311"><ele>140.2</ele><time>2026-04-29T17:29:28Z</time></trkpt><trkpt lat="49.05145557402467" lon="-0.9278235772100961"><ele>140.79999999999998</ele><time>2026-04-29T17:29:29Z</time></trkpt><trkpt lat="49.0513345584945" lon="-0.9277660969924886"><ele>141.4</ele><time>2026-04-29T17:29:30Z</time></trkpt><trkpt lat="49.05123235921721" lon="-0.9277377382726631"><ele>142.0</ele><time>2026-04-29T17:29:31Z</time></trkpt><trkpt lat="49.05115484681864" lon="-0.9277725530049308"><ele>142.0</ele><time>2026-04-29T17:29:32Z</time></trkpt><trkpt lat="49.050992953953056" lon="-0.9277175862429018"><ele>142.0</ele><time>2026-04-29T17:29:34Z</time></trkpt><trkpt lat="49.0508958973767" lon="-0.9276781828392296"><ele>142.0</ele><time>2026-04-29T17:29:35Z</time></trkpt><trkpt lat="49.0507999993169" lon="-0.9276462244927006"><ele>142.0</ele><time>2026-04-29T17:29:36Z</time></trkpt><trkpt lat="49.0506787388062" lon="-0.9276492346823295"><ele>143.0</ele><time>2026-04-29T17:29:37Z</time></trkpt><trkpt lat="49.0505733043868" lon="-0.9276299700237489"><ele>144.0</ele><time>2026-04-29T17:29:38Z</time></trkpt><trkpt lat="49.05046559845205" lon="-0.9276137119188929"><ele>145.0</ele><time>2026-04-29T17:29:39Z</time></trkpt><trkpt lat="49.050369425638216" lon="-0.9276114271608445"><ele>146.0</ele><time>2026-04-29T17:29:40Z</time></trkpt><trkpt lat="49.050283251079016" lon="-0.9276183769699703"><ele>147.0</ele><time>2026-04-29T17:29:41Z</time></trkpt><trkpt lat="49.05019958107547" lon="-0.9276241868644467"><ele>147.0</ele><time>2026-04-29T17:29:42Z</time></trkpt><trkpt lat="49.05010958846909" lon="-0.9276305383676338"><ele>147.0</ele><time>2026-04-29T17:29:43Z</time></trkpt><trkpt lat="49.049993445562286" lon="-0.9276568265595819"><ele>147.0</ele><time>2026-04-29T17:29:44Z</time></trkpt><trkpt lat="49.04991978659616" lon="-0.9277092800936136"><ele>147.0</ele><time>2026-04-29T17:29:45Z</time></trkpt><trkpt lat="49.04982370337236" lon="-0.9277292646847998"><ele>147.0</ele><time>2026-04-29T17:29:46Z</time></trkpt><trkpt lat="49.04973734692558" lon="-0.9277518716422035"><ele>147.66666666666666</ele><time>2026-04-29T17:29:47Z</time></trkpt><trkpt lat="49.049679718792866" lon="-0.9278150126251823"><ele>148.33333333333334</ele><time>2026-04-29T17:29:48Z</time></trkpt><trkpt lat="49.04960776845724" lon="-0.9278708979347281"><ele>149.0</ele><time>2026-04-29T17:29:49Z</time></trkpt><trkpt lat="49.0495237824472" lon="-0.9278926069745905"><ele>149.66666666666669</ele><time>2026-04-29T17:29:50Z</time></trkpt><trkpt lat="49.04942834030117" lon="-0.9278751972403652"><ele>150.33333333333334</ele><time>2026-04-29T17:29:51Z</time></trkpt><trkpt lat="49.04937328298386" lon="-0.9279404599416224"><ele>151.0</ele><time>2026-04-29T17:29:52Z</time></trkpt><trkpt lat="49.04938154489047" lon="-0.9280588039918978"><ele>151.0</ele><time>2026-04-29T17:29:53Z</time></trkpt><trkpt lat="49.049389417644896" lon="-0.9282001667625006"><ele>151.0</ele><time>2026-04-29T17:29:54Z</time></trkpt><trkpt lat="49.04932003612541" lon="-0.9283080060037519"><ele>151.0</ele><time>2026-04-29T17:30:14Z</time></trkpt><trkpt lat="49.0493046405607" lon="-0.9285665208067632"><ele>151.0</ele><time>2026-04-29T17:30:16Z</time></trkpt><trkpt lat="49.04930801221153" lon="-0.9287017243353752"><ele>150.8</ele><time>2026-04-29T17:30:17Z</time></trkpt><trkpt lat="49.049289069340105" lon="-0.9288436183075414"><ele>150.6</ele><time>2026-04-29T17:30:18Z</time></trkpt><trkpt lat="49.04923560932042" lon="-0.9289486886948868"><ele>150.4</ele><time>2026-04-29T17:30:19Z</time></trkpt><trkpt lat="49.04921205523874" lon="-0.9291793976168484"><ele>150.2</ele><time>2026-04-29T17:30:21Z</time></trkpt><trkpt lat="49.04919323859042" lon="-0.9293283769106404"><ele>150.0</ele><time>2026-04-29T17:30:22Z</time></trkpt><trkpt lat="49.04915717385969" lon="-0.929465999922175"><ele>149.8</ele><time>2026-04-29T17:30:23Z</time></trkpt><trkpt lat="49.04913197101872" lon="-0.9296027631550309"><ele>149.6</ele><time>2026-04-29T17:30:24Z</time></trkpt><trkpt lat="49.049110030729075" lon="-0.9297685685223641"><ele>149.4</ele><time>2026-04-29T17:30:25Z</time></trkpt><trkpt lat="49.04908094031082" lon="-0.9299141849869028"><ele>149.2</ele><time>2026-04-29T17:30:26Z</time></trkpt><trkpt lat="49.04907230767422" lon="-0.9300425836310072"><ele>149.0</ele><time>2026-04-29T17:30:27Z</time></trkpt><trkpt lat="49.04905936977947" lon="-0.9301434598525904"><ele>149.0</ele><time>2026-04-29T17:30:28Z</time></trkpt><trkpt lat="49.04902638721294" lon="-0.9303142740579471"><ele>149.0</ele><time>2026-04-29T17:30:29Z</time></trkpt><trkpt lat="49.04899025279657" lon="-0.9304893019468626"><ele>149.0</ele><time>2026-04-29T17:30:30Z</time></trkpt><trkpt lat="49.04898036057076" lon="-0.9306254254331691"><ele>149.0</ele><time>2026-04-29T17:30:31Z</time></trkpt><trkpt lat="49.04894319858389" lon="-0.9307936107723017"><ele>149.0</ele><time>2026-04-29T17:30:32Z</time></trkpt><trkpt lat="49.04891747336515" lon="-0.9309644239165173"><ele>149.0</ele><time>2026-04-29T17:30:33Z</time></trkpt><trkpt lat="49.04888753574438" lon="-0.9310825869795455"><ele>149.0</ele><time>2026-04-29T17:30:34Z</time></trkpt><trkpt lat="49.04885566026171" lon="-0.9312190110068719"><ele>149.0</ele><time>2026-04-29T17:30:35Z</time></trkpt><trkpt lat="49.048839863062234" lon="-0.9313417426540394"><ele>149.0</ele><time>2026-04-29T17:30:36Z</time></trkpt><trkpt lat="49.04882434598671" lon="-0.9314491719497039"><ele>149.0</ele><time>2026-04-29T17:30:37Z</time></trkpt><trkpt lat="49.048832036312845" lon="-0.9315838016977558"><ele>149.0</ele><time>2026-04-29T17:30:38Z</time></trkpt><trkpt lat="49.048787733314434" lon="-0.9317398637032835"><ele>148.8</ele><time>2026-04-29T17:30:39Z</time></trkpt><trkpt lat="49.04877300443014" lon="-0.9318581991877932"><ele>148.60000000000002</ele><time>2026-04-29T17:30:40Z</time></trkpt><trkpt lat="49.04869844538661" lon="-0.9319733794156818"><ele>148.4</ele><time>2026-04-29T17:30:42Z</time></trkpt><trkpt lat="49.0487073181583" lon="-0.932156675871843"><ele>148.20000000000002</ele><time>2026-04-29T17:30:43Z</time></trkpt><trkpt lat="49.0486907043772" lon="-0.9323096204608196"><ele>148.0</ele><time>2026-04-29T17:30:44Z</time></trkpt><trkpt lat="49.04868437266139" lon="-0.9324524888236981"><ele>147.83333333333334</ele><time>2026-04-29T17:30:45Z</time></trkpt><trkpt lat="49.04866046614991" lon="-0.9325817164637125"><ele>147.66666666666669</ele><time>2026-04-29T17:30:46Z</time></trkpt><trkpt lat="49.048651079346236" lon="-0.9327281422670091"><ele>147.5</ele><time>2026-04-29T17:30:47Z</time></trkpt><trkpt lat="49.04862345954041" lon="-0.9328653804046027"><ele>147.33333333333334</ele><time>2026-04-29T17:30:48Z</time></trkpt><trkpt lat="49.048636228314095" lon="-0.9329808640908092"><ele>147.16666666666666</ele><time>2026-04-29T17:30:49Z</time></trkpt><trkpt lat="49.0486451446712" lon="-0.9331092694672329"><ele>147.0</ele><time>2026-04-29T17:30:50Z</time></trkpt><trkpt lat="49.048630248941215" lon="-0.9332497070268158"><ele>147.0</ele><time>2026-04-29T17:30:51Z</time></trkpt><trkpt lat="49.04861520958105" lon="-0.9333708842645796"><ele>147.0</ele><time>2026-04-29T17:30:52Z</time></trkpt><trkpt lat="49.04861455237602" lon="-0.9334697173629786"><ele>147.0</ele><time>2026-04-29T17:30:53Z</time></trkpt><trkpt lat="49.048603421493674" lon="-0.9336416149919077"><ele>147.0</ele><time>2026-04-29T17:30:55Z</time></trkpt><trkpt lat="49.04859635389454" lon="-0.9337424289899141"><ele>147.0</ele><time>2026-04-29T17:30:56Z</time></trkpt><trkpt lat="49.04860176403695" lon="-0.9338574503774751"><ele>147.0</ele><time>2026-04-29T17:30:57Z</time></trkpt><trkpt lat="49.04856198921812" lon="-0.9339478890435946"><ele>146.66666666666666</ele><time>2026-04-29T17:30:58Z</time></trkpt><trkpt lat="49.04854587924409" lon="-0.9340535574025656"><ele>146.33333333333334</ele><time>2026-04-29T17:30:59Z</time></trkpt><trkpt lat="49.04851697952318" lon="-0.9341585131909158"><ele>146.0</ele><time>2026-04-29T17:31:00Z</time></trkpt><trkpt lat="49.048501225724166" lon="-0.9342665167744576"><ele>145.66666666666669</ele><time>2026-04-29T17:31:01Z</time></trkpt><trkpt lat="49.04849300421504" lon="-0.9343822617795134"><ele>145.33333333333334</ele><time>2026-04-29T17:31:02Z</time></trkpt><trkpt lat="49.04847464869861" lon="-0.9344887574419278"><ele>145.0</ele><time>2026-04-29T17:31:03Z</time></trkpt><trkpt lat="49.04845344921912" lon="-0.9346577254114817"><ele>144.5</ele><time>2026-04-29T17:31:05Z</time></trkpt><trkpt lat="49.04842957273768" lon="-0.9347919459057782"><ele>144.0</ele><time>2026-04-29T17:31:08Z</time></trkpt><trkpt lat="49.04841403132119" lon="-0.9349249660930131"><ele>143.5</ele><time>2026-04-29T17:31:10Z</time></trkpt><trkpt lat="49.04840439212206" lon="-0.9350561947572442"><ele>143.0</ele><time>2026-04-29T17:31:12Z</time></trkpt><trkpt lat="49.04840489443452" lon="-0.9351727250565388"><ele>142.5</ele><time>2026-04-29T17:31:14Z</time></trkpt><trkpt lat="49.048370536476284" lon="-0.9352617489251666"><ele>142.0</ele><time>2026-04-29T17:31:17Z</time></trkpt><trkpt lat="49.04836303412874" lon="-0.9353732132901453"><ele>142.0</ele><time>2026-04-29T17:31:22Z</time></trkpt><trkpt lat="49.04832443740769" lon="-0.9355092542316228"><ele>142.0</ele><time>2026-04-29T17:31:26Z</time></trkpt><trkpt lat="49.0482978381225" lon="-0.9356021192495146"><ele>142.0</ele><time>2026-04-29T17:31:27Z</time></trkpt><trkpt lat="49.04828269279927" lon="-0.9357105756968243"><ele>142.0</ele><time>2026-04-29T17:31:29Z</time></trkpt><trkpt lat="49.0482697102637" lon="-0.9358215702318631"><ele>142.0</ele><time>2026-04-29T17:31:40Z</time></trkpt><trkpt lat="49.048245851385225" lon="-0.935948682708111"><ele>142.0</ele><time>2026-04-29T17:31:43Z</time></trkpt><trkpt lat="49.04822182339707" lon="-0.9360706964494406"><ele>142.0</ele><time>2026-04-29T17:31:46Z</time></trkpt><trkpt lat="49.04822286117936" lon="-0.9362031908494248"><ele>142.0</ele><time>2026-04-29T17:31:48Z</time></trkpt><trkpt lat="49.048205133290445" lon="-0.9363332927634037"><ele>142.0</ele><time>2026-04-29T17:31:50Z</time></trkpt><trkpt lat="49.0481809741004" lon="-0.9364911976894181"><ele>142.0</ele><time>2026-04-29T17:31:52Z</time></trkpt><trkpt lat="49.04816604999819" lon="-0.9366139686441761"><ele>142.0</ele><time>2026-04-29T17:31:53Z</time></trkpt><trkpt lat="49.04813805361849" lon="-0.9367389696872374"><ele>142.0</ele><time>2026-04-29T17:31:54Z</time></trkpt><trkpt lat="49.04809287892417" lon="-0.9369031032374169"><ele>141.79999999999998</ele><time>2026-04-29T17:31:56Z</time></trkpt><trkpt lat="49.04804104463349" lon="-0.9370861428867537"><ele>141.6</ele><time>2026-04-29T17:31:58Z</time></trkpt><trkpt lat="49.04799323962246" lon="-0.9372500047511902"><ele>141.39999999999998</ele><time>2026-04-29T17:32:00Z</time></trkpt><trkpt lat="49.047965109746464" lon="-0.9373403611880776"><ele>141.2</ele><time>2026-04-29T17:32:01Z</time></trkpt><trkpt lat="49.04792862373943" lon="-0.9374445481840952"><ele>141.0</ele><time>2026-04-29T17:32:02Z</time></trkpt><trkpt lat="49.04790094936157" lon="-0.9375356271610032"><ele>141.0</ele><time>2026-04-29T17:32:03Z</time></trkpt><trkpt lat="49.04785863745796" lon="-0.9376510587515985"><ele>141.0</ele><time>2026-04-29T17:32:04Z</time></trkpt><trkpt lat="49.04782065533962" lon="-0.9377283326768083"><ele>141.0</ele><time>2026-04-29T17:32:05Z</time></trkpt><trkpt lat="49.047794746741815" lon="-0.9378206645226539"><ele>141.0</ele><time>2026-04-29T17:32:06Z</time></trkpt><trkpt lat="49.047757139555664" lon="-0.9379977575937789"><ele>141.0</ele><time>2026-04-29T17:32:08Z</time></trkpt><trkpt lat="49.04767956769077" lon="-0.9381441385014019"><ele>141.0</ele><time>2026-04-29T17:32:10Z</time></trkpt><trkpt lat="49.04764640703518" lon="-0.9382370228774528"><ele>141.0</ele><time>2026-04-29T17:32:11Z</time></trkpt><trkpt lat="49.047596480311455" lon="-0.9384422154133223"><ele>141.0</ele><time>2026-04-29T17:32:13Z</time></trkpt><trkpt lat="49.04756027434225" lon="-0.9385672926689457"><ele>141.0</ele><time>2026-04-29T17:32:14Z</time></trkpt><trkpt lat="49.04751443689053" lon="-0.9386919562407099"><ele>141.0</ele><time>2026-04-29T17:32:15Z</time></trkpt><trkpt lat="49.04747254128124" lon="-0.9388110389938583"><ele>141.0</ele><time>2026-04-29T17:32:16Z</time></trkpt><trkpt lat="49.04744535645134" lon="-0.9389100580662195"><ele>141.0</ele><time>2026-04-29T17:32:17Z</time></trkpt><trkpt lat="49.04742331324839" lon="-0.9390048649217975"><ele>141.0</ele><time>2026-04-29T17:32:18Z</time></trkpt><trkpt lat="49.04733276720614" lon="-0.9392806658016847"><ele>141.0</ele><time>2026-04-29T17:32:22Z</time></trkpt><trkpt lat="49.04730539975925" lon="-0.939473905515085"><ele>141.0</ele><time>2026-04-29T17:32:24Z</time></trkpt><trkpt lat="49.047294706414654" lon="-0.9396582991547805"><ele>141.0</ele><time>2026-04-29T17:32:26Z</time></trkpt><trkpt lat="49.04727816231746" lon="-0.9398398519113564"><ele>141.0</ele><time>2026-04-29T17:32:28Z</time></trkpt><trkpt lat="49.0472741091961" lon="-0.9399376995175581"><ele>141.0</ele><time>2026-04-29T17:32:29Z</time></trkpt><trkpt lat="49.04726850879387" lon="-0.9400419176818632"><ele>141.0</ele><time>2026-04-29T17:32:30Z</time></trkpt><trkpt lat="49.047263137092926" lon="-0.9401598554393732"><ele>141.33333333333334</ele><time>2026-04-29T17:32:31Z</time></trkpt><trkpt lat="49.04725099160694" lon="-0.9402746452696273"><ele>141.66666666666666</ele><time>2026-04-29T17:32:32Z</time></trkpt><trkpt lat="49.04724796607565" lon="-0.940385506467275"><ele>142.0</ele><time>2026-04-29T17:32:33Z</time></trkpt><trkpt lat="49.04724020094189" lon="-0.9405001677048681"><ele>142.33333333333331</ele><time>2026-04-29T17:32:34Z</time></trkpt><trkpt lat="49.047219902446805" lon="-0.9406991387797679"><ele>142.66666666666666</ele><time>2026-04-29T17:32:36Z</time></trkpt><trkpt lat="49.04720976076711" lon="-0.9408208126597309"><ele>143.0</ele><time>2026-04-29T17:32:37Z</time></trkpt><trkpt lat="49.04719924119552" lon="-0.9409340911266209"><ele>143.0</ele><time>2026-04-29T17:32:38Z</time></trkpt><trkpt lat="49.04718628291844" lon="-0.9410575295783897"><ele>143.0</ele><time>2026-04-29T17:32:39Z</time></trkpt><trkpt lat="49.047161742371955" lon="-0.941191195631373"><ele>143.0</ele><time>2026-04-29T17:32:40Z</time></trkpt><trkpt lat="49.04715893689356" lon="-0.9413019834410838"><ele>143.0</ele><time>2026-04-29T17:32:41Z</time></trkpt><trkpt lat="49.047153667049606" lon="-0.9414271909828099"><ele>143.0</ele><time>2026-04-29T17:32:42Z</time></trkpt><trkpt lat="49.04714152137593" lon="-0.941537539009085"><ele>143.0</ele><time>2026-04-29T17:32:43Z</time></trkpt><trkpt lat="49.047129403951914" lon="-0.9416577537757197"><ele>143.0</ele><time>2026-04-29T17:32:44Z</time></trkpt><trkpt lat="49.04711529169218" lon="-0.9417603238557792"><ele>143.0</ele><time>2026-04-29T17:32:45Z</time></trkpt><trkpt lat="49.04710620409894" lon="-0.9418582114776173"><ele>143.0</ele><time>2026-04-29T17:32:46Z</time></trkpt><trkpt lat="49.047094994400275" lon="-0.9419653922172235"><ele>143.0</ele><time>2026-04-29T17:32:47Z</time></trkpt><trkpt lat="49.04707890676217" lon="-0.9420763180710138"><ele>143.0</ele><time>2026-04-29T17:32:48Z</time></trkpt><trkpt lat="49.04706308572726" lon="-0.9421705471649244"><ele>143.0</ele><time>2026-04-29T17:32:49Z</time></trkpt><trkpt lat="49.04703412876794" lon="-0.9423939098456954"><ele>142.99999999999997</ele><time>2026-04-29T17:32:51Z</time></trkpt><trkpt lat="49.04703055584947" lon="-0.9424993228203049"><ele>143.0</ele><time>2026-04-29T17:32:52Z</time></trkpt><trkpt lat="49.04701542877451" lon="-0.9426073430999042"><ele>143.0</ele><time>2026-04-29T17:32:53Z</time></trkpt><trkpt lat="49.04700119126864" lon="-0.9427022880974399"><ele>143.0</ele><time>2026-04-29T17:32:54Z</time></trkpt><trkpt lat="49.04699859718339" lon="-0.9428014942873794"><ele>143.0</ele><time>2026-04-29T17:32:55Z</time></trkpt><trkpt lat="49.04699079442205" lon="-0.9429013894483474"><ele>142.99999999999997</ele><time>2026-04-29T17:32:56Z</time></trkpt><trkpt lat="49.04698248124478" lon="-0.9430013657855878"><ele>143.0</ele><time>2026-04-29T17:32:57Z</time></trkpt><trkpt lat="49.04697397061447" lon="-0.9431024322331368"><ele>143.14285714285714</ele><time>2026-04-29T17:32:58Z</time></trkpt><trkpt lat="49.04695005021079" lon="-0.943207092866846"><ele>143.28571428571428</ele><time>2026-04-29T17:32:59Z</time></trkpt><trkpt lat="49.046945508848296" lon="-0.9433153744002774"><ele>143.42857142857144</ele><time>2026-04-29T17:33:00Z</time></trkpt><trkpt lat="49.046932405544496" lon="-0.9434250839663433"><ele>143.57142857142856</ele><time>2026-04-29T17:33:01Z</time></trkpt><trkpt lat="49.04691509620268" lon="-0.9435253360266174"><ele>143.71428571428572</ele><time>2026-04-29T17:33:02Z</time></trkpt><trkpt lat="49.046913744221555" lon="-0.9436313836978283"><ele>143.85714285714286</ele><time>2026-04-29T17:33:03Z</time></trkpt><trkpt lat="49.04690199490319" lon="-0.9437466129801928"><ele>144.0</ele><time>2026-04-29T17:33:04Z</time></trkpt><trkpt lat="49.046878875601585" lon="-0.943853025779498"><ele>144.0</ele><time>2026-04-29T17:33:05Z</time></trkpt><trkpt lat="49.046862427771764" lon="-0.9439534452185533"><ele>144.0</ele><time>2026-04-29T17:33:06Z</time></trkpt><trkpt lat="49.04685383770212" lon="-0.9440938997503779"><ele>144.0</ele><time>2026-04-29T17:33:08Z</time></trkpt><trkpt lat="49.046844822458155" lon="-0.9442228332168309"><ele>144.0</ele><time>2026-04-29T17:33:15Z</time></trkpt><trkpt lat="49.04681277693813" lon="-0.9443491909202428"><ele>144.0</ele><time>2026-04-29T17:33:17Z</time></trkpt><trkpt lat="49.04674194793367" lon="-0.944362489694783"><ele>144.0</ele><time>2026-04-29T17:34:14Z</time></trkpt><trkpt lat="49.04681447773663" lon="-0.9443162195824008"><ele>144.0</ele><time>2026-04-29T17:34:17Z</time></trkpt><trkpt lat="49.04687259557826" lon="-0.9442424162520178"><ele>144.0</ele><time>2026-04-29T17:34:20Z</time></trkpt><trkpt lat="49.046866559197404" lon="-0.9441211156749414"><ele>144.0</ele><time>2026-04-29T17:34:22Z</time></trkpt><trkpt lat="49.04688058367397" lon="-0.943946611892628"><ele>144.0</ele><time>2026-04-29T17:34:24Z</time></trkpt><trkpt lat="49.04687938914192" lon="-0.9438412390625431"><ele>144.0</ele><time>2026-04-29T17:34:25Z</time></trkpt><trkpt lat="49.04690486643517" lon="-0.9437042073226515"><ele>144.0</ele><time>2026-04-29T17:34:26Z</time></trkpt><trkpt lat="49.04693331682798" lon="-0.9435666717209419"><ele>144.0</ele><time>2026-04-29T17:34:27Z</time></trkpt><trkpt lat="49.046943003434905" lon="-0.9434224923545649"><ele>144.0</ele><time>2026-04-29T17:34:28Z</time></trkpt><trkpt lat="49.04695749465995" lon="-0.9432899594859678"><ele>144.0</ele><time>2026-04-29T17:34:29Z</time></trkpt><trkpt lat="49.04696579086527" lon="-0.9431641767697838"><ele>144.0</ele><time>2026-04-29T17:34:30Z</time></trkpt><trkpt lat="49.046970166831684" lon="-0.9430358142212693"><ele>144.0</ele><time>2026-04-29T17:34:31Z</time></trkpt><trkpt lat="49.04698074333376" lon="-0.9429111864158839"><ele>144.0</ele><time>2026-04-29T17:34:32Z</time></trkpt><trkpt lat="49.04698941808175" lon="-0.9427919526100957"><ele>144.0</ele><time>2026-04-29T17:34:33Z</time></trkpt><trkpt lat="49.04700714357654" lon="-0.9426567296638234"><ele>144.0</ele><time>2026-04-29T17:34:34Z</time></trkpt><trkpt lat="49.047022572100644" lon="-0.9425183316502981"><ele>144.0</ele><time>2026-04-29T17:34:35Z</time></trkpt><trkpt lat="49.04704318197725" lon="-0.9423903974978762"><ele>144.0</ele><time>2026-04-29T17:34:36Z</time></trkpt><trkpt lat="49.047057501613786" lon="-0.9422508508285061"><ele>144.0</ele><time>2026-04-29T17:34:37Z</time></trkpt><trkpt lat="49.04706352033985" lon="-0.9421233338701083"><ele>144.0</ele><time>2026-04-29T17:34:38Z</time></trkpt><trkpt lat="49.04708907790368" lon="-0.9420043964785078"><ele>143.83333333333334</ele><time>2026-04-29T17:34:39Z</time></trkpt><trkpt lat="49.04710910677076" lon="-0.9418799896601455"><ele>143.66666666666666</ele><time>2026-04-29T17:34:40Z</time></trkpt><trkpt lat="49.04711912173647" lon="-0.9417815153597451"><ele>143.5</ele><time>2026-04-29T17:34:41Z</time></trkpt><trkpt lat="49.04713444703079" lon="-0.941674638737457"><ele>143.33333333333331</ele><time>2026-04-29T17:34:42Z</time></trkpt><trkpt lat="49.047146701113576" lon="-0.9415568598220689"><ele>143.16666666666666</ele><time>2026-04-29T17:34:43Z</time></trkpt><trkpt lat="49.047160091940746" lon="-0.9414237303531777"><ele>143.0</ele><time>2026-04-29T17:34:44Z</time></trkpt><trkpt lat="49.04716825164342" lon="-0.94129184829292"><ele>143.0</ele><time>2026-04-29T17:34:45Z</time></trkpt><trkpt lat="49.04718614158007" lon="-0.9411494908862328"><ele>143.0</ele><time>2026-04-29T17:34:46Z</time></trkpt><trkpt lat="49.04719978913768" lon="-0.9410055435769267"><ele>143.0</ele><time>2026-04-29T17:34:47Z</time></trkpt><trkpt lat="49.047208465602836" lon="-0.9408729961666881"><ele>143.0</ele><time>2026-04-29T17:34:48Z</time></trkpt><trkpt lat="49.047223986684735" lon="-0.9407332636263462"><ele>143.0</ele><time>2026-04-29T17:34:49Z</time></trkpt><trkpt lat="49.04723633335655" lon="-0.940607777718189"><ele>143.0</ele><time>2026-04-29T17:34:50Z</time></trkpt><trkpt lat="49.04724988123691" lon="-0.9404873698313969"><ele>143.0</ele><time>2026-04-29T17:34:51Z</time></trkpt><trkpt lat="49.04725831262995" lon="-0.940374178812319"><ele>143.0</ele><time>2026-04-29T17:34:52Z</time></trkpt><trkpt lat="49.04726483020741" lon="-0.9402175279265479"><ele>143.0</ele><time>2026-04-29T17:34:53Z</time></trkpt><trkpt lat="49.047270237967695" lon="-0.9400800392965355"><ele>143.0</ele><time>2026-04-29T17:34:54Z</time></trkpt><trkpt lat="49.04728119573527" lon="-0.9399367030827198"><ele>143.0</ele><time>2026-04-29T17:34:55Z</time></trkpt><trkpt lat="49.04728734574495" lon="-0.9397871484779028"><ele>142.66666666666666</ele><time>2026-04-29T17:34:56Z</time></trkpt><trkpt lat="49.047282332318915" lon="-0.9396739287534229"><ele>142.33333333333331</ele><time>2026-04-29T17:34:57Z</time></trkpt><trkpt lat="49.04730640589116" lon="-0.9395325441747798"><ele>142.0</ele><time>2026-04-29T17:34:59Z</time></trkpt><trkpt lat="49.04732265054106" lon="-0.9394226307790886"><ele>141.66666666666666</ele><time>2026-04-29T17:35:00Z</time></trkpt><trkpt lat="49.04737351250944" lon="-0.9393280381161389"><ele>141.33333333333334</ele><time>2026-04-29T17:35:01Z</time></trkpt><trkpt lat="49.04735603630678" lon="-0.9391849239199015"><ele>141.0</ele><time>2026-04-29T17:35:03Z</time></trkpt><trkpt lat="49.04739281613261" lon="-0.9390643521940979"><ele>141.0</ele><time>2026-04-29T17:35:05Z</time></trkpt><trkpt lat="49.0474535665061" lon="-0.9389013939461516"><ele>141.0</ele><time>2026-04-29T17:35:07Z</time></trkpt><trkpt lat="49.0474859589912" lon="-0.9388189576565312"><ele>141.0</ele><time>2026-04-29T17:35:08Z</time></trkpt><trkpt lat="49.0475060008567" lon="-0.9387151830264832"><ele>141.0</ele><time>2026-04-29T17:35:09Z</time></trkpt><trkpt lat="49.04754191479733" lon="-0.9386015325521548"><ele>141.0</ele><time>2026-04-29T17:35:10Z</time></trkpt><trkpt lat="49.047588132387794" lon="-0.9384771100221684"><ele>141.0</ele><time>2026-04-29T17:35:11Z</time></trkpt><trkpt lat="49.04762174261607" lon="-0.9383834298779102"><ele>141.0</ele><time>2026-04-29T17:35:12Z</time></trkpt><trkpt lat="49.04765241106665" lon="-0.9382710210440464"><ele>141.0</ele><time>2026-04-29T17:35:13Z</time></trkpt><trkpt lat="49.04770448579581" lon="-0.9380519146645243"><ele>141.0</ele><time>2026-04-29T17:35:15Z</time></trkpt><trkpt lat="49.04777709118741" lon="-0.9378946474501534"><ele>141.0</ele><time>2026-04-29T17:35:17Z</time></trkpt><trkpt lat="49.04781276460672" lon="-0.9378070116449474"><ele>141.0</ele><time>2026-04-29T17:35:18Z</time></trkpt><trkpt lat="49.04781922576289" lon="-0.9376820389234031"><ele>141.0</ele><time>2026-04-29T17:35:19Z</time></trkpt><trkpt lat="49.04787228397518" lon="-0.9376008537947852"><ele>141.0</ele><time>2026-04-29T17:35:20Z</time></trkpt><trkpt lat="49.04791729509728" lon="-0.9374926767987626"><ele>141.0</ele><time>2026-04-29T17:35:21Z</time></trkpt><trkpt lat="49.04794396216601" lon="-0.9373968126818503"><ele>141.0</ele><time>2026-04-29T17:35:22Z</time></trkpt><trkpt lat="49.04798395526653" lon="-0.9372938479934495"><ele>141.0</ele><time>2026-04-29T17:35:23Z</time></trkpt><trkpt lat="49.04800764887957" lon="-0.9371995091364345"><ele>141.0</ele><time>2026-04-29T17:35:24Z</time></trkpt><trkpt lat="49.048032047062534" lon="-0.937089877385638"><ele>141.0</ele><time>2026-04-29T17:35:25Z</time></trkpt><trkpt lat="49.04807214532945" lon="-0.9369870688011169"><ele>141.0</ele><time>2026-04-29T17:35:26Z</time></trkpt><trkpt lat="49.04811381830973" lon="-0.9368246822546951"><ele>141.0</ele><time>2026-04-29T17:35:28Z</time></trkpt><trkpt lat="49.04813034361532" lon="-0.9367176339113246"><ele>141.0</ele><time>2026-04-29T17:35:41Z</time></trkpt><trkpt lat="49.04817278346444" lon="-0.9365434463284658"><ele>141.0</ele><time>2026-04-29T17:35:43Z</time></trkpt><trkpt lat="49.048188298745494" lon="-0.936440623933163"><ele>141.0</ele><time>2026-04-29T17:35:44Z</time></trkpt><trkpt lat="49.04820612599336" lon="-0.9362701637048612"><ele>141.16666666666666</ele><time>2026-04-29T17:35:46Z</time></trkpt><trkpt lat="49.048231253644346" lon="-0.936123744292628"><ele>141.33333333333334</ele><time>2026-04-29T17:36:07Z</time></trkpt><trkpt lat="49.048249332408275" lon="-0.9359689695142146"><ele>141.5</ele><time>2026-04-29T17:36:09Z</time></trkpt><trkpt lat="49.04827004423095" lon="-0.9358431726650603"><ele>141.66666666666669</ele><time>2026-04-29T17:36:12Z</time></trkpt><trkpt lat="49.04828035129152" lon="-0.9357482189396541"><ele>141.83333333333334</ele><time>2026-04-29T17:36:15Z</time></trkpt><trkpt lat="49.04829885056849" lon="-0.9356047384717777"><ele>142.0</ele><time>2026-04-29T17:36:17Z</time></trkpt><trkpt lat="49.048327992484836" lon="-0.9355113530274711"><ele>142.0</ele><time>2026-04-29T17:36:20Z</time></trkpt><trkpt lat="49.048355714865835" lon="-0.9354132619146635"><ele>142.0</ele><time>2026-04-29T17:36:33Z</time></trkpt><trkpt lat="49.04836394916178" lon="-0.9352842816510037"><ele>142.0</ele><time>2026-04-29T17:36:36Z</time></trkpt><trkpt lat="49.048396269859076" lon="-0.9351244063613727"><ele>142.0</ele><time>2026-04-29T17:36:38Z</time></trkpt><trkpt lat="49.04840535167122" lon="-0.9350116273512603"><ele>142.0</ele><time>2026-04-29T17:36:39Z</time></trkpt><trkpt lat="49.048430992456716" lon="-0.9348891562165385"><ele>142.0</ele><time>2026-04-29T17:36:41Z</time></trkpt><trkpt lat="49.04844037641369" lon="-0.9347661187787035"><ele>142.0</ele><time>2026-04-29T17:36:43Z</time></trkpt><trkpt lat="49.04845464004793" lon="-0.9346434609170304"><ele>142.0</ele><time>2026-04-29T17:36:54Z</time></trkpt><trkpt lat="49.04847631673411" lon="-0.9344813095989628"><ele>142.0</ele><time>2026-04-29T17:36:56Z</time></trkpt><trkpt lat="49.04850231231743" lon="-0.9342897246678628"><ele>142.0</ele><time>2026-04-29T17:36:58Z</time></trkpt><trkpt lat="49.04852675299685" lon="-0.9341674936967613"><ele>142.0</ele><time>2026-04-29T17:36:59Z</time></trkpt><trkpt lat="49.04853622308822" lon="-0.9340551592811517"><ele>142.5</ele><time>2026-04-29T17:37:00Z</time></trkpt><trkpt lat="49.04855581121259" lon="-0.9339511002228367"><ele>143.0</ele><time>2026-04-29T17:37:01Z</time></trkpt><trkpt lat="49.04857347900021" lon="-0.9338240896176839"><ele>143.5</ele><time>2026-04-29T17:37:02Z</time></trkpt><trkpt lat="49.04859269632943" lon="-0.9337125919706116"><ele>144.0</ele><time>2026-04-29T17:37:03Z</time></trkpt><trkpt lat="49.048603457826175" lon="-0.9336013687185153"><ele>144.5</ele><time>2026-04-29T17:37:04Z</time></trkpt><trkpt lat="49.04861292462664" lon="-0.9334184810205287"><ele>145.0</ele><time>2026-04-29T17:37:06Z</time></trkpt><trkpt lat="49.0486169004908" lon="-0.9333188128886422"><ele>145.33333333333334</ele><time>2026-04-29T17:37:07Z</time></trkpt><trkpt lat="49.048639707657806" lon="-0.9331375188753251"><ele>145.66666666666669</ele><time>2026-04-29T17:37:09Z</time></trkpt><trkpt lat="49.04863247021439" lon="-0.9330208207792646"><ele>146.0</ele><time>2026-04-29T17:37:10Z</time></trkpt><trkpt lat="49.04863683781399" lon="-0.9328972625226581"><ele>146.33333333333334</ele><time>2026-04-29T17:37:11Z</time></trkpt><trkpt lat="49.048629337111564" lon="-0.932794482189607"><ele>146.66666666666666</ele><time>2026-04-29T17:37:12Z</time></trkpt><trkpt lat="49.04862379125915" lon="-0.9326703404174683"><ele>147.0</ele><time>2026-04-29T17:37:13Z</time></trkpt><trkpt lat="49.04864908514924" lon="-0.9325488438040916"><ele>147.16666666666666</ele><time>2026-04-29T17:37:14Z</time></trkpt><trkpt lat="49.048651651254715" lon="-0.9324172180448463"><ele>147.33333333333334</ele><time>2026-04-29T17:37:15Z</time></trkpt><trkpt lat="49.048662097043966" lon="-0.9323023920423781"><ele>147.5</ele><time>2026-04-29T17:37:16Z</time></trkpt><trkpt lat="49.048700704584206" lon="-0.9321901709779192"><ele>147.66666666666669</ele><time>2026-04-29T17:37:17Z</time></trkpt><trkpt lat="49.04871382261536" lon="-0.932059112714151"><ele>147.83333333333334</ele><time>2026-04-29T17:37:18Z</time></trkpt><trkpt lat="49.04873231232082" lon="-0.9319009886829576"><ele>148.0</ele><time>2026-04-29T17:37:19Z</time></trkpt><trkpt lat="49.04875676025839" lon="-0.9317566381775211"><ele>148.16666666666669</ele><time>2026-04-29T17:37:20Z</time></trkpt><trkpt lat="49.04878095024595" lon="-0.9316289032473275"><ele>148.33333333333334</ele><time>2026-04-29T17:37:21Z</time></trkpt><trkpt lat="49.04879338470755" lon="-0.9315223090830563"><ele>148.5</ele><time>2026-04-29T17:37:22Z</time></trkpt><trkpt lat="49.04880812644099" lon="-0.9314011965851172"><ele>148.66666666666666</ele><time>2026-04-29T17:37:23Z</time></trkpt><trkpt lat="49.04884898645936" lon="-0.9312929002890138"><ele>148.83333333333331</ele><time>2026-04-29T17:37:24Z</time></trkpt><trkpt lat="49.04885956679914" lon="-0.931137623792385"><ele>149.0</ele><time>2026-04-29T17:37:25Z</time></trkpt><trkpt lat="49.048889893381215" lon="-0.9310073682305926"><ele>149.0</ele><time>2026-04-29T17:37:26Z</time></trkpt><trkpt lat="49.048912839976964" lon="-0.9308730897796265"><ele>149.0</ele><time>2026-04-29T17:37:27Z</time></trkpt><trkpt lat="49.048912641460355" lon="-0.930754332154569"><ele>149.0</ele><time>2026-04-29T17:37:28Z</time></trkpt><trkpt lat="49.04895444954823" lon="-0.930620218626486"><ele>149.0</ele><time>2026-04-29T17:37:29Z</time></trkpt><trkpt lat="49.048977124045706" lon="-0.9304702407690614"><ele>149.0</ele><time>2026-04-29T17:37:30Z</time></trkpt><trkpt lat="49.048994685644914" lon="-0.9303472829772228"><ele>149.0</ele><time>2026-04-29T17:37:31Z</time></trkpt><trkpt lat="49.04903758712246" lon="-0.930170032973254"><ele>149.0</ele><time>2026-04-29T17:37:32Z</time></trkpt><trkpt lat="49.049058567858765" lon="-0.9299887532569134"><ele>149.0</ele><time>2026-04-29T17:37:33Z</time></trkpt><trkpt lat="49.0490847313796" lon="-0.9298393230427475"><ele>149.0</ele><time>2026-04-29T17:37:34Z</time></trkpt><trkpt lat="49.049095376786056" lon="-0.9297020728919917"><ele>149.0</ele><time>2026-04-29T17:37:35Z</time></trkpt><trkpt lat="49.049128223435616" lon="-0.9295226962703145"><ele>149.0</ele><time>2026-04-29T17:37:36Z</time></trkpt><trkpt lat="49.04916483253913" lon="-0.9293611905836705"><ele>149.0</ele><time>2026-04-29T17:37:37Z</time></trkpt><trkpt lat="49.04919357880605" lon="-0.929228596144836"><ele>149.0</ele><time>2026-04-29T17:37:38Z</time></trkpt><trkpt lat="49.04921390588058" lon="-0.9290891041145117"><ele>149.0</ele><time>2026-04-29T17:37:39Z</time></trkpt><trkpt lat="49.04923843964521" lon="-0.9289716711340468"><ele>149.0</ele><time>2026-04-29T17:37:40Z</time></trkpt><trkpt lat="49.04925667413646" lon="-0.9288298707816093"><ele>149.0</ele><time>2026-04-29T17:37:41Z</time></trkpt><trkpt lat="49.04929287805235" lon="-0.9286788338907145"><ele>149.16666666666666</ele><time>2026-04-29T17:37:42Z</time></trkpt><trkpt lat="49.049281933922146" lon="-0.9285638246320229"><ele>149.33333333333331</ele><time>2026-04-29T17:37:43Z</time></trkpt><trkpt lat="49.04931357776276" lon="-0.9284057572533796"><ele>149.5</ele><time>2026-04-29T17:37:44Z</time></trkpt><trkpt lat="49.04932460275852" lon="-0.9283043926983809"><ele>149.66666666666666</ele><time>2026-04-29T17:37:45Z</time></trkpt><trkpt lat="49.049310025810705" lon="-0.9282037199868335"><ele>149.83333333333334</ele><time>2026-04-29T17:38:04Z</time></trkpt><trkpt lat="49.0492231527034" lon="-0.9281712237100828"><ele>150.0</ele><time>2026-04-29T17:38:26Z</time></trkpt><trkpt lat="49.04915044587648" lon="-0.9281353873946665"><ele>150.66666666666666</ele><time>2026-04-29T17:38:27Z</time></trkpt><trkpt lat="49.04908345738145" lon="-0.9280990118904461"><ele>151.33333333333334</ele><time>2026-04-29T17:38:28Z</time></trkpt><trkpt lat="49.0490184508679" lon="-0.9280687077461572"><ele>152.0</ele><time>2026-04-29T17:38:29Z</time></trkpt><trkpt lat="49.04889857657487" lon="-0.9280236053871815"><ele>152.66666666666669</ele><time>2026-04-29T17:38:31Z</time></trkpt><trkpt lat="49.048786647937824" lon="-0.9280314298492056"><ele>153.33333333333334</ele><time>2026-04-29T17:38:33Z</time></trkpt><trkpt lat="49.04872148452035" lon="-0.9280851223450195"><ele>154.0</ele><time>2026-04-29T17:38:34Z</time></trkpt><trkpt lat="49.04864689190439" lon="-0.9281650125934112"><ele>154.0</ele><time>2026-04-29T17:38:35Z</time></trkpt><trkpt lat="49.04858791314161" lon="-0.9282015267673338"><ele>154.0</ele><time>2026-04-29T17:38:36Z</time></trkpt><trkpt lat="49.04848395679773" lon="-0.9282791990761556"><ele>154.0</ele><time>2026-04-29T17:38:38Z</time></trkpt><trkpt lat="49.04839587453771" lon="-0.9282581109308586"><ele>154.0</ele><time>2026-04-29T17:38:39Z</time></trkpt><trkpt lat="49.04833175311249" lon="-0.928282512590975"><ele>154.0</ele><time>2026-04-29T17:38:40Z</time></trkpt><trkpt lat="49.04826844568871" lon="-0.9283053489337268"><ele>154.0</ele><time>2026-04-29T17:38:41Z</time></trkpt><trkpt lat="49.0481971531549" lon="-0.9283423797127418"><ele>154.66666666666669</ele><time>2026-04-29T17:38:42Z</time></trkpt><trkpt lat="49.04812601387323" lon="-0.9283641393319872"><ele>155.33333333333334</ele><time>2026-04-29T17:38:43Z</time></trkpt><trkpt lat="49.04805847787511" lon="-0.9284027627472229"><ele>156.0</ele><time>2026-04-29T17:38:44Z</time></trkpt><trkpt lat="49.04799459470483" lon="-0.9284414650878192"><ele>156.66666666666666</ele><time>2026-04-29T17:38:45Z</time></trkpt><trkpt lat="49.04792218210703" lon="-0.9284669802928672"><ele>157.33333333333331</ele><time>2026-04-29T17:38:46Z</time></trkpt><trkpt lat="49.047848565877146" lon="-0.9285100497129186"><ele>158.0</ele><time>2026-04-29T17:38:47Z</time></trkpt><trkpt lat="49.04777077286111" lon="-0.928556629762415"><ele>158.0</ele><time>2026-04-29T17:38:48Z</time></trkpt><trkpt lat="49.04770236509634" lon="-0.9285953581431248"><ele>158.0</ele><time>2026-04-29T17:38:49Z</time></trkpt><trkpt lat="49.04761990593532" lon="-0.9286666453196838"><ele>158.0</ele><time>2026-04-29T17:38:51Z</time></trkpt><trkpt lat="49.04752631796189" lon="-0.9286544141632653"><ele>158.0</ele><time>2026-04-29T17:38:53Z</time></trkpt><trkpt lat="49.047442154531645" lon="-0.928608704891086"><ele>158.0</ele><time>2026-04-29T17:39:03Z</time></trkpt><trkpt lat="49.04757493784482" lon="-0.9286529816042018"><ele>158.0</ele><time>2026-04-29T17:39:17Z</time></trkpt><trkpt lat="49.04764371877826" lon="-0.9286531656232178"><ele>158.0</ele><time>2026-04-29T17:39:18Z</time></trkpt><trkpt lat="49.04770345242738" lon="-0.9285945468064772"><ele>158.0</ele><time>2026-04-29T17:39:19Z</time></trkpt><trkpt lat="49.04783721143137" lon="-0.9285048125718126"><ele>158.0</ele><time>2026-04-29T17:39:21Z</time></trkpt><trkpt lat="49.047935979689754" lon="-0.9284614036677424"><ele>158.0</ele><time>2026-04-29T17:39:22Z</time></trkpt><trkpt lat="49.04802630593717" lon="-0.9284040687804939"><ele>158.16666666666666</ele><time>2026-04-29T17:39:23Z</time></trkpt><trkpt lat="49.04810685180014" lon="-0.9283639151096753"><ele>158.33333333333331</ele><time>2026-04-29T17:39:24Z</time></trkpt><trkpt lat="49.04818284219211" lon="-0.9283115614799202"><ele>158.5</ele><time>2026-04-29T17:39:25Z</time></trkpt><trkpt lat="49.04825969298194" lon="-0.9282887786979369"><ele>158.66666666666666</ele><time>2026-04-29T17:39:26Z</time></trkpt><trkpt lat="49.04833767456618" lon="-0.9282618622069203"><ele>158.83333333333334</ele><time>2026-04-29T17:39:27Z</time></trkpt><trkpt lat="49.04842324844354" lon="-0.9282277128197303"><ele>159.0</ele><time>2026-04-29T17:39:28Z</time></trkpt><trkpt lat="49.04849975353558" lon="-0.9281904870075323"><ele>158.28571428571428</ele><time>2026-04-29T17:39:29Z</time></trkpt><trkpt lat="49.048570641037934" lon="-0.9281497913925884"><ele>157.57142857142858</ele><time>2026-04-29T17:39:30Z</time></trkpt><trkpt lat="49.048631335187274" lon="-0.928111364038538"><ele>156.85714285714286</ele><time>2026-04-29T17:39:31Z</time></trkpt><trkpt lat="49.048702976623844" lon="-0.9280733770681959"><ele>156.14285714285714</ele><time>2026-04-29T17:39:32Z</time></trkpt><trkpt lat="49.0487851873059" lon="-0.928033925579533"><ele>155.42857142857144</ele><time>2026-04-29T17:39:33Z</time></trkpt><trkpt lat="49.048863748545244" lon="-0.928023883869598"><ele>154.71428571428572</ele><time>2026-04-29T17:39:34Z</time></trkpt><trkpt lat="49.04892684939298" lon="-0.9280296976517892"><ele>154.0</ele><time>2026-04-29T17:39:35Z</time></trkpt><trkpt lat="49.04898635231475" lon="-0.9280611234757973"><ele>154.0</ele><time>2026-04-29T17:39:36Z</time></trkpt><trkpt lat="49.04905823175426" lon="-0.9281012042335605"><ele>154.0</ele><time>2026-04-29T17:39:37Z</time></trkpt><trkpt lat="49.04912500799175" lon="-0.928139850419752"><ele>154.0</ele><time>2026-04-29T17:39:38Z</time></trkpt><trkpt lat="49.0491998079884" lon="-0.9281737384094462"><ele>154.0</ele><time>2026-04-29T17:39:39Z</time></trkpt><trkpt lat="49.04926118625775" lon="-0.9282072423476705"><ele>154.0</ele><time>2026-04-29T17:39:40Z</time></trkpt><trkpt lat="49.04933937877328" lon="-0.9282374662165269"><ele>154.0</ele><time>2026-04-29T17:39:42Z</time></trkpt><trkpt lat="49.049360218696805" lon="-0.9281238995114883"><ele>154.0</ele><time>2026-04-29T17:39:44Z</time></trkpt><trkpt lat="49.04936601647256" lon="-0.9279858948041001"><ele>153.5</ele><time>2026-04-29T17:39:46Z</time></trkpt><trkpt lat="49.04942200204981" lon="-0.9279230863301866"><ele>153.0</ele><time>2026-04-29T17:41:41Z</time></trkpt><trkpt lat="49.049506153477395" lon="-0.9278629315555376"><ele>152.5</ele><time>2026-04-29T17:43:01Z</time></trkpt><trkpt lat="49.04957485846945" lon="-0.9278499422454405"><ele>152.0</ele><time>2026-04-29T17:43:02Z</time></trkpt><trkpt lat="49.04966756156833" lon="-0.9278107533416782"><ele>151.5</ele><time>2026-04-29T17:43:03Z</time></trkpt><trkpt lat="49.04976908428221" lon="-0.927784485907832"><ele>151.0</ele><time>2026-04-29T17:43:04Z</time></trkpt><trkpt lat="49.04987080348159" lon="-0.9277217620869991"><ele>150.33333333333334</ele><time>2026-04-29T17:43:05Z</time></trkpt><trkpt lat="49.04995886014668" lon="-0.9276797309104545"><ele>149.66666666666669</ele><time>2026-04-29T17:43:06Z</time></trkpt><trkpt lat="49.050052426444275" lon="-0.927637710288242"><ele>149.0</ele><time>2026-04-29T17:43:07Z</time></trkpt><trkpt lat="49.05011540266091" lon="-0.9276200036947037"><ele>148.33333333333334</ele><time>2026-04-29T17:43:08Z</time></trkpt><trkpt lat="49.05018894958375" lon="-0.9276050292438"><ele>147.66666666666666</ele><time>2026-04-29T17:43:09Z</time></trkpt><trkpt lat="49.050260287551055" lon="-0.9276182555110855"><ele>147.0</ele><time>2026-04-29T17:43:10Z</time></trkpt><trkpt lat="49.05034533087437" lon="-0.9276164092356668"><ele>147.0</ele><time>2026-04-29T17:43:11Z</time></trkpt><trkpt lat="49.05049856992878" lon="-0.9276541955543421"><ele>147.0</ele><time>2026-04-29T17:43:13Z</time></trkpt><trkpt lat="49.050588352660625" lon="-0.927667607665456"><ele>147.0</ele><time>2026-04-29T17:43:14Z</time></trkpt><trkpt lat="49.05065719422935" lon="-0.9276146096430722"><ele>147.0</ele><time>2026-04-29T17:43:15Z</time></trkpt><trkpt lat="49.050783084307334" lon="-0.9275805552844947"><ele>146.0</ele><time>2026-04-29T17:43:16Z</time></trkpt><trkpt lat="49.050901879676694" lon="-0.9276710040988481"><ele>145.0</ele><time>2026-04-29T17:43:17Z</time></trkpt><trkpt lat="49.05101316413131" lon="-0.9277066707330408"><ele>144.0</ele><time>2026-04-29T17:43:18Z</time></trkpt><trkpt lat="49.05110059211551" lon="-0.9277361873752864"><ele>143.0</ele><time>2026-04-29T17:43:19Z</time></trkpt><trkpt lat="49.051183456602224" lon="-0.9277602099325567"><ele>142.0</ele><time>2026-04-29T17:43:20Z</time></trkpt><trkpt lat="49.0512649870944" lon="-0.9277823496647505"><ele>142.0</ele><time>2026-04-29T17:43:21Z</time></trkpt><trkpt lat="49.05136212505292" lon="-0.9277959038565979"><ele>142.0</ele><time>2026-04-29T17:43:23Z</time></trkpt><trkpt lat="49.05147049828306" lon="-0.9278242496855981"><ele>142.0</ele><time>2026-04-29T17:43:25Z</time></trkpt><trkpt lat="49.051547565713264" lon="-0.9278560189696292"><ele>142.0</ele><time>2026-04-29T17:43:27Z</time></trkpt><trkpt lat="49.05162147813565" lon="-0.9278655245755003"><ele>142.0</ele><time>2026-04-29T17:43:31Z</time></trkpt><trkpt lat="49.051693641299494" lon="-0.9278635572958049"><ele>142.0</ele><time>2026-04-29T17:43:36Z</time></trkpt><trkpt lat="49.051782659295185" lon="-0.9278242156228468"><ele>141.83333333333334</ele><time>2026-04-29T17:43:39Z</time></trkpt><trkpt lat="49.05184635313341" lon="-0.9277216790865895"><ele>141.66666666666669</ele><time>2026-04-29T17:43:40Z</time></trkpt><trkpt lat="49.0519275671634" lon="-0.9276610934717957"><ele>141.5</ele><time>2026-04-29T17:43:41Z</time></trkpt><trkpt lat="49.05200542972799" lon="-0.9276224687719273"><ele>141.33333333333334</ele><time>2026-04-29T17:43:42Z</time></trkpt><trkpt lat="49.05208502999536" lon="-0.9275744689834322"><ele>141.16666666666666</ele><time>2026-04-29T17:43:43Z</time></trkpt><trkpt lat="49.0521534876992" lon="-0.9275563375532767"><ele>141.0</ele><time>2026-04-29T17:43:44Z</time></trkpt><trkpt lat="49.05223294936971" lon="-0.9274968582031927"><ele>141.0</ele><time>2026-04-29T17:43:45Z</time></trkpt><trkpt lat="49.05229976559229" lon="-0.9274653013717661"><ele>141.0</ele><time>2026-04-29T17:43:46Z</time></trkpt><trkpt lat="49.05236380338193" lon="-0.9274343690061846"><ele>141.0</ele><time>2026-04-29T17:43:47Z</time></trkpt><trkpt lat="49.05245121626287" lon="-0.927427164629932"><ele>141.0</ele><time>2026-04-29T17:43:49Z</time></trkpt><trkpt lat="49.052518449696485" lon="-0.9274154865798168"><ele>141.0</ele><time>2026-04-29T17:43:57Z</time></trkpt><trkpt lat="49.0526427981528" lon="-0.9274091838826699"><ele>141.0</ele><time>2026-04-29T17:43:58Z</time></trkpt><trkpt lat="49.05272971852871" lon="-0.9274081540446275"><ele>140.2</ele><time>2026-04-29T17:43:59Z</time></trkpt><trkpt lat="49.05283068022528" lon="-0.9274063015325069"><ele>139.39999999999998</ele><time>2026-04-29T17:44:00Z</time></trkpt><trkpt lat="49.05293838878373" lon="-0.9274025693605521"><ele>138.6</ele><time>2026-04-29T17:44:01Z</time></trkpt><trkpt lat="49.053050759644854" lon="-0.9274119343315946"><ele>137.79999999999998</ele><time>2026-04-29T17:44:02Z</time></trkpt><trkpt lat="49.05317001178542" lon="-0.9273681897240658"><ele>137.0</ele><time>2026-04-29T17:44:03Z</time></trkpt><trkpt lat="49.053294362251094" lon="-0.9273387046393144"><ele>136.0</ele><time>2026-04-29T17:44:04Z</time></trkpt><trkpt lat="49.053422078569994" lon="-0.9273084187803888"><ele>135.0</ele><time>2026-04-29T17:44:05Z</time></trkpt><trkpt lat="49.05355068085044" lon="-0.9272692375035005"><ele>134.0</ele><time>2026-04-29T17:44:06Z</time></trkpt><trkpt lat="49.053674888276895" lon="-0.9272165947810603"><ele>133.0</ele><time>2026-04-29T17:44:07Z</time></trkpt><trkpt lat="49.05379477070888" lon="-0.9271425714112068"><ele>133.0</ele><time>2026-04-29T17:44:08Z</time></trkpt><trkpt lat="49.05390044914486" lon="-0.9270451600341547"><ele>133.0</ele><time>2026-04-29T17:44:09Z</time></trkpt><trkpt lat="49.05400444588208" lon="-0.9269330232248673"><ele>133.0</ele><time>2026-04-29T17:44:10Z</time></trkpt><trkpt lat="49.05411211159513" lon="-0.9268158204602341"><ele>133.0</ele><time>2026-04-29T17:44:11Z</time></trkpt><trkpt lat="49.05422343269066" lon="-0.9267304680932779"><ele>132.5</ele><time>2026-04-29T17:44:12Z</time></trkpt><trkpt lat="49.054333468059895" lon="-0.9266341911021871"><ele>132.0</ele><time>2026-04-29T17:44:13Z</time></trkpt><trkpt lat="49.054456589539605" lon="-0.9265750325424569"><ele>131.5</ele><time>2026-04-29T17:44:14Z</time></trkpt><trkpt lat="49.054584953953324" lon="-0.926546392907388"><ele>131.0</ele><time>2026-04-29T17:44:15Z</time></trkpt><trkpt lat="49.054712940760034" lon="-0.9265334931866153"><ele>131.0</ele><time>2026-04-29T17:44:16Z</time></trkpt><trkpt lat="49.05484702589619" lon="-0.9265509426517875"><ele>131.0</ele><time>2026-04-29T17:44:17Z</time></trkpt><trkpt lat="49.054979881948114" lon="-0.9265624774210505"><ele>131.0</ele><time>2026-04-29T17:44:18Z</time></trkpt><trkpt lat="49.05511406425501" lon="-0.9265550498317034"><ele>131.0</ele><time>2026-04-29T17:44:19Z</time></trkpt><trkpt lat="49.055211928333335" lon="-0.9265582475127977"><ele>131.33333333333331</ele><time>2026-04-29T17:44:20Z</time></trkpt><trkpt lat="49.055391821592096" lon="-0.9265586653646332"><ele>131.66666666666666</ele><time>2026-04-29T17:44:21Z</time></trkpt><trkpt lat="49.05553756835564" lon="-0.9265611810478079"><ele>132.0</ele><time>2026-04-29T17:44:22Z</time></trkpt><trkpt lat="49.055674618034445" lon="-0.9265997286435913"><ele>132.25</ele><time>2026-04-29T17:44:23Z</time></trkpt><trkpt lat="49.05580650664102" lon="-0.9266298941472437"><ele>132.5</ele><time>2026-04-29T17:44:24Z</time></trkpt><trkpt lat="49.05594047529722" lon="-0.9266248819473287"><ele>132.75</ele><time>2026-04-29T17:44:25Z</time></trkpt><trkpt lat="49.056077088609506" lon="-0.9266450494037441"><ele>133.0</ele><time>2026-04-29T17:44:26Z</time></trkpt><trkpt lat="49.056200706191454" lon="-0.9266632983961756"><ele>133.0</ele><time>2026-04-29T17:44:27Z</time></trkpt><trkpt lat="49.056328362707696" lon="-0.9266821436273631"><ele>133.0</ele><time>2026-04-29T17:44:28Z</time></trkpt><trkpt lat="49.05645694791822" lon="-0.9267006205229336"><ele>133.0</ele><time>2026-04-29T17:44:29Z</time></trkpt><trkpt lat="49.05657924043509" lon="-0.9267169287360878"><ele>133.0</ele><time>2026-04-29T17:44:30Z</time></trkpt><trkpt lat="49.05669798887172" lon="-0.9267327643132307"><ele>134.25</ele><time>2026-04-29T17:44:31Z</time></trkpt><trkpt lat="49.056814277407526" lon="-0.9267457708282261"><ele>135.5</ele><time>2026-04-29T17:44:32Z</time></trkpt><trkpt lat="49.056930724308515" lon="-0.92674781783555"><ele>136.75</ele><time>2026-04-29T17:44:33Z</time></trkpt><trkpt lat="49.05704340190758" lon="-0.9267470667888232"><ele>138.0</ele><time>2026-04-29T17:44:34Z</time></trkpt><trkpt lat="49.057153801569555" lon="-0.9267777321289488"><ele>137.5</ele><time>2026-04-29T17:44:35Z</time></trkpt><trkpt lat="49.05725752920394" lon="-0.9267170400737904"><ele>137.0</ele><time>2026-04-29T17:44:36Z</time></trkpt><trkpt lat="49.05736709511542" lon="-0.926666580530681"><ele>136.5</ele><time>2026-04-29T17:44:37Z</time></trkpt><trkpt lat="49.0574763720289" lon="-0.9266162541635493"><ele>136.0</ele><time>2026-04-29T17:44:38Z</time></trkpt><trkpt lat="49.05758884167514" lon="-0.9265644574361849"><ele>137.0</ele><time>2026-04-29T17:44:39Z</time></trkpt><trkpt lat="49.0577002559813" lon="-0.9265131466923028"><ele>138.0</ele><time>2026-04-29T17:44:40Z</time></trkpt><trkpt lat="49.057807037684384" lon="-0.926492109243562"><ele>139.0</ele><time>2026-04-29T17:44:41Z</time></trkpt><trkpt lat="49.05789541851422" lon="-0.9264310352821715"><ele>140.0</ele><time>2026-04-29T17:44:42Z</time></trkpt><trkpt lat="49.057972123377645" lon="-0.9264255068918811"><ele>141.0</ele><time>2026-04-29T17:44:43Z</time></trkpt><trkpt lat="49.05805856085975" lon="-0.9263899628113468"><ele>141.0</ele><time>2026-04-29T17:44:45Z</time></trkpt><trkpt lat="49.05815159259858" lon="-0.926377958454974"><ele>141.0</ele><time>2026-04-29T17:44:47Z</time></trkpt><trkpt lat="49.05822391263782" lon="-0.9263955579823007"><ele>141.0</ele><time>2026-04-29T17:44:48Z</time></trkpt><trkpt lat="49.058308624183496" lon="-0.9263836732423354"><ele>141.0</ele><time>2026-04-29T17:44:49Z</time></trkpt><trkpt lat="49.05840131515322" lon="-0.9263537211663365"><ele>141.0</ele><time>2026-04-29T17:44:50Z</time></trkpt><trkpt lat="49.058502919876425" lon="-0.9263448212614281"><ele>141.0</ele><time>2026-04-29T17:44:51Z</time></trkpt><trkpt lat="49.05861308281908" lon="-0.9263466958896454"><ele>141.66666666666666</ele><time>2026-04-29T17:44:52Z</time></trkpt><trkpt lat="49.05871221295036" lon="-0.9263440202492341"><ele>142.33333333333334</ele><time>2026-04-29T17:44:53Z</time></trkpt><trkpt lat="49.05879307925117" lon="-0.9263037045032275"><ele>143.0</ele><time>2026-04-29T17:44:54Z</time></trkpt><trkpt lat="49.0588562837534" lon="-0.9263000879799997"><ele>143.66666666666669</ele><time>2026-04-29T17:44:55Z</time></trkpt><trkpt lat="49.0589311061538" lon="-0.9263000879757778"><ele>144.33333333333334</ele><time>2026-04-29T17:44:57Z</time></trkpt><trkpt lat="49.05901132450258" lon="-0.9262955863784571"><ele>145.0</ele><time>2026-04-29T17:45:03Z</time></trkpt><trkpt lat="49.05909789539118" lon="-0.9262260206861982"><ele>147.33333333333334</ele><time>2026-04-29T17:45:05Z</time></trkpt><trkpt lat="49.05920876993603" lon="-0.9258027266162475"><ele>149.66666666666666</ele><time>2026-04-29T17:45:08Z</time></trkpt><trkpt lat="49.059207539078066" lon="-0.92568596975651"><ele>152.0</ele><time>2026-04-29T17:45:10Z</time></trkpt><trkpt lat="49.05915572196306" lon="-0.9255165312519356"><ele>152.0</ele><time>2026-04-29T17:45:12Z</time></trkpt><trkpt lat="49.05914379908273" lon="-0.9254107308119902"><ele>152.0</ele><time>2026-04-29T17:45:13Z</time></trkpt><trkpt lat="49.05907217337128" lon="-0.925284747911464"><ele>152.0</ele><time>2026-04-29T17:45:14Z</time></trkpt><trkpt lat="49.05906216378676" lon="-0.9251814141209072"><ele>152.0</ele><time>2026-04-29T17:45:15Z</time></trkpt><trkpt lat="49.0591009354262" lon="-0.9250823079116542"><ele>152.0</ele><time>2026-04-29T17:45:16Z</time></trkpt><trkpt lat="49.05913390480929" lon="-0.9249549711183609"><ele>152.0</ele><time>2026-04-29T17:45:17Z</time></trkpt><trkpt lat="49.05915978464722" lon="-0.924830283297928"><ele>152.2</ele><time>2026-04-29T17:45:18Z</time></trkpt><trkpt lat="49.05917893297931" lon="-0.9246982782596787"><ele>152.39999999999998</ele><time>2026-04-29T17:45:19Z</time></trkpt><trkpt lat="49.05920922857785" lon="-0.9245496684145591"><ele>152.60000000000002</ele><time>2026-04-29T17:45:20Z</time></trkpt><trkpt lat="49.059233020661985" lon="-0.9244248329676716"><ele>152.8</ele><time>2026-04-29T17:45:21Z</time></trkpt><trkpt lat="49.05927570858589" lon="-0.9242454062292519"><ele>153.0</ele><time>2026-04-29T17:45:22Z</time></trkpt><trkpt lat="49.05928836349222" lon="-0.9240834488072773"><ele>153.5</ele><time>2026-04-29T17:45:23Z</time></trkpt><trkpt lat="49.05933188791061" lon="-0.9239235194281686"><ele>154.0</ele><time>2026-04-29T17:45:24Z</time></trkpt><trkpt lat="49.05935745832866" lon="-0.9237378012166543"><ele>154.5</ele><time>2026-04-29T17:45:25Z</time></trkpt><trkpt lat="49.059411756519474" lon="-0.9235509973326729"><ele>155.0</ele><time>2026-04-29T17:45:26Z</time></trkpt><trkpt lat="49.059440303179734" lon="-0.9233881881540922"><ele>155.0</ele><time>2026-04-29T17:45:27Z</time></trkpt><trkpt lat="49.05946281793931" lon="-0.9232005169413504"><ele>155.0</ele><time>2026-04-29T17:45:28Z</time></trkpt><trkpt lat="49.05949229041181" lon="-0.9230310890704121"><ele>155.0</ele><time>2026-04-29T17:45:29Z</time></trkpt><trkpt lat="49.05952100341176" lon="-0.9228477385541642"><ele>155.0</ele><time>2026-04-29T17:45:30Z</time></trkpt><trkpt lat="49.05954302775419" lon="-0.9226882949826117"><ele>155.0</ele><time>2026-04-29T17:45:31Z</time></trkpt><trkpt lat="49.0595798557587" lon="-0.9225236937068381"><ele>155.0</ele><time>2026-04-29T17:45:32Z</time></trkpt><trkpt lat="49.05958850215669" lon="-0.9223476640388831"><ele>155.0</ele><time>2026-04-29T17:45:33Z</time></trkpt><trkpt lat="49.05960749191038" lon="-0.922202487386515"><ele>155.0</ele><time>2026-04-29T17:45:34Z</time></trkpt><trkpt lat="49.05964068094568" lon="-0.9220765645591199"><ele>155.0</ele><time>2026-04-29T17:45:35Z</time></trkpt><trkpt lat="49.05964191416076" lon="-0.9219403388244929"><ele>155.0</ele><time>2026-04-29T17:45:36Z</time></trkpt><trkpt lat="49.05966066650769" lon="-0.9218144095390192"><ele>155.0</ele><time>2026-04-29T17:45:37Z</time></trkpt><trkpt lat="49.05969798141378" lon="-0.9216762292642766"><ele>155.0</ele><time>2026-04-29T17:45:38Z</time></trkpt><trkpt lat="49.059713577466745" lon="-0.9215279954347319"><ele>155.0</ele><time>2026-04-29T17:45:39Z</time></trkpt><trkpt lat="49.05973614344338" lon="-0.9213989712294859"><ele>155.0</ele><time>2026-04-29T17:45:40Z</time></trkpt><trkpt lat="49.05975506400222" lon="-0.9212719556492598"><ele>155.0</ele><time>2026-04-29T17:45:41Z</time></trkpt><trkpt lat="49.05976618410966" lon="-0.9211606663934656"><ele>155.0</ele><time>2026-04-29T17:45:42Z</time></trkpt><trkpt lat="49.059766282095254" lon="-0.9210473985418142"><ele>155.0</ele><time>2026-04-29T17:45:43Z</time></trkpt><trkpt lat="49.059789634305005" lon="-0.9209137263678522"><ele>155.0</ele><time>2026-04-29T17:45:44Z</time></trkpt><trkpt lat="49.059805950234036" lon="-0.9207764678486091"><ele>155.0</ele><time>2026-04-29T17:45:45Z</time></trkpt><trkpt lat="49.05982300303082" lon="-0.9206232498229783"><ele>155.0</ele><time>2026-04-29T17:45:47Z</time></trkpt><trkpt lat="49.05999828907327" lon="-0.9205437905497393"><ele>156.0</ele><time>2026-04-29T17:45:53Z</time></trkpt><trkpt lat="49.06006758638835" lon="-0.920534884609525"><ele>157.0</ele><time>2026-04-29T17:45:54Z</time></trkpt><trkpt lat="49.06014348071231" lon="-0.9205150904586261"><ele>158.0</ele><time>2026-04-29T17:45:55Z</time></trkpt><trkpt lat="49.06022251261522" lon="-0.9204855251555903"><ele>159.0</ele><time>2026-04-29T17:45:56Z</time></trkpt><trkpt lat="49.060300930235975" lon="-0.9204468347354182"><ele>160.0</ele><time>2026-04-29T17:45:57Z</time></trkpt><trkpt lat="49.06038351683181" lon="-0.9204031530241567"><ele>161.0</ele><time>2026-04-29T17:45:58Z</time></trkpt><trkpt lat="49.06048568991023" lon="-0.9203456323504475"><ele>161.0</ele><time>2026-04-29T17:45:59Z</time></trkpt><trkpt lat="49.06059943460997" lon="-0.920284181635092"><ele>161.0</ele><time>2026-04-29T17:46:00Z</time></trkpt><trkpt lat="49.060728817884986" lon="-0.9202429605021768"><ele>161.0</ele><time>2026-04-29T17:46:01Z</time></trkpt><trkpt lat="49.060845620301535" lon="-0.9201609487825563"><ele>161.0</ele><time>2026-04-29T17:46:02Z</time></trkpt><trkpt lat="49.06096661879115" lon="-0.9201156422369424"><ele>163.25</ele><time>2026-04-29T17:46:03Z</time></trkpt><trkpt lat="49.061060341234295" lon="-0.9200864705879054"><ele>165.5</ele><time>2026-04-29T17:46:04Z</time></trkpt><trkpt lat="49.06122797894151" lon="-0.9200713275341619"><ele>167.75</ele><time>2026-04-29T17:46:05Z</time></trkpt><trkpt lat="49.0613514769574" lon="-0.9200449947899515"><ele>170.0</ele><time>2026-04-29T17:46:06Z</time></trkpt><trkpt lat="49.06147197586054" lon="-0.9200054047533701"><ele>170.0</ele><time>2026-04-29T17:46:07Z</time></trkpt><trkpt lat="49.06159768012024" lon="-0.9199898510758326"><ele>170.0</ele><time>2026-04-29T17:46:08Z</time></trkpt><trkpt lat="49.06170928806204" lon="-0.9199508987439714"><ele>170.0</ele><time>2026-04-29T17:46:09Z</time></trkpt><trkpt lat="49.06181854195302" lon="-0.9198984281375536"><ele>170.0</ele><time>2026-04-29T17:46:10Z</time></trkpt><trkpt lat="49.06193089261507" lon="-0.9198650142606767"><ele>172.0</ele><time>2026-04-29T17:46:11Z</time></trkpt><trkpt lat="49.06204177261962" lon="-0.9198185997259444"><ele>174.0</ele><time>2026-04-29T17:46:12Z</time></trkpt><trkpt lat="49.06215525409423" lon="-0.9198004041920805"><ele>176.0</ele><time>2026-04-29T17:46:13Z</time></trkpt><trkpt lat="49.062271914713065" lon="-0.9197867189968363"><ele>178.0</ele><time>2026-04-29T17:46:14Z</time></trkpt><trkpt lat="49.062392297206955" lon="-0.9197832424113707"><ele>178.75</ele><time>2026-04-29T17:46:15Z</time></trkpt><trkpt lat="49.06251326191944" lon="-0.9197716022741156"><ele>179.5</ele><time>2026-04-29T17:46:16Z</time></trkpt><trkpt lat="49.06262838672254" lon="-0.9197718046022672"><ele>180.25</ele><time>2026-04-29T17:46:17Z</time></trkpt><trkpt lat="49.062737143678994" lon="-0.9197656711112556"><ele>181.0</ele><time>2026-04-29T17:46:18Z</time></trkpt><trkpt lat="49.06284532589503" lon="-0.9197659593120765"><ele>181.0</ele><time>2026-04-29T17:46:19Z</time></trkpt><trkpt lat="49.06295321478331" lon="-0.919759099105192"><ele>181.0</ele><time>2026-04-29T17:46:20Z</time></trkpt><trkpt lat="49.063066786659164" lon="-0.9197457842741522"><ele>181.0</ele><time>2026-04-29T17:46:21Z</time></trkpt><trkpt lat="49.06318533123712" lon="-0.9197415494898197"><ele>181.0</ele><time>2026-04-29T17:46:22Z</time></trkpt><trkpt lat="49.063306066162944" lon="-0.9197268285978689"><ele>181.0</ele><time>2026-04-29T17:46:23Z</time></trkpt><trkpt lat="49.063428236488804" lon="-0.9197204091906287"><ele>181.0</ele><time>2026-04-29T17:46:24Z</time></trkpt><trkpt lat="49.06354917947609" lon="-0.9197127177878339"><ele>181.0</ele><time>2026-04-29T17:46:25Z</time></trkpt><trkpt lat="49.063668432016" lon="-0.9196996150805103"><ele>181.0</ele><time>2026-04-29T17:46:26Z</time></trkpt><trkpt lat="49.063788247280065" lon="-0.9196933471136104"><ele>181.0</ele><time>2026-04-29T17:46:27Z</time></trkpt><trkpt lat="49.06389956116602" lon="-0.9196879665007274"><ele>181.0</ele><time>2026-04-29T17:46:28Z</time></trkpt><trkpt lat="49.06401205099605" lon="-0.9196790919485136"><ele>181.0</ele><time>2026-04-29T17:46:29Z</time></trkpt><trkpt lat="49.06412291750678" lon="-0.9196746930886914"><ele>181.0</ele><time>2026-04-29T17:46:30Z</time></trkpt><trkpt lat="49.06422887473858" lon="-0.9196595964716802"><ele>181.0</ele><time>2026-04-29T17:46:31Z</time></trkpt><trkpt lat="49.06432646029955" lon="-0.9196519294224401"><ele>180.8</ele><time>2026-04-29T17:46:32Z</time></trkpt><trkpt lat="49.06442515752642" lon="-0.9196191582518322"><ele>180.60000000000002</ele><time>2026-04-29T17:46:33Z</time></trkpt><trkpt lat="49.064523935747836" lon="-0.9196328874979315"><ele>180.4</ele><time>2026-04-29T17:46:34Z</time></trkpt><trkpt lat="49.064621335869866" lon="-0.9196185197318291"><ele>180.2</ele><time>2026-04-29T17:46:35Z</time></trkpt><trkpt lat="49.064719275500714" lon="-0.9196102058559029"><ele>180.0</ele><time>2026-04-29T17:46:36Z</time></trkpt><trkpt lat="49.064815231854496" lon="-0.9196032776746554"><ele>180.0</ele><time>2026-04-29T17:46:37Z</time></trkpt><trkpt lat="49.06491139951736" lon="-0.919590650864416"><ele>180.0</ele><time>2026-04-29T17:46:38Z</time></trkpt><trkpt lat="49.065005795016695" lon="-0.9195793828878442"><ele>180.0</ele><time>2026-04-29T17:46:39Z</time></trkpt><trkpt lat="49.06509883466386" lon="-0.9195665005944451"><ele>180.0</ele><time>2026-04-29T17:46:40Z</time></trkpt><trkpt lat="49.0651893722211" lon="-0.9195562212828841"><ele>180.0</ele><time>2026-04-29T17:46:41Z</time></trkpt><trkpt lat="49.06526872451871" lon="-0.9195439532877233"><ele>179.4</ele><time>2026-04-29T17:46:42Z</time></trkpt><trkpt lat="49.06533965725361" lon="-0.9195324361932824"><ele>178.8</ele><time>2026-04-29T17:46:43Z</time></trkpt><trkpt lat="49.06545345125754" lon="-0.9195077190075683"><ele>178.2</ele><time>2026-04-29T17:46:45Z</time></trkpt><trkpt lat="49.06554426055651" lon="-0.9194763449462374"><ele>177.6</ele><time>2026-04-29T17:46:47Z</time></trkpt><trkpt lat="49.06564050471732" lon="-0.9194384536551451"><ele>177.0</ele><time>2026-04-29T17:46:49Z</time></trkpt><trkpt lat="49.065746108198645" lon="-0.9193971126806209"><ele>176.39999999999998</ele><time>2026-04-29T17:46:51Z</time></trkpt><trkpt lat="49.06584409843227" lon="-0.9193490920783541"><ele>175.79999999999998</ele><time>2026-04-29T17:46:53Z</time></trkpt><trkpt lat="49.06596841006866" lon="-0.9192932412418835"><ele>175.2</ele><time>2026-04-29T17:46:55Z</time></trkpt><trkpt lat="49.06604007192671" lon="-0.9192618386949925"><ele>174.6</ele><time>2026-04-29T17:46:56Z</time></trkpt><trkpt lat="49.06611609281238" lon="-0.9192224615950352"><ele>174.0</ele><time>2026-04-29T17:46:57Z</time></trkpt><trkpt lat="49.066202789187756" lon="-0.9191680707441188"><ele>173.66666666666666</ele><time>2026-04-29T17:46:58Z</time></trkpt><trkpt lat="49.06629327116308" lon="-0.919108193054831"><ele>173.33333333333334</ele><time>2026-04-29T17:46:59Z</time></trkpt><trkpt lat="49.066386206333995" lon="-0.9190654684642477"><ele>173.0</ele><time>2026-04-29T17:47:00Z</time></trkpt><trkpt lat="49.066472158763865" lon="-0.9190212076937075"><ele>172.66666666666669</ele><time>2026-04-29T17:47:01Z</time></trkpt><trkpt lat="49.066546267424044" lon="-0.918979318918744"><ele>172.33333333333334</ele><time>2026-04-29T17:47:02Z</time></trkpt><trkpt lat="49.066604615178534" lon="-0.9189422552770706"><ele>172.0</ele><time>2026-04-29T17:47:03Z</time></trkpt><trkpt lat="49.06668303043553" lon="-0.9188993086759281"><ele>171.6</ele><time>2026-04-29T17:47:05Z</time></trkpt><trkpt lat="49.06672789511136" lon="-0.9191060443396937"><ele>171.2</ele><time>2026-04-29T17:47:07Z</time></trkpt><trkpt lat="49.06674242728777" lon="-0.9192139194157976"><ele>170.8</ele><time>2026-04-29T17:47:08Z</time></trkpt><trkpt lat="49.06675103150415" lon="-0.9193461382974976"><ele>170.4</ele><time>2026-04-29T17:47:09Z</time></trkpt><trkpt lat="49.06676322323211" lon="-0.9194998955558842"><ele>170.0</ele><time>2026-04-29T17:47:10Z</time></trkpt><trkpt lat="49.06678411519502" lon="-0.9196635405324622"><ele>170.0</ele><time>2026-04-29T17:47:11Z</time></trkpt><trkpt lat="49.06680240882474" lon="-0.9198330653236425"><ele>170.0</ele><time>2026-04-29T17:47:12Z</time></trkpt><trkpt lat="49.06682008663364" lon="-0.920002647015656"><ele>170.0</ele><time>2026-04-29T17:47:13Z</time></trkpt><trkpt lat="49.066838997177456" lon="-0.9201763216033028"><ele>170.0</ele><time>2026-04-29T17:47:14Z</time></trkpt><trkpt lat="49.066853436070026" lon="-0.9203487104331305"><ele>170.0</ele><time>2026-04-29T17:47:15Z</time></trkpt><trkpt lat="49.06687660795015" lon="-0.9205242490718853"><ele>170.0</ele><time>2026-04-29T17:47:16Z</time></trkpt><trkpt lat="49.06689823707156" lon="-0.920694346444426"><ele>170.0</ele><time>2026-04-29T17:47:17Z</time></trkpt><trkpt lat="49.06691548189657" lon="-0.9208670281172712"><ele>170.0</ele><time>2026-04-29T17:47:18Z</time></trkpt><trkpt lat="49.06692912080349" lon="-0.9210447079224197"><ele>169.75</ele><time>2026-04-29T17:47:19Z</time></trkpt><trkpt lat="49.066944320023495" lon="-0.9212196278473629"><ele>169.5</ele><time>2026-04-29T17:47:20Z</time></trkpt><trkpt lat="49.06695282755427" lon="-0.9213975514507728"><ele>169.25</ele><time>2026-04-29T17:47:21Z</time></trkpt><trkpt lat="49.06695809888536" lon="-0.9215859672056146"><ele>169.0</ele><time>2026-04-29T17:47:22Z</time></trkpt><trkpt lat="49.06696519967261" lon="-0.9217705165204425"><ele>168.75</ele><time>2026-04-29T17:47:23Z</time></trkpt><trkpt lat="49.0669719674031" lon="-0.9219636233876565"><ele>168.5</ele><time>2026-04-29T17:47:24Z</time></trkpt><trkpt lat="49.06697558327706" lon="-0.9221553936660326"><ele>168.25</ele><time>2026-04-29T17:47:25Z</time></trkpt><trkpt lat="49.06697714872436" lon="-0.9223573887871057"><ele>168.0</ele><time>2026-04-29T17:47:26Z</time></trkpt><trkpt lat="49.066989215055216" lon="-0.9225646665118524"><ele>168.0</ele><time>2026-04-29T17:47:27Z</time></trkpt><trkpt lat="49.06699348616516" lon="-0.9227717956167589"><ele>168.0</ele><time>2026-04-29T17:47:28Z</time></trkpt><trkpt lat="49.067000747001885" lon="-0.9229788622620299"><ele>168.0</ele><time>2026-04-29T17:47:29Z</time></trkpt><trkpt lat="49.06700686491668" lon="-0.9231841582166188"><ele>168.0</ele><time>2026-04-29T17:47:30Z</time></trkpt><trkpt lat="49.06700638752113" lon="-0.9233988827592478"><ele>168.0</ele><time>2026-04-29T17:47:31Z</time></trkpt><trkpt lat="49.06701769107274" lon="-0.923617093721718"><ele>168.0</ele><time>2026-04-29T17:47:32Z</time></trkpt><trkpt lat="49.06701982795262" lon="-0.9238395922967165"><ele>168.0</ele><time>2026-04-29T17:47:33Z</time></trkpt><trkpt lat="49.06702173195551" lon="-0.9240414102002832"><ele>168.0</ele><time>2026-04-29T17:47:34Z</time></trkpt><trkpt lat="49.067027883240584" lon="-0.92422623105028"><ele>167.60000000000002</ele><time>2026-04-29T17:47:35Z</time></trkpt><trkpt lat="49.06703232919341" lon="-0.9243875405684691"><ele>167.20000000000002</ele><time>2026-04-29T17:47:36Z</time></trkpt><trkpt lat="49.06703606927385" lon="-0.9245448871676551"><ele>166.8</ele><time>2026-04-29T17:47:37Z</time></trkpt><trkpt lat="49.067044395663586" lon="-0.9247017502565913"><ele>166.4</ele><time>2026-04-29T17:47:38Z</time></trkpt><trkpt lat="49.0670699122653" lon="-0.9248558349423412"><ele>166.0</ele><time>2026-04-29T17:47:39Z</time></trkpt><trkpt lat="49.06707282144605" lon="-0.9250184335572638"><ele>166.20000000000002</ele><time>2026-04-29T17:47:40Z</time></trkpt><trkpt lat="49.06709245061624" lon="-0.9251702343625948"><ele>166.4</ele><time>2026-04-29T17:47:41Z</time></trkpt><trkpt lat="49.06711346299704" lon="-0.9253200157563145"><ele>166.6</ele><time>2026-04-29T17:47:42Z</time></trkpt><trkpt lat="49.06713408394888" lon="-0.9254697240856635"><ele>166.8</ele><time>2026-04-29T17:47:43Z</time></trkpt><trkpt lat="49.0671530581363" lon="-0.9256142492794188"><ele>167.0</ele><time>2026-04-29T17:47:44Z</time></trkpt><trkpt lat="49.067167356878635" lon="-0.9257593931689765"><ele>167.8</ele><time>2026-04-29T17:47:45Z</time></trkpt><trkpt lat="49.06718391795617" lon="-0.925905789383321"><ele>168.6</ele><time>2026-04-29T17:47:46Z</time></trkpt><trkpt lat="49.067210508902825" lon="-0.9260506077814011"><ele>169.4</ele><time>2026-04-29T17:47:47Z</time></trkpt><trkpt lat="49.06723125017512" lon="-0.9261951938835488"><ele>170.20000000000002</ele><time>2026-04-29T17:47:48Z</time></trkpt><trkpt lat="49.06724827952524" lon="-0.9263393490098449"><ele>171.0</ele><time>2026-04-29T17:47:49Z</time></trkpt><trkpt lat="49.06726197826161" lon="-0.9264848369965606"><ele>171.0</ele><time>2026-04-29T17:47:50Z</time></trkpt><trkpt lat="49.06727554154547" lon="-0.9266290712336845"><ele>171.0</ele><time>2026-04-29T17:47:51Z</time></trkpt><trkpt lat="49.06728463602964" lon="-0.9267550604065242"><ele>171.0</ele><time>2026-04-29T17:47:52Z</time></trkpt><trkpt lat="49.06729659030151" lon="-0.926881382854432"><ele>171.0</ele><time>2026-04-29T17:47:53Z</time></trkpt><trkpt lat="49.06729937035606" lon="-0.926978755747927"><ele>171.0</ele><time>2026-04-29T17:47:54Z</time></trkpt><trkpt lat="49.06730127492628" lon="-0.9270751429655729"><ele>171.0</ele><time>2026-04-29T17:47:55Z</time></trkpt><trkpt lat="49.067305866351255" lon="-0.9272221031107261"><ele>171.16666666666666</ele><time>2026-04-29T17:47:57Z</time></trkpt><trkpt lat="49.06730791697915" lon="-0.9273287345783117"><ele>171.33333333333334</ele><time>2026-04-29T17:47:59Z</time></trkpt><trkpt lat="49.06732395711683" lon="-0.9274247499005918"><ele>171.5</ele><time>2026-04-29T17:48:13Z</time></trkpt><trkpt lat="49.067311552395275" lon="-0.9275832680645214"><ele>171.66666666666669</ele><time>2026-04-29T17:49:00Z</time></trkpt><trkpt lat="49.0673120037693" lon="-0.9276838069475709"><ele>171.83333333333334</ele><time>2026-04-29T17:49:01Z</time></trkpt><trkpt lat="49.06731892925969" lon="-0.9278035166928883"><ele>172.0</ele><time>2026-04-29T17:49:02Z</time></trkpt><trkpt lat="49.067321478395286" lon="-0.9279486826113432"><ele>172.0</ele><time>2026-04-29T17:49:03Z</time></trkpt><trkpt lat="49.06732816505867" lon="-0.9281206715230662"><ele>172.0</ele><time>2026-04-29T17:49:04Z</time></trkpt><trkpt lat="49.06734496923687" lon="-0.9283073218903524"><ele>172.0</ele><time>2026-04-29T17:49:05Z</time></trkpt><trkpt lat="49.0673648268339" lon="-0.9285040443607516"><ele>172.0</ele><time>2026-04-29T17:49:06Z</time></trkpt><trkpt lat="49.06738027031598" lon="-0.928688301228876"><ele>172.25</ele><time>2026-04-29T17:49:07Z</time></trkpt><trkpt lat="49.06739238952561" lon="-0.9288797404276019"><ele>172.5</ele><time>2026-04-29T17:49:08Z</time></trkpt><trkpt lat="49.06740324369641" lon="-0.9290770240743927"><ele>172.75</ele><time>2026-04-29T17:49:09Z</time></trkpt><trkpt lat="49.06742273605914" lon="-0.9292566198578069"><ele>173.0</ele><time>2026-04-29T17:49:10Z</time></trkpt><trkpt lat="49.0674297239048" lon="-0.9294256170115149"><ele>173.0</ele><time>2026-04-29T17:49:11Z</time></trkpt><trkpt lat="49.067471696950605" lon="-0.9295650194772658"><ele>173.0</ele><time>2026-04-29T17:49:12Z</time></trkpt><trkpt lat="49.067502589792376" lon="-0.9296966598612083"><ele>173.0</ele><time>2026-04-29T17:49:13Z</time></trkpt><trkpt lat="49.0674692409883" lon="-0.9298697977558306"><ele>173.0</ele><time>2026-04-29T17:49:14Z</time></trkpt><trkpt lat="49.06746150017388" lon="-0.9300298168094685"><ele>173.0</ele><time>2026-04-29T17:49:15Z</time></trkpt><trkpt lat="49.067464653327434" lon="-0.9301704071648728"><ele>173.0</ele><time>2026-04-29T17:49:16Z</time></trkpt><trkpt lat="49.06748512452709" lon="-0.930263832836325"><ele>173.0</ele><time>2026-04-29T17:49:17Z</time></trkpt><trkpt lat="49.06750370076807" lon="-0.9304153030892622"><ele>173.0</ele><time>2026-04-29T17:49:18Z</time></trkpt><trkpt lat="49.067524614960085" lon="-0.9305992064291292"><ele>173.0</ele><time>2026-04-29T17:49:19Z</time></trkpt><trkpt lat="49.06752564218404" lon="-0.9307222135111213"><ele>173.0</ele><time>2026-04-29T17:49:20Z</time></trkpt><trkpt lat="49.06753021538764" lon="-0.9308223492096126"><ele>173.0</ele><time>2026-04-29T17:49:21Z</time></trkpt><trkpt lat="49.067531023879276" lon="-0.9309751447042821"><ele>173.2</ele><time>2026-04-29T17:49:23Z</time></trkpt><trkpt lat="49.06753059234806" lon="-0.9311374570000641"><ele>173.4</ele><time>2026-04-29T17:49:25Z</time></trkpt><trkpt lat="49.067476784028145" lon="-0.9312624150272845"><ele>173.6</ele><time>2026-04-29T17:49:27Z</time></trkpt><trkpt lat="49.067392105159634" lon="-0.9313523871878121"><ele>173.79999999999998</ele><time>2026-04-29T17:49:29Z</time></trkpt><trkpt lat="49.06736322226062" lon="-0.9314438318791107"><ele>174.0</ele><time>2026-04-29T17:49:30Z</time></trkpt><trkpt lat="49.06762552750543" lon="-0.9319717900081742"><ele>174.0</ele><time>2026-04-29T17:49:32Z</time></trkpt><trkpt lat="49.06763293011832" lon="-0.9320961908631641"><ele>174.0</ele><time>2026-04-29T17:49:33Z</time></trkpt><trkpt lat="49.06762586100375" lon="-0.9322056687067862"><ele>174.0</ele><time>2026-04-29T17:49:34Z</time></trkpt><trkpt lat="49.06764076069836" lon="-0.932319648041382"><ele>174.0</ele><time>2026-04-29T17:49:35Z</time></trkpt><trkpt lat="49.0676509753315" lon="-0.932458992313722"><ele>174.0</ele><time>2026-04-29T17:49:36Z</time></trkpt><trkpt lat="49.067662902734554" lon="-0.9325915521936942"><ele>174.0</ele><time>2026-04-29T17:49:37Z</time></trkpt><trkpt lat="49.06767585953302" lon="-0.9327233213871592"><ele>173.6</ele><time>2026-04-29T17:49:38Z</time></trkpt><trkpt lat="49.067688170411095" lon="-0.9329273280911794"><ele>173.2</ele><time>2026-04-29T17:49:40Z</time></trkpt><trkpt lat="49.0676838493231" lon="-0.9330947232087694"><ele>172.79999999999998</ele><time>2026-04-29T17:49:42Z</time></trkpt><trkpt lat="49.06768718597317" lon="-0.9332160829279246"><ele>172.39999999999998</ele><time>2026-04-29T17:49:43Z</time></trkpt><trkpt lat="49.06769146355795" lon="-0.9333629025031976"><ele>172.0</ele><time>2026-04-29T17:49:44Z</time></trkpt><trkpt lat="49.06768809121113" lon="-0.9335201294679213"><ele>171.83333333333334</ele><time>2026-04-29T17:49:45Z</time></trkpt><trkpt lat="49.06768995643844" lon="-0.9336835785804762"><ele>171.66666666666669</ele><time>2026-04-29T17:49:46Z</time></trkpt><trkpt lat="49.06767727301157" lon="-0.9338408153749944"><ele>171.5</ele><time>2026-04-29T17:49:47Z</time></trkpt><trkpt lat="49.06765582901243" lon="-0.9339777856935088"><ele>171.33333333333334</ele><time>2026-04-29T17:49:48Z</time></trkpt><trkpt lat="49.0676254695706" lon="-0.9340696853927533"><ele>171.16666666666666</ele><time>2026-04-29T17:49:49Z</time></trkpt><trkpt lat="49.06761133065413" lon="-0.9341828883799618"><ele>171.0</ele><time>2026-04-29T17:49:50Z</time></trkpt><trkpt lat="49.06761056212076" lon="-0.9342896259997218"><ele>171.0</ele><time>2026-04-29T17:49:51Z</time></trkpt><trkpt lat="49.06759054256353" lon="-0.9343864433626453"><ele>171.0</ele><time>2026-04-29T17:49:53Z</time></trkpt><trkpt lat="49.067521736256204" lon="-0.934548017452566"><ele>171.0</ele><time>2026-04-29T17:49:55Z</time></trkpt><trkpt lat="49.067453644925806" lon="-0.9345955978057291"><ele>171.0</ele><time>2026-04-29T17:49:57Z</time></trkpt><trkpt lat="49.067360744200585" lon="-0.9345716629979177"><ele>171.0</ele><time>2026-04-29T17:50:00Z</time></trkpt><trkpt lat="49.06728470425704" lon="-0.9347097314440445"><ele>170.60000000000002</ele><time>2026-04-29T17:50:02Z</time></trkpt><trkpt lat="49.06726872057923" lon="-0.93481951792906"><ele>170.2</ele><time>2026-04-29T17:50:03Z</time></trkpt><trkpt lat="49.067207204387934" lon="-0.9349032986595798"><ele>169.8</ele><time>2026-04-29T17:50:04Z</time></trkpt><trkpt lat="49.067141679654725" lon="-0.9350573304431554"><ele>169.39999999999998</ele><time>2026-04-29T17:50:05Z</time></trkpt><trkpt lat="49.06707317245776" lon="-0.9351758405122025"><ele>169.0</ele><time>2026-04-29T17:50:06Z</time></trkpt><trkpt lat="49.06700772341316" lon="-0.9353537474745512"><ele>168.79999999999998</ele><time>2026-04-29T17:50:07Z</time></trkpt><trkpt lat="49.06694792707786" lon="-0.9354899019276962"><ele>168.6</ele><time>2026-04-29T17:50:08Z</time></trkpt><trkpt lat="49.06687476942003" lon="-0.9356478136492883"><ele>168.4</ele><time>2026-04-29T17:50:10Z</time></trkpt><trkpt lat="49.06683929711418" lon="-0.9357328385356385"><ele>168.2</ele><time>2026-04-29T17:50:11Z</time></trkpt><trkpt lat="49.06676070981165" lon="-0.9359035557264807"><ele>168.0</ele><time>2026-04-29T17:50:13Z</time></trkpt><trkpt lat="49.06671071310973" lon="-0.9360018807152469"><ele>167.8</ele><time>2026-04-29T17:50:14Z</time></trkpt><trkpt lat="49.066672794524074" lon="-0.9361258885160109"><ele>167.60000000000002</ele><time>2026-04-29T17:50:15Z</time></trkpt><trkpt lat="49.06662669897991" lon="-0.9362683344911197"><ele>167.39999999999998</ele><time>2026-04-29T17:50:16Z</time></trkpt><trkpt lat="49.06656001078247" lon="-0.936409332282291"><ele>167.2</ele><time>2026-04-29T17:50:17Z</time></trkpt><trkpt lat="49.066504641037675" lon="-0.9365586289957698"><ele>167.0</ele><time>2026-04-29T17:50:18Z</time></trkpt><trkpt lat="49.06643696114956" lon="-0.9366748289635285"><ele>166.2</ele><time>2026-04-29T17:50:19Z</time></trkpt><trkpt lat="49.06635836983306" lon="-0.93677644195663"><ele>165.39999999999998</ele><time>2026-04-29T17:50:20Z</time></trkpt><trkpt lat="49.0662961372795" lon="-0.9368893306321865"><ele>164.60000000000002</ele><time>2026-04-29T17:50:21Z</time></trkpt><trkpt lat="49.066252121731" lon="-0.9370111644996567"><ele>163.8</ele><time>2026-04-29T17:50:22Z</time></trkpt><trkpt lat="49.06617387325276" lon="-0.9370949185522441"><ele>163.0</ele><time>2026-04-29T17:50:23Z</time></trkpt><trkpt lat="49.06607618462047" lon="-0.9372401658681723"><ele>163.0</ele><time>2026-04-29T17:50:24Z</time></trkpt><trkpt lat="49.06601049169549" lon="-0.9373184346883648"><ele>163.0</ele><time>2026-04-29T17:50:25Z</time></trkpt><trkpt lat="49.065979463489676" lon="-0.9374248330494315"><ele>163.0</ele><time>2026-04-29T17:50:27Z</time></trkpt><trkpt lat="49.0659253211163" lon="-0.9373647375606163"><ele>163.0</ele><time>2026-04-29T17:51:28Z</time></trkpt><trkpt lat="49.06588074824114" lon="-0.9374483026290914"><ele>163.0</ele><time>2026-04-29T17:51:31Z</time></trkpt><trkpt lat="49.06582889449703" lon="-0.9375176097295199"><ele>163.0</ele><time>2026-04-29T17:51:32Z</time></trkpt><trkpt lat="49.06577060107668" lon="-0.9376120952262619"><ele>162.20000000000002</ele><time>2026-04-29T17:51:33Z</time></trkpt><trkpt lat="49.06569155791358" lon="-0.9377250314072987"><ele>161.4</ele><time>2026-04-29T17:51:34Z</time></trkpt><trkpt lat="49.06562161455093" lon="-0.9378359829231"><ele>160.60000000000002</ele><time>2026-04-29T17:51:35Z</time></trkpt><trkpt lat="49.06554875004276" lon="-0.9379492849938852"><ele>159.8</ele><time>2026-04-29T17:51:36Z</time></trkpt><trkpt lat="49.06548592949205" lon="-0.9380615384002782"><ele>159.0</ele><time>2026-04-29T17:51:37Z</time></trkpt><trkpt lat="49.06544014784897" lon="-0.9381714491105045"><ele>159.0</ele><time>2026-04-29T17:51:38Z</time></trkpt><trkpt lat="49.06539345473402" lon="-0.938280317982661"><ele>159.0</ele><time>2026-04-29T17:51:39Z</time></trkpt><trkpt lat="49.06534518845042" lon="-0.9383860700952762"><ele>159.0</ele><time>2026-04-29T17:51:40Z</time></trkpt><trkpt lat="49.0652949768624" lon="-0.9385196627659709"><ele>159.0</ele><time>2026-04-29T17:51:42Z</time></trkpt><trkpt lat="49.06523965068648" lon="-0.9386579681723222"><ele>159.0</ele><time>2026-04-29T17:51:44Z</time></trkpt><trkpt lat="49.06516996716194" lon="-0.9388105286105112"><ele>158.83333333333334</ele><time>2026-04-29T17:51:46Z</time></trkpt><trkpt lat="49.06513273230531" lon="-0.9389329500816104"><ele>158.66666666666666</ele><time>2026-04-29T17:51:48Z</time></trkpt><trkpt lat="49.06506857259875" lon="-0.9390496964557248"><ele>158.5</ele><time>2026-04-29T17:51:49Z</time></trkpt><trkpt lat="49.06502628536339" lon="-0.9391359662377211"><ele>158.33333333333331</ele><time>2026-04-29T17:51:50Z</time></trkpt><trkpt lat="49.0649864125668" lon="-0.9392147764314969"><ele>158.16666666666666</ele><time>2026-04-29T17:51:51Z</time></trkpt><trkpt lat="49.06495446500464" lon="-0.9393068348627759"><ele>158.0</ele><time>2026-04-29T17:51:52Z</time></trkpt><trkpt lat="49.06491457007433" lon="-0.9393978685201197"><ele>157.71428571428572</ele><time>2026-04-29T17:51:53Z</time></trkpt><trkpt lat="49.06488120023872" lon="-0.9394884950940182"><ele>157.42857142857144</ele><time>2026-04-29T17:51:54Z</time></trkpt><trkpt lat="49.064843299626894" lon="-0.9395878476624532"><ele>157.14285714285717</ele><time>2026-04-29T17:51:55Z</time></trkpt><trkpt lat="49.064810358346044" lon="-0.9396833462183143"><ele>156.85714285714286</ele><time>2026-04-29T17:51:56Z</time></trkpt><trkpt lat="49.06477394878017" lon="-0.9397906684517965"><ele>156.57142857142856</ele><time>2026-04-29T17:51:57Z</time></trkpt><trkpt lat="49.06474439162689" lon="-0.9398923675439356"><ele>156.2857142857143</ele><time>2026-04-29T17:51:58Z</time></trkpt><trkpt lat="49.064706031161535" lon="-0.9399827370009901"><ele>156.0</ele><time>2026-04-29T17:51:59Z</time></trkpt><trkpt lat="49.06467976217115" lon="-0.9400828207945837"><ele>156.0</ele><time>2026-04-29T17:52:00Z</time></trkpt><trkpt lat="49.064649609342666" lon="-0.9401861329080061"><ele>156.0</ele><time>2026-04-29T17:52:01Z</time></trkpt><trkpt lat="49.06462539910391" lon="-0.9402878018216422"><ele>156.0</ele><time>2026-04-29T17:52:02Z</time></trkpt><trkpt lat="49.06459726830092" lon="-0.9403838443495844"><ele>156.0</ele><time>2026-04-29T17:52:03Z</time></trkpt><trkpt lat="49.06456685889708" lon="-0.9404787863019544"><ele>156.0</ele><time>2026-04-29T17:52:04Z</time></trkpt><trkpt lat="49.064538925522314" lon="-0.9405723679559865"><ele>156.0</ele><time>2026-04-29T17:52:05Z</time></trkpt><trkpt lat="49.06450935877103" lon="-0.940669908790927"><ele>156.0</ele><time>2026-04-29T17:52:06Z</time></trkpt><trkpt lat="49.06445127767243" lon="-0.9408471824848545"><ele>156.0</ele><time>2026-04-29T17:52:08Z</time></trkpt><trkpt lat="49.06442132621566" lon="-0.940941144643048"><ele>156.0</ele><time>2026-04-29T17:52:09Z</time></trkpt><trkpt lat="49.06439219656155" lon="-0.9410348312812039"><ele>156.0</ele><time>2026-04-29T17:52:10Z</time></trkpt><trkpt lat="49.064363373716986" lon="-0.9411237900255046"><ele>156.0</ele><time>2026-04-29T17:52:11Z</time></trkpt><trkpt lat="49.064321404095445" lon="-0.9412435653146844"><ele>156.0</ele><time>2026-04-29T17:52:12Z</time></trkpt><trkpt lat="49.06428842423874" lon="-0.9413533219097848"><ele>156.0</ele><time>2026-04-29T17:52:13Z</time></trkpt><trkpt lat="49.06425072704644" lon="-0.9414482021420205"><ele>156.0</ele><time>2026-04-29T17:52:14Z</time></trkpt><trkpt lat="49.064219649536774" lon="-0.9415734065801219"><ele>156.0</ele><time>2026-04-29T17:52:15Z</time></trkpt><trkpt lat="49.06417101073458" lon="-0.9416586562869119"><ele>156.0</ele><time>2026-04-29T17:52:16Z</time></trkpt><trkpt lat="49.064139959190264" lon="-0.9417707831088532"><ele>156.0</ele><time>2026-04-29T17:52:17Z</time></trkpt><trkpt lat="49.06409108485169" lon="-0.9418832584279723"><ele>156.0</ele><time>2026-04-29T17:52:18Z</time></trkpt><trkpt lat="49.064042138747205" lon="-0.9419899832325349"><ele>156.0</ele><time>2026-04-29T17:52:19Z</time></trkpt><trkpt lat="49.06399022165412" lon="-0.9420824380339868"><ele>156.0</ele><time>2026-04-29T17:52:20Z</time></trkpt><trkpt lat="49.063934553334484" lon="-0.942189493792326"><ele>155.6</ele><time>2026-04-29T17:52:21Z</time></trkpt><trkpt lat="49.063875815328544" lon="-0.9422884350736175"><ele>155.2</ele><time>2026-04-29T17:52:22Z</time></trkpt><trkpt lat="49.063813015669936" lon="-0.9423914333789042"><ele>154.8</ele><time>2026-04-29T17:52:23Z</time></trkpt><trkpt lat="49.06374444772841" lon="-0.9424796374459843"><ele>154.4</ele><time>2026-04-29T17:52:24Z</time></trkpt><trkpt lat="49.06366869240992" lon="-0.9425633225666507"><ele>154.0</ele><time>2026-04-29T17:52:25Z</time></trkpt><trkpt lat="49.06359489293748" lon="-0.9426487854070034"><ele>154.0</ele><time>2026-04-29T17:52:26Z</time></trkpt><trkpt lat="49.06351326017185" lon="-0.9427366391093802"><ele>154.0</ele><time>2026-04-29T17:52:27Z</time></trkpt><trkpt lat="49.06343289032777" lon="-0.94281731550489"><ele>154.0</ele><time>2026-04-29T17:52:28Z</time></trkpt><trkpt lat="49.06337511034764" lon="-0.9429093795707402"><ele>154.0</ele><time>2026-04-29T17:52:29Z</time></trkpt><trkpt lat="49.06330676028966" lon="-0.9429534235793028"><ele>154.0</ele><time>2026-04-29T17:52:30Z</time></trkpt><trkpt lat="49.063254785707194" lon="-0.9430245102381717"><ele>154.0</ele><time>2026-04-29T17:52:31Z</time></trkpt><trkpt lat="49.06315338364497" lon="-0.9431108119119727"><ele>153.5</ele><time>2026-04-29T17:52:33Z</time></trkpt><trkpt lat="49.06309037725838" lon="-0.9431779374651839"><ele>153.0</ele><time>2026-04-29T17:52:35Z</time></trkpt><trkpt lat="49.06301996608501" lon="-0.9432225070602779"><ele>152.5</ele><time>2026-04-29T17:53:51Z</time></trkpt><trkpt lat="49.06295448458196" lon="-0.9432190215342093"><ele>152.0</ele><time>2026-04-29T17:53:52Z</time></trkpt><trkpt lat="49.06288224829411" lon="-0.9432727555195038"><ele>151.5</ele><time>2026-04-29T17:53:53Z</time></trkpt><trkpt lat="49.06278217599509" lon="-0.9432116619486091"><ele>151.0</ele><time>2026-04-29T17:53:54Z</time></trkpt><trkpt lat="49.06278116238931" lon="-0.9436801712654593"><ele>151.0</ele><time>2026-04-29T17:53:55Z</time></trkpt><trkpt lat="49.062664518596065" lon="-0.943835021622845"><ele>151.0</ele><time>2026-04-29T17:53:56Z</time></trkpt><trkpt lat="49.06253876823326" lon="-0.9440031165572869"><ele>151.0</ele><time>2026-04-29T17:53:57Z</time></trkpt><trkpt lat="49.062399832815615" lon="-0.9441826175498876"><ele>150.0</ele><time>2026-04-29T17:53:58Z</time></trkpt><trkpt lat="49.062262326674045" lon="-0.9443794871742572"><ele>149.0</ele><time>2026-04-29T17:53:59Z</time></trkpt><trkpt lat="49.0621185973501" lon="-0.944577057459697"><ele>148.0</ele><time>2026-04-29T17:54:00Z</time></trkpt><trkpt lat="49.06198286117585" lon="-0.9447707335962935"><ele>148.0</ele><time>2026-04-29T17:54:01Z</time></trkpt><trkpt lat="49.06185611556553" lon="-0.9449680170511808"><ele>148.0</ele><time>2026-04-29T17:54:02Z</time></trkpt><trkpt lat="49.06174285961886" lon="-0.9451529128052764"><ele>148.0</ele><time>2026-04-29T17:54:03Z</time></trkpt><trkpt lat="49.06163802846374" lon="-0.9453179492582775"><ele>147.5</ele><time>2026-04-29T17:54:04Z</time></trkpt><trkpt lat="49.061538076184924" lon="-0.9454782836792412"><ele>147.0</ele><time>2026-04-29T17:54:05Z</time></trkpt><trkpt lat="49.06144784182424" lon="-0.9456385204512818"><ele>146.5</ele><time>2026-04-29T17:54:06Z</time></trkpt><trkpt lat="49.06136060508524" lon="-0.9458054921818178"><ele>146.0</ele><time>2026-04-29T17:54:07Z</time></trkpt><trkpt lat="49.0612812161226" lon="-0.9459795937642811"><ele>146.0</ele><time>2026-04-29T17:54:08Z</time></trkpt><trkpt lat="49.06119024047372" lon="-0.9461497236190466"><ele>146.0</ele><time>2026-04-29T17:54:09Z</time></trkpt><trkpt lat="49.061109640636666" lon="-0.9463018204113406"><ele>146.0</ele><time>2026-04-29T17:54:10Z</time></trkpt><trkpt lat="49.061037084997324" lon="-0.9464292816667246"><ele>146.0</ele><time>2026-04-29T17:54:11Z</time></trkpt><trkpt lat="49.06097454335975" lon="-0.9465378512805314"><ele>146.0</ele><time>2026-04-29T17:54:12Z</time></trkpt><trkpt lat="49.06091175305851" lon="-0.9466495000460108"><ele>146.0</ele><time>2026-04-29T17:54:13Z</time></trkpt><trkpt lat="49.06086677788468" lon="-0.946784797168669"><ele>146.0</ele><time>2026-04-29T17:54:14Z</time></trkpt><trkpt lat="49.06087765791013" lon="-0.9469054421471015"><ele>146.0</ele><time>2026-04-29T17:54:15Z</time></trkpt><trkpt lat="49.06089997581358" lon="-0.9470435836310697"><ele>146.0</ele><time>2026-04-29T17:54:17Z</time></trkpt><trkpt lat="49.060920818655575" lon="-0.947135697120736"><ele>146.0</ele><time>2026-04-29T17:54:27Z</time></trkpt><trkpt lat="49.06092215304794" lon="-0.9472544027632035"><ele>145.5</ele><time>2026-04-29T17:54:31Z</time></trkpt><trkpt lat="49.06076141189016" lon="-0.9473378108906255"><ele>145.0</ele><time>2026-04-29T17:54:33Z</time></trkpt><trkpt lat="49.060649486364376" lon="-0.9473745801452825"><ele>144.5</ele><time>2026-04-29T17:54:34Z</time></trkpt><trkpt lat="49.06053433754426" lon="-0.9474203951788913"><ele>144.0</ele><time>2026-04-29T17:54:35Z</time></trkpt><trkpt lat="49.06040067303043" lon="-0.9474832945136207"><ele>144.0</ele><time>2026-04-29T17:54:36Z</time></trkpt><trkpt lat="49.060249030427336" lon="-0.9475428470407551"><ele>144.0</ele><time>2026-04-29T17:54:37Z</time></trkpt><trkpt lat="49.060083916809404" lon="-0.9476050541596923"><ele>144.0</ele><time>2026-04-29T17:54:38Z</time></trkpt><trkpt lat="49.0599097390607" lon="-0.9476798985937509"><ele>142.75</ele><time>2026-04-29T17:54:39Z</time></trkpt><trkpt lat="49.0597611245583" lon="-0.9477352138271766"><ele>141.5</ele><time>2026-04-29T17:54:40Z</time></trkpt><trkpt lat="49.0596256712538" lon="-0.9477863949994627"><ele>140.25</ele><time>2026-04-29T17:54:41Z</time></trkpt><trkpt lat="49.05951328887831" lon="-0.9478361018480078"><ele>139.0</ele><time>2026-04-29T17:54:42Z</time></trkpt><trkpt lat="49.05942242455847" lon="-0.9478843702861423"><ele>139.0</ele><time>2026-04-29T17:54:43Z</time></trkpt><trkpt lat="49.05935033255218" lon="-0.9479323236588748"><ele>139.0</ele><time>2026-04-29T17:54:44Z</time></trkpt><trkpt lat="49.05926019377104" lon="-0.9480186780150074"><ele>139.0</ele><time>2026-04-29T17:54:46Z</time></trkpt><trkpt lat="49.05923350245603" lon="-0.9482651784746242"><ele>139.0</ele><time>2026-04-29T17:54:48Z</time></trkpt><trkpt lat="49.05925864387117" lon="-0.9484177864909042"><ele>139.33333333333334</ele><time>2026-04-29T17:54:49Z</time></trkpt><trkpt lat="49.059283698364546" lon="-0.9485719939969827"><ele>139.66666666666669</ele><time>2026-04-29T17:54:50Z</time></trkpt><trkpt lat="49.059264911376296" lon="-0.9486983786364127"><ele>140.0</ele><time>2026-04-29T17:54:51Z</time></trkpt><trkpt lat="49.05928121640398" lon="-0.9488250370870454"><ele>140.33333333333334</ele><time>2026-04-29T17:54:52Z</time></trkpt><trkpt lat="49.05929540187542" lon="-0.9489534501994863"><ele>140.66666666666666</ele><time>2026-04-29T17:54:53Z</time></trkpt><trkpt lat="49.059309663894034" lon="-0.9490791148765853"><ele>141.0</ele><time>2026-04-29T17:54:54Z</time></trkpt><trkpt lat="49.05931979063812" lon="-0.9492033834672675"><ele>141.2</ele><time>2026-04-29T17:54:55Z</time></trkpt><trkpt lat="49.05933132708057" lon="-0.949341649955063"><ele>141.39999999999998</ele><time>2026-04-29T17:54:56Z</time></trkpt><trkpt lat="49.05934461007813" lon="-0.949489169661267"><ele>141.6</ele><time>2026-04-29T17:54:57Z</time></trkpt><trkpt lat="49.0593508193718" lon="-0.9496087035135684"><ele>141.79999999999998</ele><time>2026-04-29T17:54:58Z</time></trkpt><trkpt lat="49.059380593740656" lon="-0.9498110376123788"><ele>142.0</ele><time>2026-04-29T17:54:59Z</time></trkpt><trkpt lat="49.059381933313105" lon="-0.9499761473447712"><ele>141.79999999999998</ele><time>2026-04-29T17:55:00Z</time></trkpt><trkpt lat="49.059399736166164" lon="-0.9501472402375637"><ele>141.6</ele><time>2026-04-29T17:55:01Z</time></trkpt><trkpt lat="49.05941060888655" lon="-0.9503147951710813"><ele>141.39999999999998</ele><time>2026-04-29T17:55:02Z</time></trkpt><trkpt lat="49.059423624133984" lon="-0.9504597291530884"><ele>141.2</ele><time>2026-04-29T17:55:03Z</time></trkpt><trkpt lat="49.05943829297741" lon="-0.950589905541865"><ele>141.0</ele><time>2026-04-29T17:55:04Z</time></trkpt><trkpt lat="49.05944701073237" lon="-0.9507062189884742"><ele>141.0</ele><time>2026-04-29T17:55:05Z</time></trkpt><trkpt lat="49.05945821008022" lon="-0.9508222960779017"><ele>141.0</ele><time>2026-04-29T17:55:06Z</time></trkpt><trkpt lat="49.05946790775127" lon="-0.950945480779036"><ele>141.0</ele><time>2026-04-29T17:55:07Z</time></trkpt><trkpt lat="49.0594782180907" lon="-0.9510687781894377"><ele>141.0</ele><time>2026-04-29T17:55:08Z</time></trkpt><trkpt lat="49.05948470180272" lon="-0.9511948920809554"><ele>141.0</ele><time>2026-04-29T17:55:09Z</time></trkpt><trkpt lat="49.05948744831744" lon="-0.9513183872132611"><ele>141.0</ele><time>2026-04-29T17:55:10Z</time></trkpt><trkpt lat="49.05948848153377" lon="-0.9514271188878409"><ele>140.66666666666666</ele><time>2026-04-29T17:55:11Z</time></trkpt><trkpt lat="49.05949048442006" lon="-0.9515981969355194"><ele>140.33333333333334</ele><time>2026-04-29T17:55:13Z</time></trkpt><trkpt lat="49.05948491946382" lon="-0.9516945349509826"><ele>140.0</ele><time>2026-04-29T17:55:15Z</time></trkpt><trkpt lat="49.05948661473366" lon="-0.9518017842162468"><ele>139.66666666666669</ele><time>2026-04-29T17:55:38Z</time></trkpt><trkpt lat="49.059479115771346" lon="-0.9519015832079057"><ele>139.33333333333334</ele><time>2026-04-29T17:55:42Z</time></trkpt><trkpt lat="49.059467754562206" lon="-0.9520225239690471"><ele>139.0</ele><time>2026-04-29T17:55:44Z</time></trkpt><trkpt lat="49.05944757557149" lon="-0.9521919856714814"><ele>138.8</ele><time>2026-04-29T17:55:45Z</time></trkpt><trkpt lat="49.05943578424677" lon="-0.9523620350357235"><ele>138.60000000000002</ele><time>2026-04-29T17:55:46Z</time></trkpt><trkpt lat="49.05942740688588" lon="-0.9525251025318703"><ele>138.4</ele><time>2026-04-29T17:55:47Z</time></trkpt><trkpt lat="49.0594083446405" lon="-0.9526949027545389"><ele>138.20000000000002</ele><time>2026-04-29T17:55:48Z</time></trkpt><trkpt lat="49.059382553197274" lon="-0.9528667759398524"><ele>138.0</ele><time>2026-04-29T17:55:49Z</time></trkpt><trkpt lat="49.059356498993786" lon="-0.9530303845605803"><ele>137.20000000000002</ele><time>2026-04-29T17:55:50Z</time></trkpt><trkpt lat="49.05931950502371" lon="-0.9532187084524425"><ele>136.4</ele><time>2026-04-29T17:55:51Z</time></trkpt><trkpt lat="49.05929025648288" lon="-0.9533757975794868"><ele>135.60000000000002</ele><time>2026-04-29T17:55:52Z</time></trkpt><trkpt lat="49.059265149982906" lon="-0.9535149550231451"><ele>134.8</ele><time>2026-04-29T17:55:53Z</time></trkpt><trkpt lat="49.05924211089742" lon="-0.9536441933627844"><ele>134.0</ele><time>2026-04-29T17:55:54Z</time></trkpt><trkpt lat="49.059239805944266" lon="-0.9537680822161811"><ele>133.83333333333331</ele><time>2026-04-29T17:55:55Z</time></trkpt><trkpt lat="49.05921734924534" lon="-0.9538961836475381"><ele>133.66666666666666</ele><time>2026-04-29T17:55:56Z</time></trkpt><trkpt lat="49.05920970414403" lon="-0.9540229580279334"><ele>133.5</ele><time>2026-04-29T17:55:57Z</time></trkpt><trkpt lat="49.059206377243385" lon="-0.9541550777469281"><ele>133.33333333333334</ele><time>2026-04-29T17:55:58Z</time></trkpt><trkpt lat="49.0592012440322" lon="-0.9542795001714859"><ele>133.16666666666669</ele><time>2026-04-29T17:55:59Z</time></trkpt><trkpt lat="49.059202992992056" lon="-0.954404819892628"><ele>133.0</ele><time>2026-04-29T17:56:00Z</time></trkpt><trkpt lat="49.0592063621399" lon="-0.9545392425154586"><ele>133.4</ele><time>2026-04-29T17:56:01Z</time></trkpt><trkpt lat="49.0592010549306" lon="-0.9546436842798808"><ele>133.8</ele><time>2026-04-29T17:56:02Z</time></trkpt><trkpt lat="49.05920134188809" lon="-0.9548171979405174"><ele>134.2</ele><time>2026-04-29T17:56:03Z</time></trkpt><trkpt lat="49.05920109078101" lon="-0.9549696407770453"><ele>134.6</ele><time>2026-04-29T17:56:04Z</time></trkpt><trkpt lat="49.05919939727521" lon="-0.9551170751188631"><ele>135.0</ele><time>2026-04-29T17:56:05Z</time></trkpt><trkpt lat="49.059192322957024" lon="-0.9552751639044033"><ele>135.0</ele><time>2026-04-29T17:56:06Z</time></trkpt><trkpt lat="49.05919332296951" lon="-0.9554186213830808"><ele>135.0</ele><time>2026-04-29T17:56:07Z</time></trkpt><trkpt lat="49.05918858520471" lon="-0.9555497818351166"><ele>135.0</ele><time>2026-04-29T17:56:08Z</time></trkpt><trkpt lat="49.05918600953288" lon="-0.955680877735944"><ele>135.0</ele><time>2026-04-29T17:56:09Z</time></trkpt><trkpt lat="49.05917849186685" lon="-0.955790696298925"><ele>135.0</ele><time>2026-04-29T17:56:10Z</time></trkpt><trkpt lat="49.05917754464474" lon="-0.9558967433042234"><ele>135.0</ele><time>2026-04-29T17:56:11Z</time></trkpt><trkpt lat="49.05917223639332" lon="-0.9560605545543293"><ele>135.0</ele><time>2026-04-29T17:56:13Z</time></trkpt><trkpt lat="49.059168032940214" lon="-0.9561833839047569"><ele>135.0</ele><time>2026-04-29T17:56:15Z</time></trkpt><trkpt lat="49.05916555295458" lon="-0.9563219007615533"><ele>135.0</ele><time>2026-04-29T17:56:17Z</time></trkpt><trkpt lat="49.05916383534301" lon="-0.9565165870786054"><ele>135.0</ele><time>2026-04-29T17:56:19Z</time></trkpt><trkpt lat="49.059160554186874" lon="-0.9566378259003696"><ele>135.0</ele><time>2026-04-29T17:56:20Z</time></trkpt><trkpt lat="49.05916395219991" lon="-0.9567487767613398"><ele>134.25</ele><time>2026-04-29T17:56:21Z</time></trkpt><trkpt lat="49.05914924674555" lon="-0.9569235252746517"><ele>133.5</ele><time>2026-04-29T17:56:22Z</time></trkpt><trkpt lat="49.059151737924054" lon="-0.9570958336290125"><ele>132.75</ele><time>2026-04-29T17:56:23Z</time></trkpt><trkpt lat="49.05914565859346" lon="-0.9572880132631898"><ele>132.0</ele><time>2026-04-29T17:56:24Z</time></trkpt><trkpt lat="49.0591223591712" lon="-0.9574623744037014"><ele>131.0</ele><time>2026-04-29T17:56:25Z</time></trkpt><trkpt lat="49.05913263563264" lon="-0.9576914487606779"><ele>130.0</ele><time>2026-04-29T17:56:26Z</time></trkpt><trkpt lat="49.05913512785111" lon="-0.9578981150569503"><ele>129.0</ele><time>2026-04-29T17:56:27Z</time></trkpt><trkpt lat="49.05914555019389" lon="-0.9581330789960115"><ele>128.0</ele><time>2026-04-29T17:56:28Z</time></trkpt><trkpt lat="49.05915088940068" lon="-0.958364089780501"><ele>127.0</ele><time>2026-04-29T17:56:29Z</time></trkpt><trkpt lat="49.05916261558419" lon="-0.9586185880064657"><ele>126.0</ele><time>2026-04-29T17:56:30Z</time></trkpt><trkpt lat="49.05916898176378" lon="-0.9588610362575797"><ele>125.0</ele><time>2026-04-29T17:56:31Z</time></trkpt><trkpt lat="49.059176927131624" lon="-0.9591094048029036"><ele>124.0</ele><time>2026-04-29T17:56:32Z</time></trkpt><trkpt lat="49.0591959370733" lon="-0.959335545088392"><ele>123.0</ele><time>2026-04-29T17:56:33Z</time></trkpt><trkpt lat="49.05921379812365" lon="-0.9595189134832797"><ele>122.0</ele><time>2026-04-29T17:56:34Z</time></trkpt><trkpt lat="49.059230811308666" lon="-0.9597181717152776"><ele>121.0</ele><time>2026-04-29T17:56:35Z</time></trkpt><trkpt lat="49.059229381083455" lon="-0.9599027516179057"><ele>121.0</ele><time>2026-04-29T17:56:36Z</time></trkpt><trkpt lat="49.059259691565" lon="-0.9600497562806095"><ele>121.0</ele><time>2026-04-29T17:56:37Z</time></trkpt><trkpt lat="49.05926378599726" lon="-0.9601974974550304"><ele>121.0</ele><time>2026-04-29T17:56:38Z</time></trkpt><trkpt lat="49.05926576947801" lon="-0.9603428784732555"><ele>121.0</ele><time>2026-04-29T17:56:39Z</time></trkpt><trkpt lat="49.05925362997349" lon="-0.9604995050241709"><ele>121.0</ele><time>2026-04-29T17:56:40Z</time></trkpt><trkpt lat="49.05922793813922" lon="-0.9606825298661072"><ele>121.0</ele><time>2026-04-29T17:56:41Z</time></trkpt><trkpt lat="49.059174722187755" lon="-0.9608563459580757"><ele>121.0</ele><time>2026-04-29T17:56:42Z</time></trkpt><trkpt lat="49.05912403057981" lon="-0.9610099730860766"><ele>121.0</ele><time>2026-04-29T17:56:43Z</time></trkpt><trkpt lat="49.05907847854364" lon="-0.961186959204197"><ele>121.0</ele><time>2026-04-29T17:56:44Z</time></trkpt><trkpt lat="49.05903919187007" lon="-0.9613614894567449"><ele>120.0</ele><time>2026-04-29T17:56:45Z</time></trkpt><trkpt lat="49.059005672006414" lon="-0.9615468120335109"><ele>119.0</ele><time>2026-04-29T17:56:46Z</time></trkpt><trkpt lat="49.05897646159568" lon="-0.9617327963001927"><ele>118.0</ele><time>2026-04-29T17:56:47Z</time></trkpt><trkpt lat="49.05894729407937" lon="-0.9619182856732985"><ele>117.0</ele><time>2026-04-29T17:56:48Z</time></trkpt><trkpt lat="49.05893053404126" lon="-0.9621144495930729"><ele>117.0</ele><time>2026-04-29T17:56:49Z</time></trkpt><trkpt lat="49.058928919232486" lon="-0.9622767575939789"><ele>117.0</ele><time>2026-04-29T17:56:50Z</time></trkpt><trkpt lat="49.05893085850465" lon="-0.9623827827499304"><ele>117.0</ele><time>2026-04-29T17:56:51Z</time></trkpt><trkpt lat="49.059142352263464" lon="-0.9623626746941674"><ele>117.0</ele><time>2026-04-29T17:57:35Z</time></trkpt><trkpt lat="49.05920801349317" lon="-0.9623244887973326"><ele>118.16666666666667</ele><time>2026-04-29T17:57:36Z</time></trkpt><trkpt lat="49.05927481943437" lon="-0.9622859794654176"><ele>119.33333333333334</ele><time>2026-04-29T17:57:37Z</time></trkpt><trkpt lat="49.059356798765506" lon="-0.9622323508657005"><ele>120.5</ele><time>2026-04-29T17:57:38Z</time></trkpt><trkpt lat="49.05944990207749" lon="-0.9621958268111561"><ele>121.66666666666667</ele><time>2026-04-29T17:57:39Z</time></trkpt><trkpt lat="49.05954322488391" lon="-0.9621637830231244"><ele>122.83333333333334</ele><time>2026-04-29T17:57:40Z</time></trkpt><trkpt lat="49.0596285134147" lon="-0.9621355436647753"><ele>124.0</ele><time>2026-04-29T17:57:41Z</time></trkpt><trkpt lat="49.059696751505626" lon="-0.9620943502781141"><ele>124.00000000000001</ele><time>2026-04-29T17:57:42Z</time></trkpt><trkpt lat="49.0597660539031" lon="-0.9620720526100854"><ele>124.0</ele><time>2026-04-29T17:57:43Z</time></trkpt><trkpt lat="49.0598645622708" lon="-0.9620322082188046"><ele>124.0</ele><time>2026-04-29T17:57:44Z</time></trkpt><trkpt lat="49.059947711822176" lon="-0.9619986697311368"><ele>124.0</ele><time>2026-04-29T17:57:45Z</time></trkpt><trkpt lat="49.060020733518435" lon="-0.961963579843149"><ele>124.00000000000001</ele><time>2026-04-29T17:57:46Z</time></trkpt><trkpt lat="49.06009340313513" lon="-0.9618929339151243"><ele>124.0</ele><time>2026-04-29T17:57:48Z</time></trkpt><trkpt lat="49.060161537313554" lon="-0.9618704595816684"><ele>124.6</ele><time>2026-04-29T17:57:51Z</time></trkpt><trkpt lat="49.060273734949014" lon="-0.9618468126808949"><ele>125.2</ele><time>2026-04-29T17:57:53Z</time></trkpt><trkpt lat="49.060344571669994" lon="-0.9618156810446103"><ele>125.79999999999998</ele><time>2026-04-29T17:57:54Z</time></trkpt><trkpt lat="49.06043111938073" lon="-0.9617677894168909"><ele>126.39999999999999</ele><time>2026-04-29T17:57:55Z</time></trkpt><trkpt lat="49.06052225615133" lon="-0.9617027363497227"><ele>127.0</ele><time>2026-04-29T17:57:56Z</time></trkpt><trkpt lat="49.06062749009264" lon="-0.9616263827629373"><ele>127.5</ele><time>2026-04-29T17:57:57Z</time></trkpt><trkpt lat="49.06074748356745" lon="-0.9615393202834324"><ele>128.0</ele><time>2026-04-29T17:57:58Z</time></trkpt><trkpt lat="49.06087253441315" lon="-0.9614453014236675"><ele>128.5</ele><time>2026-04-29T17:57:59Z</time></trkpt><trkpt lat="49.061010372442865" lon="-0.9613369683196612"><ele>129.0</ele><time>2026-04-29T17:58:00Z</time></trkpt><trkpt lat="49.0611436915572" lon="-0.9612316436460132"><ele>130.33333333333334</ele><time>2026-04-29T17:58:01Z</time></trkpt><trkpt lat="49.061296312407364" lon="-0.9611220271540333"><ele>131.66666666666669</ele><time>2026-04-29T17:58:02Z</time></trkpt><trkpt lat="49.06143629232374" lon="-0.9610293380376357"><ele>133.0</ele><time>2026-04-29T17:58:03Z</time></trkpt><trkpt lat="49.061576430094625" lon="-0.9609463602768905"><ele>134.0</ele><time>2026-04-29T17:58:04Z</time></trkpt><trkpt lat="49.0616951965949" lon="-0.9608826556879227"><ele>135.0</ele><time>2026-04-29T17:58:05Z</time></trkpt><trkpt lat="49.06180980176908" lon="-0.9608302948248484"><ele>136.0</ele><time>2026-04-29T17:58:06Z</time></trkpt><trkpt lat="49.06193342914465" lon="-0.9607458193704328"><ele>137.0</ele><time>2026-04-29T17:58:07Z</time></trkpt><trkpt lat="49.0620910294521" lon="-0.9606927718339376"><ele>137.5</ele><time>2026-04-29T17:58:08Z</time></trkpt><trkpt lat="49.06223208079071" lon="-0.9606605681170253"><ele>138.0</ele><time>2026-04-29T17:58:09Z</time></trkpt><trkpt lat="49.062379319889374" lon="-0.9606070889963082"><ele>138.5</ele><time>2026-04-29T17:58:10Z</time></trkpt><trkpt lat="49.06251835454169" lon="-0.9605201621430757"><ele>139.0</ele><time>2026-04-29T17:58:11Z</time></trkpt><trkpt lat="49.062671107721314" lon="-0.9604676423712657"><ele>140.0</ele><time>2026-04-29T17:58:12Z</time></trkpt><trkpt lat="49.06278971738504" lon="-0.9604056368335274"><ele>141.0</ele><time>2026-04-29T17:58:13Z</time></trkpt><trkpt lat="49.06291780004971" lon="-0.9603321078287674"><ele>142.0</ele><time>2026-04-29T17:58:14Z</time></trkpt><trkpt lat="49.06303928039622" lon="-0.9602883666940617"><ele>143.0</ele><time>2026-04-29T17:58:15Z</time></trkpt><trkpt lat="49.063174689241286" lon="-0.9602663963580892"><ele>143.25</ele><time>2026-04-29T17:58:16Z</time></trkpt><trkpt lat="49.06331767908285" lon="-0.960199083174573"><ele>143.5</ele><time>2026-04-29T17:58:17Z</time></trkpt><trkpt lat="49.06346003874694" lon="-0.9601547817378806"><ele>143.75</ele><time>2026-04-29T17:58:18Z</time></trkpt><trkpt lat="49.06360249767788" lon="-0.9601306541331195"><ele>144.0</ele><time>2026-04-29T17:58:19Z</time></trkpt><trkpt lat="49.06373736584492" lon="-0.9600764497809849"><ele>144.0</ele><time>2026-04-29T17:58:20Z</time></trkpt><trkpt lat="49.06385943018333" lon="-0.960044301993056"><ele>144.0</ele><time>2026-04-29T17:58:21Z</time></trkpt><trkpt lat="49.063972252725804" lon="-0.9600142385089577"><ele>144.0</ele><time>2026-04-29T17:58:22Z</time></trkpt><trkpt lat="49.06407201494889" lon="-0.9599862609173387"><ele>144.0</ele><time>2026-04-29T17:58:23Z</time></trkpt><trkpt lat="49.064165768710964" lon="-0.9599584624239248"><ele>144.0</ele><time>2026-04-29T17:58:24Z</time></trkpt><trkpt lat="49.06425366757452" lon="-0.9599255789597527"><ele>143.8</ele><time>2026-04-29T17:58:25Z</time></trkpt><trkpt lat="49.06433844686262" lon="-0.95986219566134"><ele>143.60000000000002</ele><time>2026-04-29T17:58:26Z</time></trkpt><trkpt lat="49.06440923983809" lon="-0.9597789177492314"><ele>143.4</ele><time>2026-04-29T17:58:27Z</time></trkpt><trkpt lat="49.06447234226711" lon="-0.9596619219283669"><ele>143.20000000000002</ele><time>2026-04-29T17:58:28Z</time></trkpt><trkpt lat="49.06455743767717" lon="-0.9595556352264684"><ele>143.0</ele><time>2026-04-29T17:58:29Z</time></trkpt><trkpt lat="49.06466143217155" lon="-0.9594660741821285"><ele>143.0</ele><time>2026-04-29T17:58:30Z</time></trkpt><trkpt lat="49.06479174678887" lon="-0.9593913349050048"><ele>143.0</ele><time>2026-04-29T17:58:31Z</time></trkpt><trkpt lat="49.06492218706296" lon="-0.9593673624930726"><ele>143.0</ele><time>2026-04-29T17:58:32Z</time></trkpt><trkpt lat="49.06505013085049" lon="-0.9592949437603158"><ele>143.0</ele><time>2026-04-29T17:58:33Z</time></trkpt><trkpt lat="49.06517870286261" lon="-0.9592670597873971"><ele>142.5</ele><time>2026-04-29T17:58:34Z</time></trkpt><trkpt lat="49.06528586078667" lon="-0.9592228649600607"><ele>142.0</ele><time>2026-04-29T17:58:35Z</time></trkpt><trkpt lat="49.06538476029784" lon="-0.9591882329179056"><ele>141.5</ele><time>2026-04-29T17:58:36Z</time></trkpt><trkpt lat="49.06547491049116" lon="-0.9591894047664196"><ele>141.0</ele><time>2026-04-29T17:58:37Z</time></trkpt><trkpt lat="49.06547169734966" lon="-0.9594595583091761"><ele>140.5</ele><time>2026-04-29T17:58:45Z</time></trkpt><trkpt lat="49.065437825032355" lon="-0.9595501074506038"><ele>140.0</ele><time>2026-04-29T17:58:47Z</time></trkpt><trkpt lat="49.06538203134402" lon="-0.9596539048468556"><ele>139.5</ele><time>2026-04-29T17:58:51Z</time></trkpt><trkpt lat="49.06532610951382" lon="-0.9597557173882015"><ele>139.0</ele><time>2026-04-29T17:58:53Z</time></trkpt><trkpt lat="49.065280254090474" lon="-0.9598571900863595"><ele>138.5</ele><time>2026-04-29T17:58:58Z</time></trkpt><trkpt lat="49.06524060961795" lon="-0.9599495675048102"><ele>138.0</ele><time>2026-04-29T17:59:01Z</time></trkpt><trkpt lat="49.065205465642315" lon="-0.9600436183192337"><ele>138.0</ele><time>2026-04-29T17:59:05Z</time></trkpt><trkpt lat="49.06516820470997" lon="-0.960130223685964"><ele>138.0</ele><time>2026-04-29T17:59:20Z</time></trkpt><trkpt lat="49.06509196653086" lon="-0.9603030443670401"><ele>138.0</ele><time>2026-04-29T17:59:22Z</time></trkpt><trkpt lat="49.06502309106989" lon="-0.9604252978117137"><ele>138.0</ele><time>2026-04-29T17:59:23Z</time></trkpt><trkpt lat="49.06494559814343" lon="-0.9606056957643985"><ele>138.66666666666666</ele><time>2026-04-29T17:59:24Z</time></trkpt><trkpt lat="49.06487272697723" lon="-0.9608105990318313"><ele>139.33333333333331</ele><time>2026-04-29T17:59:25Z</time></trkpt><trkpt lat="49.06480376937111" lon="-0.9610183835352477"><ele>140.0</ele><time>2026-04-29T17:59:26Z</time></trkpt><trkpt lat="49.06473886537487" lon="-0.9612307115559119"><ele>140.0</ele><time>2026-04-29T17:59:27Z</time></trkpt><trkpt lat="49.064672354026705" lon="-0.9614403823104186"><ele>140.0</ele><time>2026-04-29T17:59:28Z</time></trkpt><trkpt lat="49.064603094377134" lon="-0.9616477865648422"><ele>140.0</ele><time>2026-04-29T17:59:29Z</time></trkpt><trkpt lat="49.06455727108811" lon="-0.9618715402755049"><ele>139.66666666666666</ele><time>2026-04-29T17:59:30Z</time></trkpt><trkpt lat="49.06454038503602" lon="-0.9621104684579459"><ele>139.33333333333334</ele><time>2026-04-29T17:59:31Z</time></trkpt><trkpt lat="49.06453206861629" lon="-0.9623531358738363"><ele>139.0</ele><time>2026-04-29T17:59:32Z</time></trkpt><trkpt lat="49.06451562171476" lon="-0.9626000647575037"><ele>138.66666666666669</ele><time>2026-04-29T17:59:33Z</time></trkpt><trkpt lat="49.06448918616079" lon="-0.9628463416188725"><ele>138.33333333333334</ele><time>2026-04-29T17:59:34Z</time></trkpt><trkpt lat="49.06445006418533" lon="-0.9631021810398054"><ele>138.0</ele><time>2026-04-29T17:59:35Z</time></trkpt><trkpt lat="49.06440758434025" lon="-0.9633556346989965"><ele>138.0</ele><time>2026-04-29T17:59:36Z</time></trkpt><trkpt lat="49.06437331400266" lon="-0.9636094467413961"><ele>138.0</ele><time>2026-04-29T17:59:37Z</time></trkpt><trkpt lat="49.064342027693584" lon="-0.9638721719373052"><ele>138.0</ele><time>2026-04-29T17:59:38Z</time></trkpt><trkpt lat="49.06430602250156" lon="-0.9641448583845783"><ele>137.66666666666666</ele><time>2026-04-29T17:59:39Z</time></trkpt><trkpt lat="49.06429465514312" lon="-0.9644033756684607"><ele>137.33333333333331</ele><time>2026-04-29T17:59:40Z</time></trkpt><trkpt lat="49.06423853577681" lon="-0.9646647982586893"><ele>137.0</ele><time>2026-04-29T17:59:41Z</time></trkpt><trkpt lat="49.06421457489551" lon="-0.9649095187004217"><ele>136.0</ele><time>2026-04-29T17:59:42Z</time></trkpt><trkpt lat="49.06419816463994" lon="-0.9650908448201471"><ele>135.0</ele><time>2026-04-29T17:59:43Z</time></trkpt><trkpt lat="49.064146537786236" lon="-0.9654868126385492"><ele>134.0</ele><time>2026-04-29T17:59:44Z</time></trkpt><trkpt lat="49.06412639848343" lon="-0.9657398969956997"><ele>134.0</ele><time>2026-04-29T17:59:45Z</time></trkpt><trkpt lat="49.06409334917375" lon="-0.9659963422028367"><ele>134.0</ele><time>2026-04-29T17:59:46Z</time></trkpt><trkpt lat="49.06405153790947" lon="-0.9662630826399305"><ele>134.0</ele><time>2026-04-29T17:59:47Z</time></trkpt><trkpt lat="49.06400822477123" lon="-0.966521553559465"><ele>133.0</ele><time>2026-04-29T17:59:48Z</time></trkpt><trkpt lat="49.063960787818225" lon="-0.9667834635776382"><ele>132.0</ele><time>2026-04-29T17:59:49Z</time></trkpt><trkpt lat="49.06391597039752" lon="-0.9670276197465185"><ele>131.0</ele><time>2026-04-29T17:59:50Z</time></trkpt><trkpt lat="49.06386896805079" lon="-0.967234736026757"><ele>131.0</ele><time>2026-04-29T17:59:51Z</time></trkpt><trkpt lat="49.063784435375496" lon="-0.9673988360237278"><ele>131.0</ele><time>2026-04-29T17:59:52Z</time></trkpt><trkpt lat="49.06368691065336" lon="-0.9675493867037234"><ele>131.0</ele><time>2026-04-29T17:59:53Z</time></trkpt><trkpt lat="49.06357414950782" lon="-0.96772292924475"><ele>131.0</ele><time>2026-04-29T17:59:54Z</time></trkpt><trkpt lat="49.06345528332888" lon="-0.9678890438032143"><ele>130.75</ele><time>2026-04-29T17:59:55Z</time></trkpt><trkpt lat="49.06335080552674" lon="-0.9680544555791144"><ele>130.5</ele><time>2026-04-29T17:59:56Z</time></trkpt><trkpt lat="49.06326901140851" lon="-0.9682096616899291"><ele>130.25</ele><time>2026-04-29T17:59:57Z</time></trkpt><trkpt lat="49.06321368202239" lon="-0.968374655462035"><ele>130.0</ele><time>2026-04-29T17:59:58Z</time></trkpt><trkpt lat="49.06314850773845" lon="-0.9685091543141991"><ele>129.4</ele><time>2026-04-29T17:59:59Z</time></trkpt><trkpt lat="49.06310250233296" lon="-0.9686398823291735"><ele>128.8</ele><time>2026-04-29T18:00:00Z</time></trkpt><trkpt lat="49.06305954939715" lon="-0.9687640179633678"><ele>128.2</ele><time>2026-04-29T18:00:01Z</time></trkpt><trkpt lat="49.06302249615116" lon="-0.968873047348374"><ele>127.6</ele><time>2026-04-29T18:00:02Z</time></trkpt><trkpt lat="49.0629752440224" lon="-0.9690055723211376"><ele>127.0</ele><time>2026-04-29T18:00:03Z</time></trkpt><trkpt lat="49.0629257754492" lon="-0.9691244992142545"><ele>126.8</ele><time>2026-04-29T18:00:36Z</time></trkpt><trkpt lat="49.06290346812237" lon="-0.9692314855037384"><ele>126.6</ele><time>2026-04-29T18:00:39Z</time></trkpt><trkpt lat="49.06305487011043" lon="-0.9692297082845975"><ele>126.39999999999999</ele><time>2026-04-29T18:00:41Z</time></trkpt><trkpt lat="49.063150594368025" lon="-0.9692083271748756"><ele>126.19999999999999</ele><time>2026-04-29T18:00:42Z</time></trkpt><trkpt lat="49.06325515342585" lon="-0.9692298806131705"><ele>126.0</ele><time>2026-04-29T18:00:43Z</time></trkpt><trkpt lat="49.063371688251465" lon="-0.969232791012793"><ele>127.0</ele><time>2026-04-29T18:00:44Z</time></trkpt><trkpt lat="49.06349821110396" lon="-0.9692164270289095"><ele>128.0</ele><time>2026-04-29T18:00:45Z</time></trkpt><trkpt lat="49.06363576613415" lon="-0.9692320087174396"><ele>129.0</ele><time>2026-04-29T18:00:46Z</time></trkpt><trkpt lat="49.06378265431188" lon="-0.9692236736131844"><ele>130.0</ele><time>2026-04-29T18:00:47Z</time></trkpt><trkpt lat="49.063933498179175" lon="-0.9692271143597044"><ele>130.0</ele><time>2026-04-29T18:00:48Z</time></trkpt><trkpt lat="49.06406206291711" lon="-0.9692361935782421"><ele>130.0</ele><time>2026-04-29T18:00:49Z</time></trkpt><trkpt lat="49.06415847562658" lon="-0.9691714506176863"><ele>130.0</ele><time>2026-04-29T18:00:50Z</time></trkpt><trkpt lat="49.064404759349664" lon="-0.9692327532684718"><ele>129.33333333333334</ele><time>2026-04-29T18:00:51Z</time></trkpt><trkpt lat="49.06457358837035" lon="-0.9692374228020106"><ele>128.66666666666666</ele><time>2026-04-29T18:00:52Z</time></trkpt><trkpt lat="49.064738573186546" lon="-0.9692671107349642"><ele>128.0</ele><time>2026-04-29T18:00:53Z</time></trkpt><trkpt lat="49.06490248661552" lon="-0.9692772379280016"><ele>128.0</ele><time>2026-04-29T18:00:54Z</time></trkpt><trkpt lat="49.065066146300914" lon="-0.9692785356960782"><ele>128.0</ele><time>2026-04-29T18:00:55Z</time></trkpt><trkpt lat="49.065232366755076" lon="-0.9692906793189653"><ele>128.0</ele><time>2026-04-29T18:00:56Z</time></trkpt><trkpt lat="49.065393230231024" lon="-0.9693058112719494"><ele>128.0</ele><time>2026-04-29T18:00:57Z</time></trkpt><trkpt lat="49.06554804345613" lon="-0.9693115576020601"><ele>128.0</ele><time>2026-04-29T18:00:58Z</time></trkpt><trkpt lat="49.065697850946464" lon="-0.9693201669372734"><ele>128.0</ele><time>2026-04-29T18:00:59Z</time></trkpt><trkpt lat="49.06585442990393" lon="-0.9693333269818237"><ele>127.0</ele><time>2026-04-29T18:01:00Z</time></trkpt><trkpt lat="49.06600812027899" lon="-0.9693444734307735"><ele>126.0</ele><time>2026-04-29T18:01:01Z</time></trkpt><trkpt lat="49.0661565533336" lon="-0.9693427109209204"><ele>125.0</ele><time>2026-04-29T18:01:02Z</time></trkpt><trkpt lat="49.066306443897055" lon="-0.9693068526776254"><ele>125.0</ele><time>2026-04-29T18:01:03Z</time></trkpt><trkpt lat="49.06643666526051" lon="-0.9692965596429358"><ele>125.0</ele><time>2026-04-29T18:01:04Z</time></trkpt><trkpt lat="49.066556815252966" lon="-0.9693038567983254"><ele>125.0</ele><time>2026-04-29T18:01:05Z</time></trkpt><trkpt lat="49.06666783759788" lon="-0.9692959355101672"><ele>125.0</ele><time>2026-04-29T18:01:06Z</time></trkpt><trkpt lat="49.06677482261275" lon="-0.969289290386804"><ele>124.2</ele><time>2026-04-29T18:01:07Z</time></trkpt><trkpt lat="49.066882486265634" lon="-0.9692842119391996"><ele>123.4</ele><time>2026-04-29T18:01:08Z</time></trkpt><trkpt lat="49.06697815918186" lon="-0.9692747885824442"><ele>122.6</ele><time>2026-04-29T18:01:09Z</time></trkpt><trkpt lat="49.067082341505085" lon="-0.9692650524821711"><ele>121.8</ele><time>2026-04-29T18:01:10Z</time></trkpt><trkpt lat="49.06718806945518" lon="-0.9692568460165576"><ele>121.0</ele><time>2026-04-29T18:01:11Z</time></trkpt><trkpt lat="49.06728503340382" lon="-0.9692435398796685"><ele>121.0</ele><time>2026-04-29T18:01:12Z</time></trkpt><trkpt lat="49.06738443442855" lon="-0.9692337458266889"><ele>121.0</ele><time>2026-04-29T18:01:13Z</time></trkpt><trkpt lat="49.06752389172625" lon="-0.9691991068992737"><ele>121.0</ele><time>2026-04-29T18:01:15Z</time></trkpt><trkpt lat="49.067594858318" lon="-0.9691905220003384"><ele>121.0</ele><time>2026-04-29T18:01:17Z</time></trkpt><trkpt lat="49.06761886085609" lon="-0.9693834856462781"><ele>121.0</ele><time>2026-04-29T18:01:18Z</time></trkpt><trkpt lat="49.067668538522355" lon="-0.9695643074884557"><ele>119.83333333333334</ele><time>2026-04-29T18:01:20Z</time></trkpt><trkpt lat="49.06768106010514" lon="-0.9696689587959522"><ele>118.66666666666667</ele><time>2026-04-29T18:01:21Z</time></trkpt><trkpt lat="49.06771255808215" lon="-0.9697705031236127"><ele>117.5</ele><time>2026-04-29T18:01:22Z</time></trkpt><trkpt lat="49.06774415260107" lon="-0.9698796983838412"><ele>116.33333333333334</ele><time>2026-04-29T18:01:23Z</time></trkpt><trkpt lat="49.06777936545865" lon="-0.96999098114971"><ele>115.16666666666667</ele><time>2026-04-29T18:01:24Z</time></trkpt><trkpt lat="49.06780597447085" lon="-0.970099007532172"><ele>114.0</ele><time>2026-04-29T18:01:25Z</time></trkpt><trkpt lat="49.06784344087309" lon="-0.9702187898822835"><ele>113.80000000000001</ele><time>2026-04-29T18:01:26Z</time></trkpt><trkpt lat="49.06787677928201" lon="-0.9703406328764583"><ele>113.60000000000001</ele><time>2026-04-29T18:01:27Z</time></trkpt><trkpt lat="49.067913186306754" lon="-0.9704621655435745"><ele>113.4</ele><time>2026-04-29T18:01:28Z</time></trkpt><trkpt lat="49.06795105885478" lon="-0.970592218144054"><ele>113.2</ele><time>2026-04-29T18:01:29Z</time></trkpt><trkpt lat="49.0680005135405" lon="-0.9707115707290299"><ele>113.0</ele><time>2026-04-29T18:01:30Z</time></trkpt><trkpt lat="49.068013859466774" lon="-0.9708501961340545"><ele>112.80000000000001</ele><time>2026-04-29T18:01:31Z</time></trkpt><trkpt lat="49.068025203215605" lon="-0.9709840250294015"><ele>112.60000000000001</ele><time>2026-04-29T18:01:32Z</time></trkpt><trkpt lat="49.068050780426766" lon="-0.9711263295381903"><ele>112.39999999999999</ele><time>2026-04-29T18:01:33Z</time></trkpt><trkpt lat="49.0680617035606" lon="-0.9712674816969709"><ele>112.19999999999999</ele><time>2026-04-29T18:01:34Z</time></trkpt><trkpt lat="49.06807032843049" lon="-0.9713789348985812"><ele>112.0</ele><time>2026-04-29T18:01:36Z</time></trkpt><trkpt lat="49.068056228083115" lon="-0.9715411107240427"><ele>112.00000000000001</ele><time>2026-04-29T18:01:38Z</time></trkpt><trkpt lat="49.06811733877862" lon="-0.9715919967285096"><ele>112.0</ele><time>2026-04-29T18:01:39Z</time></trkpt><trkpt lat="49.06821975297663" lon="-0.9716917207947037"><ele>112.0</ele><time>2026-04-29T18:01:41Z</time></trkpt><trkpt lat="49.06827104980273" lon="-0.9717720627925065"><ele>112.0</ele><time>2026-04-29T18:01:43Z</time></trkpt><trkpt lat="49.068325753094655" lon="-0.9718544963031547"><ele>112.00000000000001</ele><time>2026-04-29T18:01:44Z</time></trkpt><trkpt lat="49.06838649961061" lon="-0.9719340493106261"><ele>112.0</ele><time>2026-04-29T18:01:45Z</time></trkpt><trkpt lat="49.0684373650637" lon="-0.972020926879556"><ele>109.83333333333334</ele><time>2026-04-29T18:01:46Z</time></trkpt><trkpt lat="49.06849345597268" lon="-0.9721062984154288"><ele>107.66666666666667</ele><time>2026-04-29T18:01:47Z</time></trkpt><trkpt lat="49.068553713632646" lon="-0.9721964407334558"><ele>105.5</ele><time>2026-04-29T18:01:48Z</time></trkpt><trkpt lat="49.068613875680846" lon="-0.9722820699234229"><ele>103.33333333333334</ele><time>2026-04-29T18:01:49Z</time></trkpt><trkpt lat="49.06868230929678" lon="-0.9723744615420917"><ele>101.16666666666667</ele><time>2026-04-29T18:01:50Z</time></trkpt><trkpt lat="49.06876528406574" lon="-0.9724507171260657"><ele>99.0</ele><time>2026-04-29T18:01:51Z</time></trkpt><trkpt lat="49.068851687301105" lon="-0.9725439124997027"><ele>98.6</ele><time>2026-04-29T18:01:52Z</time></trkpt><trkpt lat="49.06894281779511" lon="-0.9726253813235467"><ele>98.2</ele><time>2026-04-29T18:01:53Z</time></trkpt><trkpt lat="49.06901534160083" lon="-0.9727166924677793"><ele>97.8</ele><time>2026-04-29T18:01:54Z</time></trkpt><trkpt lat="49.06907632927183" lon="-0.9728076434206342"><ele>97.39999999999999</ele><time>2026-04-29T18:01:55Z</time></trkpt><trkpt lat="49.069148052487826" lon="-0.9728934770395652"><ele>97.0</ele><time>2026-04-29T18:01:56Z</time></trkpt><trkpt lat="49.06923752212902" lon="-0.9729681347288193"><ele>95.19999999999999</ele><time>2026-04-29T18:01:57Z</time></trkpt><trkpt lat="49.069304115051466" lon="-0.9730440486324827"><ele>93.4</ele><time>2026-04-29T18:01:58Z</time></trkpt><trkpt lat="49.06938005691561" lon="-0.9731397332181131"><ele>91.6</ele><time>2026-04-29T18:01:59Z</time></trkpt><trkpt lat="49.069458057248255" lon="-0.9732022438257166"><ele>89.80000000000001</ele><time>2026-04-29T18:02:00Z</time></trkpt><trkpt lat="49.069533118714574" lon="-0.9733049078598887"><ele>88.0</ele><time>2026-04-29T18:02:01Z</time></trkpt><trkpt lat="49.069610813628344" lon="-0.9734019301081475"><ele>87.33333333333333</ele><time>2026-04-29T18:02:02Z</time></trkpt><trkpt lat="49.06968905402162" lon="-0.9734921561543248"><ele>86.66666666666666</ele><time>2026-04-29T18:02:03Z</time></trkpt><trkpt lat="49.06975853687217" lon="-0.9735800826607305"><ele>86.0</ele><time>2026-04-29T18:02:04Z</time></trkpt><trkpt lat="49.06982475358916" lon="-0.9736574830755284"><ele>85.33333333333333</ele><time>2026-04-29T18:02:05Z</time></trkpt><trkpt lat="49.069904786785536" lon="-0.9737113334651392"><ele>84.66666666666667</ele><time>2026-04-29T18:02:06Z</time></trkpt><trkpt lat="49.069984354352165" lon="-0.9737443441564011"><ele>84.0</ele><time>2026-04-29T18:02:07Z</time></trkpt><trkpt lat="49.070068115294674" lon="-0.9737653964703725"><ele>83.0</ele><time>2026-04-29T18:02:08Z</time></trkpt><trkpt lat="49.0701567236758" lon="-0.9737720871637674"><ele>82.0</ele><time>2026-04-29T18:02:09Z</time></trkpt><trkpt lat="49.07024138497329" lon="-0.9738073295309534"><ele>81.0</ele><time>2026-04-29T18:02:10Z</time></trkpt><trkpt lat="49.070323121351784" lon="-0.9738274944735776"><ele>80.0</ele><time>2026-04-29T18:02:11Z</time></trkpt><trkpt lat="49.07039416419826" lon="-0.9738504179075764"><ele>79.0</ele><time>2026-04-29T18:02:12Z</time></trkpt><trkpt lat="49.070490560281584" lon="-0.9738677223358894"><ele>78.0</ele><time>2026-04-29T18:02:14Z</time></trkpt><trkpt lat="49.070588748608884" lon="-0.9737777299432642"><ele>78.0</ele><time>2026-04-29T18:02:16Z</time></trkpt><trkpt lat="49.0706486841832" lon="-0.9737442723761619"><ele>78.0</ele><time>2026-04-29T18:02:17Z</time></trkpt><trkpt lat="49.0707106826534" lon="-0.9736920963957367"><ele>78.0</ele><time>2026-04-29T18:02:18Z</time></trkpt><trkpt lat="49.07077678080005" lon="-0.973642214595856"><ele>78.0</ele><time>2026-04-29T18:02:19Z</time></trkpt><trkpt lat="49.070855733008365" lon="-0.9735598284634366"><ele>78.0</ele><time>2026-04-29T18:02:20Z</time></trkpt><trkpt lat="49.070925220416925" lon="-0.9734771467339558"><ele>78.0</ele><time>2026-04-29T18:02:21Z</time></trkpt><trkpt lat="49.07099383611765" lon="-0.9734021857245534"><ele>77.28571428571429</ele><time>2026-04-29T18:02:22Z</time></trkpt><trkpt lat="49.07105793294341" lon="-0.9733340305292514"><ele>76.57142857142857</ele><time>2026-04-29T18:02:23Z</time></trkpt><trkpt lat="49.071118622547026" lon="-0.9732723765515088"><ele>75.85714285714286</ele><time>2026-04-29T18:02:24Z</time></trkpt><trkpt lat="49.07116323351656" lon="-0.9732040342049139"><ele>75.14285714285714</ele><time>2026-04-29T18:02:25Z</time></trkpt><trkpt lat="49.07121186206203" lon="-0.9731407079538461"><ele>74.42857142857143</ele><time>2026-04-29T18:02:27Z</time></trkpt><trkpt lat="49.071280484436286" lon="-0.9731852307936767"><ele>73.71428571428571</ele><time>2026-04-29T18:03:31Z</time></trkpt><trkpt lat="49.07133544124508" lon="-0.9732663774556092"><ele>73.0</ele><time>2026-04-29T18:03:37Z</time></trkpt><trkpt lat="49.07139370326224" lon="-0.9733944635266661"><ele>73.0</ele><time>2026-04-29T18:03:40Z</time></trkpt><trkpt lat="49.07142161951755" lon="-0.9734881131883877"><ele>73.0</ele><time>2026-04-29T18:03:43Z</time></trkpt><trkpt lat="49.07141581505155" lon="-0.9735999441147573"><ele>73.0</ele><time>2026-04-29T18:04:30Z</time></trkpt><trkpt lat="49.07129667153683" lon="-0.9737337094113558"><ele>73.0</ele><time>2026-04-29T18:04:32Z</time></trkpt><trkpt lat="49.071231313211655" lon="-0.9738503846809393"><ele>73.0</ele><time>2026-04-29T18:04:33Z</time></trkpt><trkpt lat="49.07118415488792" lon="-0.973978557197395"><ele>73.0</ele><time>2026-04-29T18:04:34Z</time></trkpt><trkpt lat="49.07114521283176" lon="-0.974123092612205"><ele>73.0</ele><time>2026-04-29T18:04:35Z</time></trkpt><trkpt lat="49.071123755185" lon="-0.9742654966026044"><ele>73.0</ele><time>2026-04-29T18:04:36Z</time></trkpt><trkpt lat="49.07111059798587" lon="-0.9743884140407029"><ele>73.0</ele><time>2026-04-29T18:04:37Z</time></trkpt><trkpt lat="49.0711092752365" lon="-0.9745128377752851"><ele>73.0</ele><time>2026-04-29T18:04:38Z</time></trkpt><trkpt lat="49.071113601224724" lon="-0.9746306595695925"><ele>73.0</ele><time>2026-04-29T18:04:39Z</time></trkpt><trkpt lat="49.07109956153945" lon="-0.9748597356375692"><ele>72.83333333333333</ele><time>2026-04-29T18:04:41Z</time></trkpt><trkpt lat="49.071108212645676" lon="-0.9750011855920955"><ele>72.66666666666666</ele><time>2026-04-29T18:04:42Z</time></trkpt><trkpt lat="49.071087422399685" lon="-0.9751330764773001"><ele>72.5</ele><time>2026-04-29T18:04:43Z</time></trkpt><trkpt lat="49.07108067579184" lon="-0.9752781700526477"><ele>72.33333333333333</ele><time>2026-04-29T18:04:44Z</time></trkpt><trkpt lat="49.071068210297895" lon="-0.9754091129219131"><ele>72.16666666666667</ele><time>2026-04-29T18:04:45Z</time></trkpt><trkpt lat="49.071057076220356" lon="-0.9755201963629188"><ele>72.0</ele><time>2026-04-29T18:04:46Z</time></trkpt><trkpt lat="49.07104049386077" lon="-0.9757371372915483"><ele>72.5</ele><time>2026-04-29T18:04:48Z</time></trkpt><trkpt lat="49.071063267346375" lon="-0.9759118682925982"><ele>73.0</ele><time>2026-04-29T18:04:50Z</time></trkpt><trkpt lat="49.07108282388218" lon="-0.9760272172828589"><ele>73.5</ele><time>2026-04-29T18:04:52Z</time></trkpt><trkpt lat="49.071139390628886" lon="-0.976171732381381"><ele>74.0</ele><time>2026-04-29T18:04:54Z</time></trkpt><trkpt lat="49.07116604468694" lon="-0.9762671644724554"><ele>74.5</ele><time>2026-04-29T18:04:55Z</time></trkpt><trkpt lat="49.07118735321416" lon="-0.9763766077186743"><ele>75.0</ele><time>2026-04-29T18:04:56Z</time></trkpt><trkpt lat="49.07119796564876" lon="-0.9765037251528679"><ele>75.0</ele><time>2026-04-29T18:04:57Z</time></trkpt><trkpt lat="49.07120678192928" lon="-0.9766078320569573"><ele>75.0</ele><time>2026-04-29T18:04:58Z</time></trkpt><trkpt lat="49.071196998445544" lon="-0.9767469187310821"><ele>75.0</ele><time>2026-04-29T18:04:59Z</time></trkpt><trkpt lat="49.07118127398517" lon="-0.9768946641208509"><ele>75.0</ele><time>2026-04-29T18:05:00Z</time></trkpt><trkpt lat="49.0711766513828" lon="-0.9770349310495243"><ele>75.0</ele><time>2026-04-29T18:05:01Z</time></trkpt><trkpt lat="49.071182858794685" lon="-0.97714608199501"><ele>75.0</ele><time>2026-04-29T18:05:02Z</time></trkpt><trkpt lat="49.07121567132699" lon="-0.9773400981763903"><ele>76.8</ele><time>2026-04-29T18:05:04Z</time></trkpt><trkpt lat="49.071210604624525" lon="-0.9775244733521903"><ele>78.6</ele><time>2026-04-29T18:05:06Z</time></trkpt><trkpt lat="49.07119491013187" lon="-0.9776347734863096"><ele>80.4</ele><time>2026-04-29T18:05:07Z</time></trkpt><trkpt lat="49.07117447180487" lon="-0.9777657077706162"><ele>82.2</ele><time>2026-04-29T18:05:08Z</time></trkpt><trkpt lat="49.07115542273941" lon="-0.9779211523048055"><ele>84.0</ele><time>2026-04-29T18:05:09Z</time></trkpt><trkpt lat="49.07113179154881" lon="-0.9780714389142969"><ele>84.0</ele><time>2026-04-29T18:05:10Z</time></trkpt><trkpt lat="49.07111067542897" lon="-0.978260188295119"><ele>84.0</ele><time>2026-04-29T18:05:11Z</time></trkpt><trkpt lat="49.071104376328776" lon="-0.9784638889109833"><ele>84.0</ele><time>2026-04-29T18:05:12Z</time></trkpt><trkpt lat="49.0710241354609" lon="-0.9786000642287327"><ele>84.0</ele><time>2026-04-29T18:05:13Z</time></trkpt><trkpt lat="49.07099720014071" lon="-0.9787800462697572"><ele>84.16666666666667</ele><time>2026-04-29T18:05:14Z</time></trkpt><trkpt lat="49.07097706005654" lon="-0.9789464613655332"><ele>84.33333333333333</ele><time>2026-04-29T18:05:15Z</time></trkpt><trkpt lat="49.07097146568928" lon="-0.9790773355487388"><ele>84.5</ele><time>2026-04-29T18:05:16Z</time></trkpt><trkpt lat="49.07095984535374" lon="-0.9792072972662197"><ele>84.66666666666666</ele><time>2026-04-29T18:05:17Z</time></trkpt><trkpt lat="49.0709418653038" lon="-0.9793280954834829"><ele>84.83333333333333</ele><time>2026-04-29T18:05:18Z</time></trkpt><trkpt lat="49.07092389133532" lon="-0.9794460323382004"><ele>85.0</ele><time>2026-04-29T18:05:19Z</time></trkpt><trkpt lat="49.070873212988715" lon="-0.9796151317481455"><ele>85.0</ele><time>2026-04-29T18:05:20Z</time></trkpt><trkpt lat="49.07079842273963" lon="-0.9798155138665721"><ele>85.0</ele><time>2026-04-29T18:05:21Z</time></trkpt><trkpt lat="49.07072894836527" lon="-0.9800419213191762"><ele>85.0</ele><time>2026-04-29T18:05:22Z</time></trkpt><trkpt lat="49.07065513745751" lon="-0.9802711930662129"><ele>85.0</ele><time>2026-04-29T18:05:23Z</time></trkpt><trkpt lat="49.070594797768784" lon="-0.9804834014419666"><ele>85.0</ele><time>2026-04-29T18:05:24Z</time></trkpt><trkpt lat="49.07054713082718" lon="-0.9806907245603245"><ele>85.0</ele><time>2026-04-29T18:05:25Z</time></trkpt><trkpt lat="49.070504016155766" lon="-0.9808822841018076"><ele>85.0</ele><time>2026-04-29T18:05:26Z</time></trkpt><trkpt lat="49.0704677208232" lon="-0.9810474642974295"><ele>85.0</ele><time>2026-04-29T18:05:27Z</time></trkpt><trkpt lat="49.07043310297801" lon="-0.9811997426928128"><ele>85.0</ele><time>2026-04-29T18:05:28Z</time></trkpt><trkpt lat="49.07039613733715" lon="-0.9813266142598424"><ele>85.0</ele><time>2026-04-29T18:05:29Z</time></trkpt><trkpt lat="49.07035839287848" lon="-0.9814407114682004"><ele>85.0</ele><time>2026-04-29T18:05:30Z</time></trkpt><trkpt lat="49.07031411928566" lon="-0.9815418059544424"><ele>85.0</ele><time>2026-04-29T18:05:31Z</time></trkpt><trkpt lat="49.070263885549274" lon="-0.9816366036931007"><ele>85.0</ele><time>2026-04-29T18:05:32Z</time></trkpt><trkpt lat="49.07020801258382" lon="-0.9817137999810254"><ele>84.16666666666666</ele><time>2026-04-29T18:05:33Z</time></trkpt><trkpt lat="49.07015287757127" lon="-0.9817972999010469"><ele>83.33333333333333</ele><time>2026-04-29T18:05:34Z</time></trkpt><trkpt lat="49.070097288846206" lon="-0.9818664814521637"><ele>82.5</ele><time>2026-04-29T18:05:35Z</time></trkpt><trkpt lat="49.070039629044494" lon="-0.9819474191842842"><ele>81.66666666666667</ele><time>2026-04-29T18:05:36Z</time></trkpt><trkpt lat="49.06997333905961" lon="-0.9820199280644972"><ele>80.83333333333334</ele><time>2026-04-29T18:05:37Z</time></trkpt><trkpt lat="49.06989354699241" lon="-0.9820894485636762"><ele>80.0</ele><time>2026-04-29T18:05:38Z</time></trkpt><trkpt lat="49.06981641349468" lon="-0.9821973364479668"><ele>79.25</ele><time>2026-04-29T18:05:39Z</time></trkpt><trkpt lat="49.069723986179746" lon="-0.982286348510259"><ele>78.5</ele><time>2026-04-29T18:05:40Z</time></trkpt><trkpt lat="49.06963766599151" lon="-0.9823932867115847"><ele>77.75</ele><time>2026-04-29T18:05:41Z</time></trkpt><trkpt lat="49.06953898989609" lon="-0.9824916212825927"><ele>77.0</ele><time>2026-04-29T18:05:42Z</time></trkpt><trkpt lat="49.06944541943509" lon="-0.982626609478302"><ele>76.4</ele><time>2026-04-29T18:05:43Z</time></trkpt><trkpt lat="49.06934629144032" lon="-0.982717369494407"><ele>75.80000000000001</ele><time>2026-04-29T18:05:44Z</time></trkpt><trkpt lat="49.069264255940666" lon="-0.9828178851246961"><ele>75.2</ele><time>2026-04-29T18:05:45Z</time></trkpt><trkpt lat="49.06918449335199" lon="-0.9829345391854336"><ele>74.60000000000001</ele><time>2026-04-29T18:05:46Z</time></trkpt><trkpt lat="49.069135228197624" lon="-0.983073590821574"><ele>74.0</ele><time>2026-04-29T18:05:47Z</time></trkpt><trkpt lat="49.069096709316085" lon="-0.9832217286992359"><ele>70.5</ele><time>2026-04-29T18:05:48Z</time></trkpt><trkpt lat="49.06906594367122" lon="-0.9834003064520584"><ele>67.0</ele><time>2026-04-29T18:05:49Z</time></trkpt><trkpt lat="49.06902835562808" lon="-0.983575651585361"><ele>63.5</ele><time>2026-04-29T18:05:50Z</time></trkpt><trkpt lat="49.068973522304574" lon="-0.9837400960242872"><ele>60.0</ele><time>2026-04-29T18:05:51Z</time></trkpt><trkpt lat="49.06894255861123" lon="-0.9839163729250943"><ele>60.0</ele><time>2026-04-29T18:05:52Z</time></trkpt><trkpt lat="49.06890985503713" lon="-0.9841009226100974"><ele>60.0</ele><time>2026-04-29T18:05:53Z</time></trkpt><trkpt lat="49.06887436897184" lon="-0.9842742232924376"><ele>60.0</ele><time>2026-04-29T18:05:54Z</time></trkpt><trkpt lat="49.06885531816337" lon="-0.9844353536017366"><ele>60.0</ele><time>2026-04-29T18:05:55Z</time></trkpt><trkpt lat="49.068842044571994" lon="-0.9845845268661647"><ele>60.6</ele><time>2026-04-29T18:05:56Z</time></trkpt><trkpt lat="49.06880397261331" lon="-0.9847454816062536"><ele>61.2</ele><time>2026-04-29T18:05:57Z</time></trkpt><trkpt lat="49.068756696626124" lon="-0.9848720204501191"><ele>61.8</ele><time>2026-04-29T18:05:58Z</time></trkpt><trkpt lat="49.06870079855478" lon="-0.9850243692680966"><ele>62.4</ele><time>2026-04-29T18:05:59Z</time></trkpt><trkpt lat="49.06865841648749" lon="-0.9851861183563139"><ele>63.0</ele><time>2026-04-29T18:06:00Z</time></trkpt><trkpt lat="49.0686263466453" lon="-0.9853123223853321"><ele>63.4</ele><time>2026-04-29T18:06:01Z</time></trkpt><trkpt lat="49.068607600558934" lon="-0.9854486272232006"><ele>63.8</ele><time>2026-04-29T18:06:02Z</time></trkpt><trkpt lat="49.06860240971063" lon="-0.9856013859438032"><ele>64.2</ele><time>2026-04-29T18:06:03Z</time></trkpt><trkpt lat="49.06857988088415" lon="-0.9857423682420648"><ele>64.6</ele><time>2026-04-29T18:06:04Z</time></trkpt><trkpt lat="49.068569185854976" lon="-0.9858892993396358"><ele>65.0</ele><time>2026-04-29T18:06:05Z</time></trkpt><trkpt lat="49.06855660199174" lon="-0.986042346102737"><ele>65.2</ele><time>2026-04-29T18:06:06Z</time></trkpt><trkpt lat="49.06855558902482" lon="-0.9862106286807503"><ele>65.4</ele><time>2026-04-29T18:06:07Z</time></trkpt><trkpt lat="49.06854506745067" lon="-0.9863488174465559"><ele>65.6</ele><time>2026-04-29T18:06:08Z</time></trkpt><trkpt lat="49.068526055469924" lon="-0.9865196385515993"><ele>65.8</ele><time>2026-04-29T18:06:09Z</time></trkpt><trkpt lat="49.068527799388654" lon="-0.9866812405832018"><ele>66.0</ele><time>2026-04-29T18:06:10Z</time></trkpt><trkpt lat="49.06850809680726" lon="-0.9868285795027624"><ele>66.0</ele><time>2026-04-29T18:06:11Z</time></trkpt><trkpt lat="49.06846574431732" lon="-0.9869725945686866"><ele>66.0</ele><time>2026-04-29T18:06:12Z</time></trkpt><trkpt lat="49.068432309125114" lon="-0.9871126241900775"><ele>66.0</ele><time>2026-04-29T18:06:13Z</time></trkpt><trkpt lat="49.06839109197391" lon="-0.987235134179728"><ele>66.0</ele><time>2026-04-29T18:06:14Z</time></trkpt><trkpt lat="49.06830716204409" lon="-0.9873305005101979"><ele>66.0</ele><time>2026-04-29T18:06:15Z</time></trkpt><trkpt lat="49.068223917599326" lon="-0.9874320117507673"><ele>64.8</ele><time>2026-04-29T18:06:16Z</time></trkpt><trkpt lat="49.068163302606685" lon="-0.9875250927048111"><ele>63.599999999999994</ele><time>2026-04-29T18:06:17Z</time></trkpt><trkpt lat="49.06803117588318" lon="-0.9875598070536511"><ele>62.4</ele><time>2026-04-29T18:06:19Z</time></trkpt><trkpt lat="49.067948551718004" lon="-0.987551557299408"><ele>61.2</ele><time>2026-04-29T18:06:20Z</time></trkpt><trkpt lat="49.067872219915586" lon="-0.9875803969682303"><ele>60.0</ele><time>2026-04-29T18:06:21Z</time></trkpt><trkpt lat="49.06775918873042" lon="-0.987701789025066"><ele>60.0</ele><time>2026-04-29T18:06:23Z</time></trkpt><trkpt lat="49.06769981082738" lon="-0.9877767638158069"><ele>60.0</ele><time>2026-04-29T18:06:24Z</time></trkpt><trkpt lat="49.067656718782494" lon="-0.9878683198792912"><ele>60.0</ele><time>2026-04-29T18:06:25Z</time></trkpt><trkpt lat="49.06762677569954" lon="-0.9879750894001489"><ele>60.0</ele><time>2026-04-29T18:06:26Z</time></trkpt><trkpt lat="49.06759369958136" lon="-0.9881007232224365"><ele>60.0</ele><time>2026-04-29T18:06:27Z</time></trkpt><trkpt lat="49.0675615818121" lon="-0.9882043663556934"><ele>60.0</ele><time>2026-04-29T18:06:28Z</time></trkpt><trkpt lat="49.067544128907166" lon="-0.9883483520656223"><ele>59.6</ele><time>2026-04-29T18:06:29Z</time></trkpt><trkpt lat="49.06752543581503" lon="-0.9884846274258549"><ele>59.2</ele><time>2026-04-29T18:06:30Z</time></trkpt><trkpt lat="49.067497447177274" lon="-0.9886233317286262"><ele>58.8</ele><time>2026-04-29T18:06:31Z</time></trkpt><trkpt lat="49.06747574921026" lon="-0.9887627718006128"><ele>58.4</ele><time>2026-04-29T18:06:32Z</time></trkpt><trkpt lat="49.06745345903464" lon="-0.9889043517802988"><ele>58.0</ele><time>2026-04-29T18:06:33Z</time></trkpt><trkpt lat="49.06743702727686" lon="-0.9890433671815064"><ele>57.4</ele><time>2026-04-29T18:06:34Z</time></trkpt><trkpt lat="49.06741021507831" lon="-0.9891702541627099"><ele>56.8</ele><time>2026-04-29T18:06:35Z</time></trkpt><trkpt lat="49.06739867734238" lon="-0.9893167530394662"><ele>56.2</ele><time>2026-04-29T18:06:36Z</time></trkpt><trkpt lat="49.067399580487894" lon="-0.989467399379276"><ele>55.6</ele><time>2026-04-29T18:06:37Z</time></trkpt><trkpt lat="49.0674087743511" lon="-0.9896178646177369"><ele>55.0</ele><time>2026-04-29T18:06:38Z</time></trkpt><trkpt lat="49.06741721757577" lon="-0.9897845488279384"><ele>54.75</ele><time>2026-04-29T18:06:39Z</time></trkpt><trkpt lat="49.06740968506118" lon="-0.9899718618729415"><ele>54.5</ele><time>2026-04-29T18:06:40Z</time></trkpt><trkpt lat="49.06738298286118" lon="-0.9901553399568291"><ele>54.25</ele><time>2026-04-29T18:06:41Z</time></trkpt><trkpt lat="49.067350309642336" lon="-0.9903320136842753"><ele>54.0</ele><time>2026-04-29T18:06:42Z</time></trkpt><trkpt lat="49.06732102347819" lon="-0.9904746867792754"><ele>53.5</ele><time>2026-04-29T18:06:43Z</time></trkpt><trkpt lat="49.067316392096636" lon="-0.9905988899514465"><ele>53.0</ele><time>2026-04-29T18:06:44Z</time></trkpt><trkpt lat="49.067302663882266" lon="-0.9907014237091817"><ele>52.5</ele><time>2026-04-29T18:06:45Z</time></trkpt><trkpt lat="49.067273297180016" lon="-0.9908192584497947"><ele>52.0</ele><time>2026-04-29T18:06:47Z</time></trkpt><trkpt lat="49.067269588452604" lon="-0.9909234842921335"><ele>51.5</ele><time>2026-04-29T18:06:56Z</time></trkpt><trkpt lat="49.067266627110804" lon="-0.9910586931232593"><ele>51.0</ele><time>2026-04-29T18:07:01Z</time></trkpt><trkpt lat="49.06727416234566" lon="-0.9912376989284944"><ele>51.0</ele><time>2026-04-29T18:07:03Z</time></trkpt><trkpt lat="49.06727015452845" lon="-0.9913510103280758"><ele>51.0</ele><time>2026-04-29T18:07:04Z</time></trkpt><trkpt lat="49.06727218332903" lon="-0.9914602094221404"><ele>51.0</ele><time>2026-04-29T18:07:05Z</time></trkpt><trkpt lat="49.067292081893896" lon="-0.991554526448672"><ele>51.0</ele><time>2026-04-29T18:07:06Z</time></trkpt><trkpt lat="49.067204956995575" lon="-0.9916692237878948"><ele>51.0</ele><time>2026-04-29T18:07:08Z</time></trkpt><trkpt lat="49.0671108800093" lon="-0.9917518137074985"><ele>51.0</ele><time>2026-04-29T18:07:09.999Z</time></trkpt><trkpt lat="49.06711684169405" lon="-0.9916559000547563"><ele>52.25</ele><time>2026-04-29T18:20:16Z</time></trkpt><trkpt lat="49.067063941933235" lon="-0.9919264220666136"><ele>53.5</ele><time>2026-04-29T18:20:17Z</time></trkpt><trkpt lat="49.06711359845343" lon="-0.992114693731924"><ele>54.75</ele><time>2026-04-29T18:20:19Z</time></trkpt><trkpt lat="49.067140312909366" lon="-0.9922333361459672"><ele>56.0</ele><time>2026-04-29T18:20:20Z</time></trkpt><trkpt lat="49.06716503976438" lon="-0.992351744063048"><ele>56.00000000000001</ele><time>2026-04-29T18:20:21Z</time></trkpt><trkpt lat="49.06718226001116" lon="-0.9924782721770904"><ele>56.0</ele><time>2026-04-29T18:20:22Z</time></trkpt><trkpt lat="49.067199479841655" lon="-0.9925893812364806"><ele>56.0</ele><time>2026-04-29T18:20:23Z</time></trkpt><trkpt lat="49.06721391704364" lon="-0.9927024731609947"><ele>56.0</ele><time>2026-04-29T18:20:24Z</time></trkpt><trkpt lat="49.06722348116146" lon="-0.9928196606665166"><ele>56.00000000000001</ele><time>2026-04-29T18:20:25Z</time></trkpt><trkpt lat="49.067227632276285" lon="-0.9929386610040851"><ele>56.0</ele><time>2026-04-29T18:20:26Z</time></trkpt><trkpt lat="49.06722472165228" lon="-0.9930601534911941"><ele>56.16666666666667</ele><time>2026-04-29T18:20:27Z</time></trkpt><trkpt lat="49.06720785423107" lon="-0.9931841563452191"><ele>56.333333333333336</ele><time>2026-04-29T18:20:28Z</time></trkpt><trkpt lat="49.06721408462834" lon="-0.9933087521735998"><ele>56.5</ele><time>2026-04-29T18:20:29Z</time></trkpt><trkpt lat="49.06722407618873" lon="-0.9934326878666782"><ele>56.66666666666667</ele><time>2026-04-29T18:20:30Z</time></trkpt><trkpt lat="49.06725837440245" lon="-0.9935610385758112"><ele>56.833333333333336</ele><time>2026-04-29T18:20:31Z</time></trkpt><trkpt lat="49.06731645814934" lon="-0.9936696816390128"><ele>57.0</ele><time>2026-04-29T18:20:32Z</time></trkpt><trkpt lat="49.06738194247211" lon="-0.9937874009170318"><ele>57.0</ele><time>2026-04-29T18:20:33Z</time></trkpt><trkpt lat="49.0674560830578" lon="-0.9939135195466855"><ele>57.0</ele><time>2026-04-29T18:20:34Z</time></trkpt><trkpt lat="49.06753752609556" lon="-0.9940548245068043"><ele>57.0</ele><time>2026-04-29T18:20:35Z</time></trkpt><trkpt lat="49.067621333353095" lon="-0.9942029679699902"><ele>57.0</ele><time>2026-04-29T18:20:36Z</time></trkpt><trkpt lat="49.067705706167324" lon="-0.9943609323628387"><ele>57.0</ele><time>2026-04-29T18:20:37Z</time></trkpt><trkpt lat="49.067786368197865" lon="-0.9945135266078975"><ele>57.0</ele><time>2026-04-29T18:20:38Z</time></trkpt><trkpt lat="49.06785783631397" lon="-0.9946477575323902"><ele>57.0</ele><time>2026-04-29T18:20:39Z</time></trkpt><trkpt lat="49.067906166742986" lon="-0.9947370564289382"><ele>57.0</ele><time>2026-04-29T18:20:40Z</time></trkpt><trkpt lat="49.06798039329449" lon="-0.9948742027652683"><ele>57.0</ele><time>2026-04-29T18:20:42Z</time></trkpt><trkpt lat="49.06804536818766" lon="-0.9950158748349255"><ele>57.333333333333336</ele><time>2026-04-29T18:20:44Z</time></trkpt><trkpt lat="49.06811058406994" lon="-0.9951308269990305"><ele>57.66666666666667</ele><time>2026-04-29T18:20:46Z</time></trkpt><trkpt lat="49.06814714495083" lon="-0.9952091653883381"><ele>58.0</ele><time>2026-04-29T18:20:51Z</time></trkpt><trkpt lat="49.068189358892354" lon="-0.9953029127203749"><ele>58.333333333333336</ele><time>2026-04-29T18:21:19.999Z</time></trkpt><trkpt lat="49.068234164521854" lon="-0.9954546916339371"><ele>58.66666666666667</ele><time>2026-04-29T18:21:21.999Z</time></trkpt><trkpt lat="49.068291065070596" lon="-0.995538210935221"><ele>59.0</ele><time>2026-04-29T18:21:24.999Z</time></trkpt><trkpt lat="49.06823338402632" lon="-0.9953954254469416"><ele>59.0</ele><time>2026-04-29T18:21:27.999Z</time></trkpt><trkpt lat="49.06818574469469" lon="-0.9952725994439239"><ele>59.0</ele><time>2026-04-29T18:21:28.999Z</time></trkpt><trkpt lat="49.06812993964422" lon="-0.9951309896268116"><ele>59.0</ele><time>2026-04-29T18:21:29.999Z</time></trkpt><trkpt lat="49.06805056825283" lon="-0.9949812975846011"><ele>59.0</ele><time>2026-04-29T18:21:30.999Z</time></trkpt><trkpt lat="49.06794577662596" lon="-0.9948381772662841"><ele>58.5</ele><time>2026-04-29T18:21:31.999Z</time></trkpt><trkpt lat="49.067863526918394" lon="-0.9946675672607966"><ele>58.0</ele><time>2026-04-29T18:21:32.999Z</time></trkpt><trkpt lat="49.06779078394745" lon="-0.9944840524257392"><ele>57.5</ele><time>2026-04-29T18:21:33.999Z</time></trkpt><trkpt lat="49.0676982903549" lon="-0.9943131559381837"><ele>57.0</ele><time>2026-04-29T18:21:34.999Z</time></trkpt><trkpt lat="49.067565979064355" lon="-0.9941201424774233"><ele>57.0</ele><time>2026-04-29T18:21:35.999Z</time></trkpt><trkpt lat="49.06747461104674" lon="-0.9939244900878842"><ele>57.0</ele><time>2026-04-29T18:21:36.999Z</time></trkpt><trkpt lat="49.06737432420536" lon="-0.9937546101410977"><ele>57.0</ele><time>2026-04-29T18:21:37.999Z</time></trkpt><trkpt lat="49.067281219831635" lon="-0.9936410239465008"><ele>57.0</ele><time>2026-04-29T18:21:38.999Z</time></trkpt><trkpt lat="49.06723386056569" lon="-0.9934808180929554"><ele>57.0</ele><time>2026-04-29T18:21:39.999Z</time></trkpt><trkpt lat="49.0671471207296" lon="-0.9933528397111635"><ele>57.0</ele><time>2026-04-29T18:21:40.999Z</time></trkpt><trkpt lat="49.06716464963525" lon="-0.9931295654834948"><ele>57.0</ele><time>2026-04-29T18:21:41.999Z</time></trkpt><trkpt lat="49.06717811470858" lon="-0.9929325040623319"><ele>57.0</ele><time>2026-04-29T18:21:42.999Z</time></trkpt><trkpt lat="49.0672067784026" lon="-0.9927343379711716"><ele>57.0</ele><time>2026-04-29T18:21:43.999Z</time></trkpt><trkpt lat="49.0671945365533" lon="-0.9925454463354283"><ele>57.0</ele><time>2026-04-29T18:21:44.999Z</time></trkpt><trkpt lat="49.06713713569092" lon="-0.992385291578245"><ele>57.0</ele><time>2026-04-29T18:21:45.999Z</time></trkpt><trkpt lat="49.06710525788263" lon="-0.992232640488308"><ele>57.0</ele><time>2026-04-29T18:21:46.999Z</time></trkpt><trkpt lat="49.06709372727155" lon="-0.9921136706030477"><ele>57.0</ele><time>2026-04-29T18:21:47.999Z</time></trkpt><trkpt lat="49.06704873790626" lon="-0.9920394636754687"><ele>56.833333333333336</ele><time>2026-04-29T18:21:48.999Z</time></trkpt><trkpt lat="49.067008495892416" lon="-0.9919639894498129"><ele>56.66666666666667</ele><time>2026-04-29T18:21:50.999Z</time></trkpt><trkpt lat="49.06703648787605" lon="-0.9918618156516121"><ele>56.5</ele><time>2026-04-29T18:21:51.999Z</time></trkpt><trkpt lat="49.06707596580192" lon="-0.9917535754450434"><ele>56.333333333333336</ele><time>2026-04-29T18:21:52.999Z</time></trkpt><trkpt lat="49.067131453260075" lon="-0.9916461039479995"><ele>56.16666666666667</ele><time>2026-04-29T18:21:53.999Z</time></trkpt><trkpt lat="49.06722358946784" lon="-0.991584020356279"><ele>56.0</ele><time>2026-04-29T18:21:54.999Z</time></trkpt><trkpt lat="49.067333748004515" lon="-0.9915543836657283"><ele>55.5</ele><time>2026-04-29T18:21:55.999Z</time></trkpt><trkpt lat="49.06745222187243" lon="-0.9915482806280954"><ele>55.0</ele><time>2026-04-29T18:21:56.999Z</time></trkpt><trkpt lat="49.06757807639502" lon="-0.9915598167630567"><ele>54.5</ele><time>2026-04-29T18:21:57.999Z</time></trkpt><trkpt lat="49.06770123179768" lon="-0.9915577430274084"><ele>54.0</ele><time>2026-04-29T18:21:58.999Z</time></trkpt><trkpt lat="49.06782674193368" lon="-0.9915573265531038"><ele>54.0</ele><time>2026-04-29T18:21:59.999Z</time></trkpt><trkpt lat="49.0679438306667" lon="-0.9916027128333575"><ele>54.0</ele><time>2026-04-29T18:22:00.999Z</time></trkpt><trkpt lat="49.06804534885513" lon="-0.9916875366494304"><ele>54.0</ele><time>2026-04-29T18:22:01.999Z</time></trkpt><trkpt lat="49.06814352500031" lon="-0.9917948732111718"><ele>54.0</ele><time>2026-04-29T18:22:02.999Z</time></trkpt><trkpt lat="49.06823535273636" lon="-0.9919532739862746"><ele>54.5</ele><time>2026-04-29T18:22:03.999Z</time></trkpt><trkpt lat="49.06834759942071" lon="-0.9920628148132644"><ele>55.0</ele><time>2026-04-29T18:22:04.999Z</time></trkpt><trkpt lat="49.068450959151505" lon="-0.9921902604462288"><ele>55.5</ele><time>2026-04-29T18:22:05.999Z</time></trkpt><trkpt lat="49.06854952378062" lon="-0.9923410998908561"><ele>56.0</ele><time>2026-04-29T18:22:07Z</time></trkpt><trkpt lat="49.06867568124955" lon="-0.992478582812871"><ele>56.0</ele><time>2026-04-29T18:22:08Z</time></trkpt><trkpt lat="49.06878930981464" lon="-0.9926150706094827"><ele>56.0</ele><time>2026-04-29T18:22:09Z</time></trkpt><trkpt lat="49.06891451790582" lon="-0.9927150526534659"><ele>56.0</ele><time>2026-04-29T18:22:10Z</time></trkpt><trkpt lat="49.06904164966732" lon="-0.9928148551410214"><ele>56.0</ele><time>2026-04-29T18:22:11Z</time></trkpt><trkpt lat="49.069176378494916" lon="-0.992905849500402"><ele>56.66666666666667</ele><time>2026-04-29T18:22:12Z</time></trkpt><trkpt lat="49.06927601818167" lon="-0.9929902431714441"><ele>57.333333333333336</ele><time>2026-04-29T18:22:13Z</time></trkpt><trkpt lat="49.06935467005208" lon="-0.9930495808532975"><ele>58.0</ele><time>2026-04-29T18:22:14Z</time></trkpt><trkpt lat="49.06941536489902" lon="-0.9930951620909079"><ele>58.66666666666667</ele><time>2026-04-29T18:22:15Z</time></trkpt><trkpt lat="49.06948286140765" lon="-0.9931136693499166"><ele>59.333333333333336</ele><time>2026-04-29T18:22:16Z</time></trkpt><trkpt lat="49.06954655255242" lon="-0.9930530531537235"><ele>60.0</ele><time>2026-04-29T18:22:17Z</time></trkpt><trkpt lat="49.06960068903441" lon="-0.9929527730248611"><ele>60.0</ele><time>2026-04-29T18:22:18Z</time></trkpt><trkpt lat="49.06963398485364" lon="-0.9928083066727581"><ele>60.0</ele><time>2026-04-29T18:22:19Z</time></trkpt><trkpt lat="49.06966765468208" lon="-0.9926535913089719"><ele>60.0</ele><time>2026-04-29T18:22:20Z</time></trkpt><trkpt lat="49.06970448657398" lon="-0.9924855494068917"><ele>60.0</ele><time>2026-04-29T18:22:21Z</time></trkpt><trkpt lat="49.06972690421223" lon="-0.9922974968909339"><ele>60.0</ele><time>2026-04-29T18:22:22Z</time></trkpt><trkpt lat="49.069722174254096" lon="-0.9921112384857255"><ele>59.8</ele><time>2026-04-29T18:22:23Z</time></trkpt><trkpt lat="49.069711255750136" lon="-0.9919348963548329"><ele>59.6</ele><time>2026-04-29T18:22:24Z</time></trkpt><trkpt lat="49.06972248232879" lon="-0.9917905998340224"><ele>59.400000000000006</ele><time>2026-04-29T18:22:25Z</time></trkpt><trkpt lat="49.06975956514676" lon="-0.991664583799926"><ele>59.2</ele><time>2026-04-29T18:22:26Z</time></trkpt><trkpt lat="49.06981215008572" lon="-0.9915712650905955"><ele>59.0</ele><time>2026-04-29T18:22:27Z</time></trkpt><trkpt lat="49.0698749920113" lon="-0.9914786632844614"><ele>59.2</ele><time>2026-04-29T18:22:28Z</time></trkpt><trkpt lat="49.06994125424625" lon="-0.9913726602101952"><ele>59.400000000000006</ele><time>2026-04-29T18:22:29Z</time></trkpt><trkpt lat="49.06999592564758" lon="-0.9912495260891208"><ele>59.6</ele><time>2026-04-29T18:22:30Z</time></trkpt><trkpt lat="49.07001656793959" lon="-0.9910952921887389"><ele>59.8</ele><time>2026-04-29T18:22:31Z</time></trkpt><trkpt lat="49.07005264251526" lon="-0.9909461175269879"><ele>60.0</ele><time>2026-04-29T18:22:32Z</time></trkpt><trkpt lat="49.07010153016063" lon="-0.9907834087926666"><ele>59.5</ele><time>2026-04-29T18:22:33Z</time></trkpt><trkpt lat="49.070130574116334" lon="-0.9906087241029815"><ele>59.0</ele><time>2026-04-29T18:22:34Z</time></trkpt><trkpt lat="49.07016465045639" lon="-0.990431521601147"><ele>58.5</ele><time>2026-04-29T18:22:35Z</time></trkpt><trkpt lat="49.07020759376037" lon="-0.9902438107017094"><ele>58.0</ele><time>2026-04-29T18:22:36Z</time></trkpt><trkpt lat="49.07024842642755" lon="-0.9900418838132135"><ele>58.666666666666664</ele><time>2026-04-29T18:22:37Z</time></trkpt><trkpt lat="49.070290804447765" lon="-0.9898293251999346"><ele>59.33333333333333</ele><time>2026-04-29T18:22:38Z</time></trkpt><trkpt lat="49.07034037511075" lon="-0.9896071086671905"><ele>60.0</ele><time>2026-04-29T18:22:39Z</time></trkpt><trkpt lat="49.07038542599521" lon="-0.989386440546177"><ele>59.66666666666667</ele><time>2026-04-29T18:22:40Z</time></trkpt><trkpt lat="49.07043859657708" lon="-0.9891607554020805"><ele>59.333333333333336</ele><time>2026-04-29T18:22:41Z</time></trkpt><trkpt lat="49.070488115249844" lon="-0.9889418819456562"><ele>59.0</ele><time>2026-04-29T18:22:42Z</time></trkpt><trkpt lat="49.070535175294765" lon="-0.9887196341722732"><ele>59.0</ele><time>2026-04-29T18:22:43Z</time></trkpt><trkpt lat="49.070585424363415" lon="-0.9885090353047088"><ele>59.0</ele><time>2026-04-29T18:22:44Z</time></trkpt><trkpt lat="49.070648264686945" lon="-0.9883234144703579"><ele>59.0</ele><time>2026-04-29T18:22:45Z</time></trkpt><trkpt lat="49.07071688790689" lon="-0.9881662916765289"><ele>59.0</ele><time>2026-04-29T18:22:46Z</time></trkpt><trkpt lat="49.070785425813796" lon="-0.9880054203260266"><ele>59.75</ele><time>2026-04-29T18:22:47Z</time></trkpt><trkpt lat="49.07086795825138" lon="-0.9878490421229738"><ele>60.5</ele><time>2026-04-29T18:22:48Z</time></trkpt><trkpt lat="49.07096267785992" lon="-0.9876803023049631"><ele>61.25</ele><time>2026-04-29T18:22:49Z</time></trkpt><trkpt lat="49.07105360000342" lon="-0.9874971567376422"><ele>62.0</ele><time>2026-04-29T18:22:50Z</time></trkpt><trkpt lat="49.07114752607712" lon="-0.9873259914533751"><ele>62.0</ele><time>2026-04-29T18:22:51Z</time></trkpt><trkpt lat="49.071244695688435" lon="-0.9871908259226748"><ele>62.0</ele><time>2026-04-29T18:22:52Z</time></trkpt><trkpt lat="49.071332283480245" lon="-0.987054091464007"><ele>62.0</ele><time>2026-04-29T18:22:53Z</time></trkpt><trkpt lat="49.07143850908938" lon="-0.9869286998983993"><ele>62.0</ele><time>2026-04-29T18:22:54Z</time></trkpt><trkpt lat="49.07153941193912" lon="-0.9868148924285486"><ele>62.5</ele><time>2026-04-29T18:22:55Z</time></trkpt><trkpt lat="49.07163502867431" lon="-0.9867180629488964"><ele>63.0</ele><time>2026-04-29T18:22:56Z</time></trkpt><trkpt lat="49.071739171986515" lon="-0.9866256493367713"><ele>63.5</ele><time>2026-04-29T18:22:57Z</time></trkpt><trkpt lat="49.071851861106914" lon="-0.9865578782859399"><ele>64.0</ele><time>2026-04-29T18:22:57.999Z</time></trkpt><trkpt lat="49.07196918211084" lon="-0.9864855325767458"><ele>64.0</ele><time>2026-04-29T18:22:58.999Z</time></trkpt><trkpt lat="49.072097407254056" lon="-0.9864292069579073"><ele>64.0</ele><time>2026-04-29T18:22:59.999Z</time></trkpt><trkpt lat="49.07221972840659" lon="-0.9863667434187154"><ele>64.0</ele><time>2026-04-29T18:23:00.999Z</time></trkpt><trkpt lat="49.07233907881842" lon="-0.9863076847913168"><ele>64.0</ele><time>2026-04-29T18:23:01.999Z</time></trkpt><trkpt lat="49.072444377866745" lon="-0.98627126627387"><ele>65.0</ele><time>2026-04-29T18:23:02.999Z</time></trkpt><trkpt lat="49.072539410963316" lon="-0.9862411801573386"><ele>66.0</ele><time>2026-04-29T18:23:03.999Z</time></trkpt><trkpt lat="49.07262745224755" lon="-0.9862259336672674"><ele>67.0</ele><time>2026-04-29T18:23:04.999Z</time></trkpt><trkpt lat="49.0727126805369" lon="-0.9862188519304412"><ele>68.0</ele><time>2026-04-29T18:23:05.999Z</time></trkpt><trkpt lat="49.07277908992326" lon="-0.9862147568925105"><ele>69.0</ele><time>2026-04-29T18:23:06.999Z</time></trkpt><trkpt lat="49.072842868150715" lon="-0.9862809130844715"><ele>70.0</ele><time>2026-04-29T18:23:08.999Z</time></trkpt><trkpt lat="49.07283578402792" lon="-0.9864157775464202"><ele>70.0</ele><time>2026-04-29T18:23:10.999Z</time></trkpt><trkpt lat="49.07279409180535" lon="-0.9864928555324659"><ele>70.0</ele><time>2026-04-29T18:23:35.999Z</time></trkpt><trkpt lat="49.07280134273804" lon="-0.9863554695182811"><ele>70.0</ele><time>2026-04-29T18:23:37.999Z</time></trkpt><trkpt lat="49.072795283650066" lon="-0.9862567113786761"><ele>70.0</ele><time>2026-04-29T18:23:39.999Z</time></trkpt><trkpt lat="49.07290378442137" lon="-0.9861499192573869"><ele>70.0</ele><time>2026-04-29T18:23:42.999Z</time></trkpt><trkpt lat="49.072984016631814" lon="-0.9861373522497888"><ele>70.0</ele><time>2026-04-29T18:23:43.999Z</time></trkpt><trkpt lat="49.073076915347734" lon="-0.9861051742018723"><ele>70.0</ele><time>2026-04-29T18:23:44.999Z</time></trkpt><trkpt lat="49.07317483216684" lon="-0.9860607645084711"><ele>70.0</ele><time>2026-04-29T18:23:45.999Z</time></trkpt><trkpt lat="49.07326567470837" lon="-0.985981998864872"><ele>70.0</ele><time>2026-04-29T18:23:46.999Z</time></trkpt><trkpt lat="49.07337863347883" lon="-0.9859425104862494"><ele>70.0</ele><time>2026-04-29T18:23:47.999Z</time></trkpt><trkpt lat="49.07347600073511" lon="-0.985852204603417"><ele>70.0</ele><time>2026-04-29T18:23:48.999Z</time></trkpt><trkpt lat="49.07356825868887" lon="-0.9857594114280888"><ele>69.25</ele><time>2026-04-29T18:23:49.999Z</time></trkpt><trkpt lat="49.07371370956971" lon="-0.9857136166012854"><ele>68.5</ele><time>2026-04-29T18:23:50.999Z</time></trkpt><trkpt lat="49.07382038839895" lon="-0.9855894122548688"><ele>67.75</ele><time>2026-04-29T18:23:51.999Z</time></trkpt><trkpt lat="49.07394445376309" lon="-0.9854864794436007"><ele>67.0</ele><time>2026-04-29T18:23:52.999Z</time></trkpt><trkpt lat="49.07405538279621" lon="-0.9853694985235629"><ele>67.25</ele><time>2026-04-29T18:23:53.999Z</time></trkpt><trkpt lat="49.07416539603228" lon="-0.985241792848585"><ele>67.5</ele><time>2026-04-29T18:23:54.999Z</time></trkpt><trkpt lat="49.0742825696671" lon="-0.9851359667466375"><ele>67.75</ele><time>2026-04-29T18:23:55.999Z</time></trkpt><trkpt lat="49.07438391183526" lon="-0.985041309036475"><ele>68.0</ele><time>2026-04-29T18:23:56.999Z</time></trkpt><trkpt lat="49.07447303913532" lon="-0.984960268879192"><ele>68.0</ele><time>2026-04-29T18:23:57.999Z</time></trkpt><trkpt lat="49.07454785083343" lon="-0.9848879102822469"><ele>68.0</ele><time>2026-04-29T18:23:58.999Z</time></trkpt><trkpt lat="49.07459996902032" lon="-0.9848285900500549"><ele>68.0</ele><time>2026-04-29T18:23:59.999Z</time></trkpt><trkpt lat="49.074696190759774" lon="-0.9848501402973715"><ele>68.0</ele><time>2026-04-29T18:24:01.999Z</time></trkpt><trkpt lat="49.0747439115524" lon="-0.9849563982577355"><ele>68.0</ele><time>2026-04-29T18:24:02.999Z</time></trkpt><trkpt lat="49.07480453813168" lon="-0.985101156182239"><ele>68.0</ele><time>2026-04-29T18:24:03.999Z</time></trkpt><trkpt lat="49.074884809821434" lon="-0.9852252244872374"><ele>69.75</ele><time>2026-04-29T18:24:04.999Z</time></trkpt><trkpt lat="49.074984318774305" lon="-0.9853630597769899"><ele>71.5</ele><time>2026-04-29T18:24:05.999Z</time></trkpt><trkpt lat="49.075086023417384" lon="-0.9854994604410523"><ele>73.25</ele><time>2026-04-29T18:24:06.999Z</time></trkpt><trkpt lat="49.07518324488091" lon="-0.9856358077545233"><ele>75.0</ele><time>2026-04-29T18:24:07.999Z</time></trkpt><trkpt lat="49.075274373918845" lon="-0.9857580746044143"><ele>76.0</ele><time>2026-04-29T18:24:08.999Z</time></trkpt><trkpt lat="49.07534631055123" lon="-0.9858491711517392"><ele>77.0</ele><time>2026-04-29T18:24:09.999Z</time></trkpt><trkpt lat="49.07539082990744" lon="-0.9859356332493181"><ele>78.0</ele><time>2026-04-29T18:24:10.999Z</time></trkpt><trkpt lat="49.07542726602975" lon="-0.9860218466305168"><ele>79.0</ele><time>2026-04-29T18:24:11.999Z</time></trkpt><trkpt lat="49.07548074976954" lon="-0.9860826839239403"><ele>80.0</ele><time>2026-04-29T18:24:13Z</time></trkpt><trkpt lat="49.07554436302932" lon="-0.9861547359693309"><ele>81.0</ele><time>2026-04-29T18:24:14Z</time></trkpt><trkpt lat="49.07562913727579" lon="-0.9862507848087526"><ele>81.0</ele><time>2026-04-29T18:24:15Z</time></trkpt><trkpt lat="49.07570323018854" lon="-0.9863278473976499"><ele>81.0</ele><time>2026-04-29T18:24:16Z</time></trkpt><trkpt lat="49.07578505571649" lon="-0.9863816374875953"><ele>81.0</ele><time>2026-04-29T18:24:17Z</time></trkpt><trkpt lat="49.07584788569882" lon="-0.9864452037663394"><ele>81.0</ele><time>2026-04-29T18:24:18Z</time></trkpt><trkpt lat="49.07595381613252" lon="-0.9865351259788614"><ele>81.0</ele><time>2026-04-29T18:24:19Z</time></trkpt><trkpt lat="49.07605286170795" lon="-0.986629476086787"><ele>83.19999999999999</ele><time>2026-04-29T18:24:20Z</time></trkpt><trkpt lat="49.076138557722494" lon="-0.9866923100281861"><ele>85.39999999999999</ele><time>2026-04-29T18:24:21Z</time></trkpt><trkpt lat="49.07625304993148" lon="-0.9867213966763492"><ele>87.6</ele><time>2026-04-29T18:24:22Z</time></trkpt><trkpt lat="49.07634462993667" lon="-0.9868077937169183"><ele>89.8</ele><time>2026-04-29T18:24:23Z</time></trkpt><trkpt lat="49.076420745494566" lon="-0.986864198163367"><ele>92.0</ele><time>2026-04-29T18:24:24Z</time></trkpt><trkpt lat="49.07651234218032" lon="-0.9869257331823763"><ele>92.0</ele><time>2026-04-29T18:24:25Z</time></trkpt><trkpt lat="49.07660270737223" lon="-0.9869820817686927"><ele>92.0</ele><time>2026-04-29T18:24:26Z</time></trkpt><trkpt lat="49.07667541298642" lon="-0.987021119274028"><ele>92.0</ele><time>2026-04-29T18:24:27Z</time></trkpt><trkpt lat="49.076738125748406" lon="-0.9870498982236545"><ele>92.0</ele><time>2026-04-29T18:24:28Z</time></trkpt><trkpt lat="49.07684516920492" lon="-0.9871080124738919"><ele>92.0</ele><time>2026-04-29T18:24:29Z</time></trkpt><trkpt lat="49.07694409846205" lon="-0.9871293983615095"><ele>93.33333333333334</ele><time>2026-04-29T18:24:30Z</time></trkpt><trkpt lat="49.07703788738125" lon="-0.9871238239113664"><ele>94.66666666666667</ele><time>2026-04-29T18:24:31Z</time></trkpt><trkpt lat="49.07712956165286" lon="-0.9871241208131223"><ele>96.0</ele><time>2026-04-29T18:24:32Z</time></trkpt><trkpt lat="49.07722533226242" lon="-0.9871300113442"><ele>97.33333333333334</ele><time>2026-04-29T18:24:33Z</time></trkpt><trkpt lat="49.07730255315316" lon="-0.9871183288126113"><ele>98.66666666666667</ele><time>2026-04-29T18:24:34Z</time></trkpt><trkpt lat="49.07737679671192" lon="-0.9871210877509224"><ele>100.0</ele><time>2026-04-29T18:24:35Z</time></trkpt><trkpt lat="49.0774441611741" lon="-0.9871310998994304"><ele>101.8</ele><time>2026-04-29T18:24:36Z</time></trkpt><trkpt lat="49.077520142714775" lon="-0.9871504461023727"><ele>103.6</ele><time>2026-04-29T18:24:37Z</time></trkpt><trkpt lat="49.07759564231005" lon="-0.9872214423196748"><ele>105.4</ele><time>2026-04-29T18:24:38Z</time></trkpt><trkpt lat="49.077673397158804" lon="-0.9873188346670283"><ele>107.2</ele><time>2026-04-29T18:24:39Z</time></trkpt><trkpt lat="49.077800905646676" lon="-0.9874021756196203"><ele>109.0</ele><time>2026-04-29T18:24:40Z</time></trkpt><trkpt lat="49.07785554153468" lon="-0.9874679459802033"><ele>109.25</ele><time>2026-04-29T18:24:41Z</time></trkpt><trkpt lat="49.07795399401907" lon="-0.9875366612774179"><ele>109.5</ele><time>2026-04-29T18:24:43Z</time></trkpt><trkpt lat="49.078012225744445" lon="-0.9876125204628127"><ele>109.75</ele><time>2026-04-29T18:24:44Z</time></trkpt><trkpt lat="49.078162630185886" lon="-0.9877456167575599"><ele>110.0</ele><time>2026-04-29T18:24:46Z</time></trkpt><trkpt lat="49.078268701999335" lon="-0.9877922599785081"><ele>110.16666666666666</ele><time>2026-04-29T18:24:48Z</time></trkpt><trkpt lat="49.07839767648413" lon="-0.987815227964335"><ele>110.33333333333333</ele><time>2026-04-29T18:24:50Z</time></trkpt><trkpt lat="49.07847208651794" lon="-0.9878264528564464"><ele>110.5</ele><time>2026-04-29T18:24:51Z</time></trkpt><trkpt lat="49.07854441484743" lon="-0.9878321074623675"><ele>110.66666666666666</ele><time>2026-04-29T18:24:52Z</time></trkpt><trkpt lat="49.07862292618036" lon="-0.9878382454588821"><ele>110.83333333333333</ele><time>2026-04-29T18:24:53Z</time></trkpt><trkpt lat="49.07870028609378" lon="-0.9878461295225475"><ele>111.0</ele><time>2026-04-29T18:24:54Z</time></trkpt><trkpt lat="49.078774894889456" lon="-0.9878538832105783"><ele>111.0</ele><time>2026-04-29T18:24:55Z</time></trkpt><trkpt lat="49.07885219968035" lon="-0.9878872157316759"><ele>111.0</ele><time>2026-04-29T18:24:56Z</time></trkpt><trkpt lat="49.07893109441025" lon="-0.9878864318772093"><ele>111.0</ele><time>2026-04-29T18:24:57Z</time></trkpt><trkpt lat="49.07900719925634" lon="-0.9878967183652648"><ele>111.0</ele><time>2026-04-29T18:24:58Z</time></trkpt><trkpt lat="49.07908725486945" lon="-0.9878990235348415"><ele>111.0</ele><time>2026-04-29T18:24:59Z</time></trkpt><trkpt lat="49.07917524030035" lon="-0.9879242673295042"><ele>111.0</ele><time>2026-04-29T18:25:00Z</time></trkpt><trkpt lat="49.07926002063273" lon="-0.9879735725355896"><ele>112.0</ele><time>2026-04-29T18:25:01Z</time></trkpt><trkpt lat="49.079352969143194" lon="-0.9880221359539766"><ele>113.0</ele><time>2026-04-29T18:25:02Z</time></trkpt><trkpt lat="49.079447834567084" lon="-0.9880673752000059"><ele>114.0</ele><time>2026-04-29T18:25:03Z</time></trkpt><trkpt lat="49.07954548970925" lon="-0.9881132059282643"><ele>115.0</ele><time>2026-04-29T18:25:04Z</time></trkpt><trkpt lat="49.079637486898235" lon="-0.9881513145410099"><ele>116.0</ele><time>2026-04-29T18:25:05Z</time></trkpt><trkpt lat="49.07971109367984" lon="-0.9881541083315674"><ele>115.99999999999999</ele><time>2026-04-29T18:25:06.999Z</time></trkpt><trkpt lat="49.07967786643803" lon="-0.9883048014082392"><ele>116.0</ele><time>2026-04-29T18:25:07.999Z</time></trkpt><trkpt lat="49.079657668828034" lon="-0.9883830580653387"><ele>116.0</ele><time>2026-04-29T18:26:44.999Z</time></trkpt><trkpt lat="49.07966509545608" lon="-0.988533845292558"><ele>116.0</ele><time>2026-04-29T18:26:46.999Z</time></trkpt><trkpt lat="49.0796574043341" lon="-0.9886378949087841"><ele>115.99999999999999</ele><time>2026-04-29T18:26:47.999Z</time></trkpt><trkpt lat="49.07966022280154" lon="-0.9887436600336394"><ele>116.0</ele><time>2026-04-29T18:26:48.999Z</time></trkpt><trkpt lat="49.079658558564745" lon="-0.9888646396078336"><ele>114.6</ele><time>2026-04-29T18:26:49.999Z</time></trkpt><trkpt lat="49.07967623352823" lon="-0.9890881962187082"><ele>113.19999999999999</ele><time>2026-04-29T18:26:51.999Z</time></trkpt><trkpt lat="49.07969462006819" lon="-0.9891902259847949"><ele>111.80000000000001</ele><time>2026-04-29T18:26:52.999Z</time></trkpt><trkpt lat="49.07975782634365" lon="-0.9892784348046649"><ele>110.4</ele><time>2026-04-29T18:26:54.999Z</time></trkpt><trkpt lat="49.07987171944033" lon="-0.9893549258789199"><ele>109.0</ele><time>2026-04-29T18:26:56.999Z</time></trkpt><trkpt lat="49.07999551011584" lon="-0.989457232707572"><ele>109.00000000000001</ele><time>2026-04-29T18:26:58.999Z</time></trkpt><trkpt lat="49.080069885291195" lon="-0.989503475201357"><ele>109.0</ele><time>2026-04-29T18:26:59.999Z</time></trkpt><trkpt lat="49.08014029438439" lon="-0.9895754496828675"><ele>109.0</ele><time>2026-04-29T18:27:00.999Z</time></trkpt><trkpt lat="49.0802153504178" lon="-0.9896130073982824"><ele>109.0</ele><time>2026-04-29T18:27:01.999Z</time></trkpt><trkpt lat="49.080293146102626" lon="-0.9896758400335625"><ele>109.00000000000001</ele><time>2026-04-29T18:27:02.999Z</time></trkpt><trkpt lat="49.08036776724571" lon="-0.9897337559402701"><ele>109.0</ele><time>2026-04-29T18:27:03.999Z</time></trkpt><trkpt lat="49.08044207161843" lon="-0.9897747102170509"><ele>109.00000000000001</ele><time>2026-04-29T18:27:04.999Z</time></trkpt><trkpt lat="49.08049561069606" lon="-0.9898567307292824"><ele>109.0</ele><time>2026-04-29T18:27:05.999Z</time></trkpt><trkpt lat="49.08053910938941" lon="-0.9899542203423083"><ele>109.0</ele><time>2026-04-29T18:27:06.999Z</time></trkpt><trkpt lat="49.080572793883746" lon="-0.9900695956389047"><ele>109.0</ele><time>2026-04-29T18:27:07.999Z</time></trkpt><trkpt lat="49.08060587200108" lon="-0.990177128434994"><ele>109.00000000000001</ele><time>2026-04-29T18:27:08.999Z</time></trkpt><trkpt lat="49.08064291346693" lon="-0.9902948604197757"><ele>109.0</ele><time>2026-04-29T18:27:09.999Z</time></trkpt><trkpt lat="49.08068419529254" lon="-0.9904033591017944"><ele>109.6</ele><time>2026-04-29T18:27:10.999Z</time></trkpt><trkpt lat="49.080712744660495" lon="-0.9904982234036803"><ele>110.2</ele><time>2026-04-29T18:27:11.999Z</time></trkpt><trkpt lat="49.08078753624345" lon="-0.9906608891235092"><ele>110.79999999999998</ele><time>2026-04-29T18:27:13.999Z</time></trkpt><trkpt lat="49.08082701699777" lon="-0.9907700280985334"><ele>111.39999999999999</ele><time>2026-04-29T18:27:14.999Z</time></trkpt><trkpt lat="49.080875701839204" lon="-0.9908827053931192"><ele>112.0</ele><time>2026-04-29T18:27:15.999Z</time></trkpt><trkpt lat="49.08091887023404" lon="-0.9909924249558885"><ele>113.50000000000001</ele><time>2026-04-29T18:27:16.999Z</time></trkpt><trkpt lat="49.08097576009197" lon="-0.9910939511011572"><ele>115.0</ele><time>2026-04-29T18:27:17.999Z</time></trkpt><trkpt lat="49.08101895462116" lon="-0.9911749858543688"><ele>116.5</ele><time>2026-04-29T18:27:18.999Z</time></trkpt><trkpt lat="49.08106267107905" lon="-0.9912876012285207"><ele>118.0</ele><time>2026-04-29T18:27:20.999Z</time></trkpt><trkpt lat="49.08110607964371" lon="-0.9913828168984868"><ele>119.50000000000001</ele><time>2026-04-29T18:27:24.999Z</time></trkpt><trkpt lat="49.08117977827158" lon="-0.9915117809488346"><ele>121.0</ele><time>2026-04-29T18:27:26.999Z</time></trkpt><trkpt lat="49.081233582605684" lon="-0.99157891633661"><ele>121.0</ele><time>2026-04-29T18:27:27.999Z</time></trkpt><trkpt lat="49.081319405218586" lon="-0.9916428983452555"><ele>121.0</ele><time>2026-04-29T18:27:29.999Z</time></trkpt><trkpt lat="49.08124714343349" lon="-0.9919358942941605"><ele>121.0</ele><time>2026-04-29T18:27:30.999Z</time></trkpt><trkpt lat="49.08131933871722" lon="-0.9920005279744871"><ele>121.0</ele><time>2026-04-29T18:27:32.999Z</time></trkpt><trkpt lat="49.08125127144715" lon="-0.9919402327907864"><ele>122.4</ele><time>2026-04-29T18:27:37.999Z</time></trkpt><trkpt lat="49.08132214992205" lon="-0.9920023529973"><ele>123.8</ele><time>2026-04-29T18:27:42.999Z</time></trkpt><trkpt lat="49.081382352063756" lon="-0.9920414371063653"><ele>125.20000000000002</ele><time>2026-04-29T18:27:44.999Z</time></trkpt><trkpt lat="49.08147925534486" lon="-0.9920712767688534"><ele>126.60000000000001</ele><time>2026-04-29T18:27:45.999Z</time></trkpt><trkpt lat="49.081598235405586" lon="-0.9920638764397701"><ele>128.0</ele><time>2026-04-29T18:27:47.999Z</time></trkpt><trkpt lat="49.081724952880236" lon="-0.9920638764460471"><ele>128.8</ele><time>2026-04-29T18:27:50.999Z</time></trkpt><trkpt lat="49.0818346561237" lon="-0.992063876457826"><ele>129.60000000000002</ele><time>2026-04-29T18:27:53.999Z</time></trkpt><trkpt lat="49.08185712231786" lon="-0.992251186830788"><ele>130.39999999999998</ele><time>2026-04-29T18:27:54.999Z</time></trkpt><trkpt lat="49.08191420896481" lon="-0.9924005889890717"><ele>131.2</ele><time>2026-04-29T18:27:56.999Z</time></trkpt><trkpt lat="49.08193031949554" lon="-0.9925047333859511"><ele>132.0</ele><time>2026-04-29T18:27:57.999Z</time></trkpt><trkpt lat="49.08194016566248" lon="-0.992694752025933"><ele>132.66666666666666</ele><time>2026-04-29T18:27:59.999Z</time></trkpt><trkpt lat="49.08192365819568" lon="-0.992853673009494"><ele>133.33333333333334</ele><time>2026-04-29T18:28:00.999Z</time></trkpt><trkpt lat="49.08190742948259" lon="-0.9929474799907371"><ele>134.0</ele><time>2026-04-29T18:28:01.999Z</time></trkpt><trkpt lat="49.081940981492345" lon="-0.99303139892366"><ele>134.66666666666669</ele><time>2026-04-29T18:28:02.999Z</time></trkpt><trkpt lat="49.081933308118565" lon="-0.9931970323428618"><ele>135.33333333333334</ele><time>2026-04-29T18:28:06.999Z</time></trkpt><trkpt lat="49.081936965571245" lon="-0.9933090507647707"><ele>136.0</ele><time>2026-04-29T18:28:07.999Z</time></trkpt><trkpt lat="49.081955193343525" lon="-0.993512047026845"><ele>136.8</ele><time>2026-04-29T18:28:09.999Z</time></trkpt><trkpt lat="49.08196378323634" lon="-0.9936201222575514"><ele>137.6</ele><time>2026-04-29T18:28:10.999Z</time></trkpt><trkpt lat="49.08197619342375" lon="-0.9937790578179277"><ele>138.4</ele><time>2026-04-29T18:28:12.999Z</time></trkpt><trkpt lat="49.082008131148186" lon="-0.9939268899603143"><ele>139.2</ele><time>2026-04-29T18:28:14.999Z</time></trkpt><trkpt lat="49.08201780915909" lon="-0.994142980193224"><ele>140.0</ele><time>2026-04-29T18:28:16.999Z</time></trkpt><trkpt lat="49.08203904241698" lon="-0.9942520410412483"><ele>140.6</ele><time>2026-04-29T18:28:17.999Z</time></trkpt><trkpt lat="49.0820369986574" lon="-0.9943571314234747"><ele>141.2</ele><time>2026-04-29T18:28:18.999Z</time></trkpt><trkpt lat="49.08206147161595" lon="-0.9945516938441279"><ele>141.8</ele><time>2026-04-29T18:28:20.999Z</time></trkpt><trkpt lat="49.08208669842003" lon="-0.9947421023525221"><ele>142.4</ele><time>2026-04-29T18:28:22.999Z</time></trkpt><trkpt lat="49.082107642825534" lon="-0.9949220868358599"><ele>143.0</ele><time>2026-04-29T18:28:24.999Z</time></trkpt><trkpt lat="49.08213476047321" lon="-0.9950725766694202"><ele>143.5</ele><time>2026-04-29T18:28:26.999Z</time></trkpt><trkpt lat="49.082151912911456" lon="-0.9951899076917481"><ele>144.0</ele><time>2026-04-29T18:28:27.999Z</time></trkpt><trkpt lat="49.08216544552098" lon="-0.9953178732618693"><ele>144.5</ele><time>2026-04-29T18:28:29Z</time></trkpt><trkpt lat="49.08217076605496" lon="-0.995425552631854"><ele>145.0</ele><time>2026-04-29T18:28:30Z</time></trkpt><trkpt lat="49.082192790160576" lon="-0.9955216777320021"><ele>145.5</ele><time>2026-04-29T18:28:31Z</time></trkpt><trkpt lat="49.082225965448984" lon="-0.9957137957117321"><ele>146.0</ele><time>2026-04-29T18:28:33Z</time></trkpt><trkpt lat="49.08224343499189" lon="-0.9958279958546218"><ele>146.4</ele><time>2026-04-29T18:28:34Z</time></trkpt><trkpt lat="49.08226785084655" lon="-0.995998450443028"><ele>146.8</ele><time>2026-04-29T18:28:36Z</time></trkpt><trkpt lat="49.08223628572506" lon="-0.9961256775366499"><ele>147.20000000000002</ele><time>2026-04-29T18:28:38Z</time></trkpt><trkpt lat="49.08230341727661" lon="-0.9961995676293585"><ele>147.6</ele><time>2026-04-29T18:28:40Z</time></trkpt><trkpt lat="49.08237536513177" lon="-0.9960807602547403"><ele>148.0</ele><time>2026-04-29T18:28:42Z</time></trkpt><trkpt lat="49.082476855812864" lon="-0.9959819356776969"><ele>148.8</ele><time>2026-04-29T18:28:44Z</time></trkpt><trkpt lat="49.08255314695513" lon="-0.9959741341025111"><ele>149.60000000000002</ele><time>2026-04-29T18:28:45Z</time></trkpt><trkpt lat="49.08265610117878" lon="-0.9960251069618414"><ele>150.39999999999998</ele><time>2026-04-29T18:28:46Z</time></trkpt><trkpt lat="49.08277520265509" lon="-0.9960988650900747"><ele>151.2</ele><time>2026-04-29T18:28:47Z</time></trkpt><trkpt lat="49.082905788912036" lon="-0.9961350529349615"><ele>152.0</ele><time>2026-04-29T18:28:48Z</time></trkpt><trkpt lat="49.08302015137977" lon="-0.9961782259693972"><ele>152.0</ele><time>2026-04-29T18:28:49Z</time></trkpt><trkpt lat="49.08312966079707" lon="-0.996230925476065"><ele>152.0</ele><time>2026-04-29T18:28:50Z</time></trkpt><trkpt lat="49.08321482006355" lon="-0.9962609914810724"><ele>152.0</ele><time>2026-04-29T18:28:51Z</time></trkpt><trkpt lat="49.08330562673538" lon="-0.9963073204867198"><ele>152.0</ele><time>2026-04-29T18:28:52Z</time></trkpt><trkpt lat="49.083410083137046" lon="-0.9963450525090745"><ele>152.0</ele><time>2026-04-29T18:28:53Z</time></trkpt><trkpt lat="49.08351276816382" lon="-0.9963752767454687"><ele>152.5</ele><time>2026-04-29T18:28:54Z</time></trkpt><trkpt lat="49.08362847487081" lon="-0.9964144657364973"><ele>153.0</ele><time>2026-04-29T18:28:55Z</time></trkpt><trkpt lat="49.083745325334604" lon="-0.9964315472095933"><ele>153.5</ele><time>2026-04-29T18:28:56Z</time></trkpt><trkpt lat="49.08385317682439" lon="-0.9964806516445932"><ele>154.0</ele><time>2026-04-29T18:28:57Z</time></trkpt><trkpt lat="49.08396679325066" lon="-0.9964919224320515"><ele>154.0</ele><time>2026-04-29T18:28:58Z</time></trkpt><trkpt lat="49.08407968467264" lon="-0.9965331364935778"><ele>154.0</ele><time>2026-04-29T18:28:59Z</time></trkpt><trkpt lat="49.084189369231574" lon="-0.9965715939195562"><ele>154.0</ele><time>2026-04-29T18:29:00Z</time></trkpt><trkpt lat="49.08428756505642" lon="-0.9965870450883259"><ele>154.0</ele><time>2026-04-29T18:29:01Z</time></trkpt><trkpt lat="49.0843951773235" lon="-0.9966171845301758"><ele>154.0</ele><time>2026-04-29T18:29:02Z</time></trkpt><trkpt lat="49.08450815825868" lon="-0.9966603122109849"><ele>154.8</ele><time>2026-04-29T18:29:03Z</time></trkpt><trkpt lat="49.08462034646443" lon="-0.9967089283109927"><ele>155.60000000000002</ele><time>2026-04-29T18:29:04Z</time></trkpt><trkpt lat="49.08473127238878" lon="-0.9967538089976129"><ele>156.4</ele><time>2026-04-29T18:29:05Z</time></trkpt><trkpt lat="49.08482147617895" lon="-0.9968009646712546"><ele>157.20000000000002</ele><time>2026-04-29T18:29:06Z</time></trkpt><trkpt lat="49.084900957366465" lon="-0.9968474901446345"><ele>158.0</ele><time>2026-04-29T18:29:07Z</time></trkpt><trkpt lat="49.08498766582671" lon="-0.9968862047230556"><ele>158.60000000000002</ele><time>2026-04-29T18:29:08Z</time></trkpt><trkpt lat="49.085086673020925" lon="-0.996948728580801"><ele>159.20000000000002</ele><time>2026-04-29T18:29:09Z</time></trkpt><trkpt lat="49.085162254518735" lon="-0.9970388262014122"><ele>159.8</ele><time>2026-04-29T18:29:10Z</time></trkpt><trkpt lat="49.08528389505154" lon="-0.9970647992526142"><ele>160.4</ele><time>2026-04-29T18:29:11Z</time></trkpt><trkpt lat="49.08538125139039" lon="-0.9970799672444447"><ele>161.0</ele><time>2026-04-29T18:29:12Z</time></trkpt><trkpt lat="49.08546595871852" lon="-0.9971161933937703"><ele>161.0</ele><time>2026-04-29T18:29:13Z</time></trkpt><trkpt lat="49.08553457183479" lon="-0.9971387007166758"><ele>161.0</ele><time>2026-04-29T18:29:14Z</time></trkpt><trkpt lat="49.08560600058474" lon="-0.9971667131779124"><ele>161.0</ele><time>2026-04-29T18:29:15Z</time></trkpt><trkpt lat="49.08569532595368" lon="-0.9972056981419445"><ele>161.0</ele><time>2026-04-29T18:29:16Z</time></trkpt><trkpt lat="49.08577575064596" lon="-0.9972436874605444"><ele>161.0</ele><time>2026-04-29T18:29:17Z</time></trkpt><trkpt lat="49.085850882854544" lon="-0.9972778699083547"><ele>161.0</ele><time>2026-04-29T18:29:18Z</time></trkpt><trkpt lat="49.08592224185572" lon="-0.9973201559629543"><ele>161.20000000000002</ele><time>2026-04-29T18:29:19Z</time></trkpt><trkpt lat="49.086008507091634" lon="-0.9973750260711195"><ele>161.4</ele><time>2026-04-29T18:29:20Z</time></trkpt><trkpt lat="49.08610578218717" lon="-0.9974399186570143"><ele>161.6</ele><time>2026-04-29T18:29:21Z</time></trkpt><trkpt lat="49.08618828434695" lon="-0.9974958101043819"><ele>161.8</ele><time>2026-04-29T18:29:22Z</time></trkpt><trkpt lat="49.086268513277545" lon="-0.997553708569356"><ele>162.0</ele><time>2026-04-29T18:29:23Z</time></trkpt><trkpt lat="49.08636205810273" lon="-0.9975916678118331"><ele>162.0</ele><time>2026-04-29T18:29:24Z</time></trkpt><trkpt lat="49.08645126880024" lon="-0.9976514449450233"><ele>162.0</ele><time>2026-04-29T18:29:25Z</time></trkpt><trkpt lat="49.086541790241036" lon="-0.9977136728916198"><ele>162.0</ele><time>2026-04-29T18:29:26Z</time></trkpt><trkpt lat="49.086612425127186" lon="-0.9977344277590072"><ele>162.0</ele><time>2026-04-29T18:29:27Z</time></trkpt><trkpt lat="49.08666716293583" lon="-0.9977833750431447"><ele>162.0</ele><time>2026-04-29T18:29:28Z</time></trkpt><trkpt lat="49.086711114762075" lon="-0.9978716241810716"><ele>162.0</ele><time>2026-04-29T18:29:32Z</time></trkpt><trkpt lat="49.08671541833177" lon="-0.9979825817030615"><ele>162.25</ele><time>2026-04-29T18:29:33Z</time></trkpt><trkpt lat="49.08667312701992" lon="-0.9981304001541034"><ele>162.5</ele><time>2026-04-29T18:29:34Z</time></trkpt><trkpt lat="49.08661810374867" lon="-0.9982929201253542"><ele>162.75</ele><time>2026-04-29T18:29:35Z</time></trkpt><trkpt lat="49.086570866378615" lon="-0.9984879175748563"><ele>163.0</ele><time>2026-04-29T18:29:36Z</time></trkpt><trkpt lat="49.086545751268446" lon="-0.998712172301734"><ele>162.33333333333334</ele><time>2026-04-29T18:29:37Z</time></trkpt><trkpt lat="49.086529354562444" lon="-0.9989597965263622"><ele>161.66666666666666</ele><time>2026-04-29T18:29:38Z</time></trkpt><trkpt lat="49.08650762541932" lon="-0.9992196878394405"><ele>161.0</ele><time>2026-04-29T18:29:39Z</time></trkpt><trkpt lat="49.08649158117259" lon="-0.999494239252148"><ele>160.66666666666666</ele><time>2026-04-29T18:29:40Z</time></trkpt><trkpt lat="49.08647275334631" lon="-0.9997727126172311"><ele>160.33333333333334</ele><time>2026-04-29T18:29:41Z</time></trkpt><trkpt lat="49.086445303785766" lon="-1.000070117640548"><ele>160.0</ele><time>2026-04-29T18:29:42Z</time></trkpt><trkpt lat="49.08639765121157" lon="-1.0003584967348784"><ele>160.0</ele><time>2026-04-29T18:29:43Z</time></trkpt><trkpt lat="49.08632941581" lon="-1.0006353266778292"><ele>160.0</ele><time>2026-04-29T18:29:44Z</time></trkpt><trkpt lat="49.08625641477071" lon="-1.0009250179725617"><ele>160.0</ele><time>2026-04-29T18:29:45Z</time></trkpt><trkpt lat="49.08618282545223" lon="-1.0012087513629078"><ele>160.0</ele><time>2026-04-29T18:29:46Z</time></trkpt><trkpt lat="49.086114799610435" lon="-1.001500779050776"><ele>160.0</ele><time>2026-04-29T18:29:47Z</time></trkpt><trkpt lat="49.086051497729166" lon="-1.0017989865672847"><ele>160.0</ele><time>2026-04-29T18:29:48Z</time></trkpt><trkpt lat="49.085986914097155" lon="-1.0020964376043369"><ele>160.66666666666669</ele><time>2026-04-29T18:29:49Z</time></trkpt><trkpt lat="49.085929618236825" lon="-1.002399302270296"><ele>161.33333333333334</ele><time>2026-04-29T18:29:50Z</time></trkpt><trkpt lat="49.0858739003591" lon="-1.0027050310029395"><ele>162.0</ele><time>2026-04-29T18:29:51Z</time></trkpt><trkpt lat="49.085817375801405" lon="-1.0030043565824536"><ele>161.33333333333334</ele><time>2026-04-29T18:29:52Z</time></trkpt><trkpt lat="49.085759253958535" lon="-1.0033120439758645"><ele>160.66666666666669</ele><time>2026-04-29T18:29:53Z</time></trkpt><trkpt lat="49.08570777034977" lon="-1.0035947622271923"><ele>160.0</ele><time>2026-04-29T18:29:54Z</time></trkpt><trkpt lat="49.08566117117864" lon="-1.0038457013638886"><ele>160.8</ele><time>2026-04-29T18:29:54.999Z</time></trkpt><trkpt lat="49.085620751875105" lon="-1.0040559968002143"><ele>161.6</ele><time>2026-04-29T18:29:55.999Z</time></trkpt><trkpt lat="49.085584556659455" lon="-1.0042316127321138"><ele>162.39999999999998</ele><time>2026-04-29T18:29:56.999Z</time></trkpt><trkpt lat="49.085556375143035" lon="-1.004363419244696"><ele>163.2</ele><time>2026-04-29T18:29:57.999Z</time></trkpt><trkpt lat="49.08553549580096" lon="-1.0044554009928932"><ele>164.0</ele><time>2026-04-29T18:29:58.999Z</time></trkpt><trkpt lat="49.085534640805314" lon="-1.0045822823667543"><ele>165.0</ele><time>2026-04-29T18:30:00.999Z</time></trkpt><trkpt lat="49.085737826321555" lon="-1.004787776998723"><ele>166.0</ele><time>2026-04-29T18:30:01.999Z</time></trkpt><trkpt lat="49.0858157874963" lon="-1.004959251004343"><ele>167.0</ele><time>2026-04-29T18:30:02.999Z</time></trkpt><trkpt lat="49.085902124685596" lon="-1.0051460963938923"><ele>168.66666666666666</ele><time>2026-04-29T18:30:03.999Z</time></trkpt><trkpt lat="49.085998091587854" lon="-1.0053274284252596"><ele>170.33333333333334</ele><time>2026-04-29T18:30:04.999Z</time></trkpt><trkpt lat="49.086108062607735" lon="-1.0054872491840183"><ele>172.0</ele><time>2026-04-29T18:30:05.999Z</time></trkpt><trkpt lat="49.08623893653159" lon="-1.0056448754499283"><ele>172.0</ele><time>2026-04-29T18:30:06.999Z</time></trkpt><trkpt lat="49.086400261931665" lon="-1.0058018769473287"><ele>172.0</ele><time>2026-04-29T18:30:07.999Z</time></trkpt><trkpt lat="49.08656423820148" lon="-1.005951751335285"><ele>172.0</ele><time>2026-04-29T18:30:08.999Z</time></trkpt><trkpt lat="49.08673612251475" lon="-1.0061189640277788"><ele>171.33333333333334</ele><time>2026-04-29T18:30:09.999Z</time></trkpt><trkpt lat="49.08691417969867" lon="-1.0062627991413648"><ele>170.66666666666666</ele><time>2026-04-29T18:30:10.999Z</time></trkpt><trkpt lat="49.08703829796675" lon="-1.0064237974946837"><ele>170.0</ele><time>2026-04-29T18:30:11.999Z</time></trkpt><trkpt lat="49.087164623921076" lon="-1.0065886398225088"><ele>169.5</ele><time>2026-04-29T18:30:12.999Z</time></trkpt><trkpt lat="49.08729159961477" lon="-1.0067031195400333"><ele>169.0</ele><time>2026-04-29T18:30:13.999Z</time></trkpt><trkpt lat="49.08740840523944" lon="-1.0068181816665633"><ele>168.5</ele><time>2026-04-29T18:30:14.999Z</time></trkpt><trkpt lat="49.087529511065476" lon="-1.0069136463660044"><ele>168.0</ele><time>2026-04-29T18:30:15.999Z</time></trkpt><trkpt lat="49.08763678304014" lon="-1.007021341867216"><ele>166.60000000000002</ele><time>2026-04-29T18:30:16.999Z</time></trkpt><trkpt lat="49.087746706474434" lon="-1.0070939099098961"><ele>165.20000000000002</ele><time>2026-04-29T18:30:17.999Z</time></trkpt><trkpt lat="49.0878525754419" lon="-1.007153361297339"><ele>163.8</ele><time>2026-04-29T18:30:18.999Z</time></trkpt><trkpt lat="49.08795288542912" lon="-1.0072001053553221"><ele>162.4</ele><time>2026-04-29T18:30:19.999Z</time></trkpt><trkpt lat="49.0880568990072" lon="-1.0072373513975128"><ele>161.0</ele><time>2026-04-29T18:30:20.999Z</time></trkpt><trkpt lat="49.08818773338118" lon="-1.0072101461413105"><ele>160.0</ele><time>2026-04-29T18:30:21.999Z</time></trkpt><trkpt lat="49.08831602095342" lon="-1.0071904113176113"><ele>159.0</ele><time>2026-04-29T18:30:22.999Z</time></trkpt><trkpt lat="49.088428779498635" lon="-1.0071597392601819"><ele>158.0</ele><time>2026-04-29T18:30:23.999Z</time></trkpt><trkpt lat="49.08853156057126" lon="-1.00715504285604"><ele>157.0</ele><time>2026-04-29T18:30:24.999Z</time></trkpt><trkpt lat="49.08862880675923" lon="-1.0071352908288786"><ele>156.0</ele><time>2026-04-29T18:30:25.999Z</time></trkpt><trkpt lat="49.08871513366898" lon="-1.007116957371448"><ele>156.0</ele><time>2026-04-29T18:30:26.999Z</time></trkpt><trkpt lat="49.08879796683319" lon="-1.00707667259528"><ele>156.0</ele><time>2026-04-29T18:30:27.999Z</time></trkpt><trkpt lat="49.08887530018801" lon="-1.0070205993333707"><ele>156.0</ele><time>2026-04-29T18:30:28.999Z</time></trkpt><trkpt lat="49.08894843930233" lon="-1.0069610844195827"><ele>156.0</ele><time>2026-04-29T18:30:29.999Z</time></trkpt><trkpt lat="49.0890320165874" lon="-1.0068823528309738"><ele>156.0</ele><time>2026-04-29T18:30:31Z</time></trkpt><trkpt lat="49.089138093877516" lon="-1.0067581534748922"><ele>153.75</ele><time>2026-04-29T18:30:32Z</time></trkpt><trkpt lat="49.08928656432717" lon="-1.0065875902542627"><ele>151.5</ele><time>2026-04-29T18:30:33Z</time></trkpt><trkpt lat="49.08941230751391" lon="-1.0064497661427705"><ele>149.25</ele><time>2026-04-29T18:30:34Z</time></trkpt><trkpt lat="49.08949326866059" lon="-1.0064168539595173"><ele>147.0</ele><time>2026-04-29T18:30:35Z</time></trkpt><trkpt lat="49.089591125134355" lon="-1.00635426218034"><ele>147.0</ele><time>2026-04-29T18:30:36Z</time></trkpt><trkpt lat="49.08976274488689" lon="-1.0062228902061507"><ele>147.0</ele><time>2026-04-29T18:30:37Z</time></trkpt><trkpt lat="49.08995540270489" lon="-1.006063582092641"><ele>147.0</ele><time>2026-04-29T18:30:38Z</time></trkpt><trkpt lat="49.09009852402673" lon="-1.0059591717685687"><ele>147.2</ele><time>2026-04-29T18:30:39Z</time></trkpt><trkpt lat="49.09021852343401" lon="-1.0058763717802843"><ele>147.39999999999998</ele><time>2026-04-29T18:30:40Z</time></trkpt><trkpt lat="49.090316383740905" lon="-1.00580366446005"><ele>147.60000000000002</ele><time>2026-04-29T18:30:41Z</time></trkpt><trkpt lat="49.09040719621511" lon="-1.0057269020303412"><ele>147.8</ele><time>2026-04-29T18:30:42Z</time></trkpt><trkpt lat="49.09048464031906" lon="-1.0056581740398634"><ele>148.0</ele><time>2026-04-29T18:30:43Z</time></trkpt><trkpt lat="49.090545519745675" lon="-1.0055861035215021"><ele>148.0</ele><time>2026-04-29T18:30:44Z</time></trkpt><trkpt lat="49.090613233752386" lon="-1.0055419030960782"><ele>148.0</ele><time>2026-04-29T18:30:46Z</time></trkpt><trkpt lat="49.090655195118224" lon="-1.0056271901748766"><ele>148.0</ele><time>2026-04-29T18:30:49Z</time></trkpt><trkpt lat="49.090741959891076" lon="-1.0057040530008672"><ele>148.0</ele><time>2026-04-29T18:30:51Z</time></trkpt><trkpt lat="49.09078362488158" lon="-1.0058626366651096"><ele>148.0</ele><time>2026-04-29T18:30:53Z</time></trkpt><trkpt lat="49.090705483289014" lon="-1.0059679272717206"><ele>148.0</ele><time>2026-04-29T18:30:54Z</time></trkpt></trkseg></trk></gpx>